[[{"header":{"parameterUnit":"m.s-1","parameterCategory":1,"la1":31.0,"la2":29.5877,"lo1":-88.7671,"lo2":-86.6584,"dx":0.0162,"dy":0.0185,"nx":115,"ny":88,"refTime":"2023-01-05T06:00:00:Z","depth":0,"parameterNumber":2,"parameterNumberName":"U-component_of_WINDS"},"data":[0.0,0.0,0.0,0.0,0.0,0.0,0.0,0.0,0.0,0.0,0.0,0.0,0.0,0.0,0.0,0.0,0.0,0.0,0.0,0.0,0.0,0.0,0.0,0.0,0.0,0.0,0.0,0.0,0.0,0.0,0.0,0.0,0.0,0.0,0.0,0.0,0.0,0.0,0.0,0.0,0.0,0.0,0.0,0.0,0.0,0.0,0.0,0.0,0.0,0.0,0.0,0.0,0.0,0.0,0.0,0.0,0.0,0.0,0.0,0.0,0.0,0.0,0.0,0.0,0.0,0.0,0.0,0.0,0.0,0.0,0.0,0.0,0.0,0.0,0.0,0.0,0.0,0.0,0.0,0.0,0.0,0.0,0.0,0.0,0.0,0.0,0.0,0.0,0.0,0.0,0.0,0.0,0.0,0.0,0.0,0.0,0.0,0.0,0.0,0.0,0.0,0.0,0.0,0.0,0.0,0.0,0.0,0.0,0.0,0.0,0.0,0.0,0.0,0.0,0.0,0.0,0.0,0.0,0.0,0.0,0.0,0.0,0.0,0.0,0.0,0.0,0.0,0.0,0.0,0.0,0.0,0.0,0.0,0.0,0.0,0.0,0.0,0.0,0.0,0.0,0.0,0.0,0.0,0.0,0.0,0.0,0.0,0.0,0.0,0.0,0.0,0.0,0.0,0.0,0.0,0.0,0.0,0.0,0.0,0.0,0.0,0.0,0.0,0.0,0.0,0.0,0.0,0.0,0.0,0.0,0.0,0.0,0.0,0.0,0.0,0.0,0.0,0.0,0.0,0.0,0.0,0.0,0.0,0.0,0.0,0.0,0.0,0.0,0.0,0.0,0.0,0.0,0.0,0.0,0.0,0.0,0.0,0.0,0.0,0.0,0.0,0.0,0.0,0.0,0.0,0.0,0.0,0.0,0.0,0.0,0.0,0.0,0.0,0.0,0.0,0.0,0.0,0.0,0.0,0.0,0.0,0.0,0.0,0.0,0.0,0.0,0.0,0.0,0.0,0.0,0.0,0.0,0.0,0.0,0.0,0.0,0.0,0.0,0.0,0.0,0.0,0.0,0.0,0.0,0.0,0.0,0.0,0.0,0.0,0.0,0.0,0.0,0.0,0.0,0.0,0.0,0.0,0.0,0.0,0.0,0.0,0.0,0.0,0.0,0.0,0.0,0.0,0.0,0.0,0.0,0.0,0.0,0.0,0.0,0.0,0.0,0.0,0.0,0.0,0.0,0.0,0.0,0.0,0.0,0.0,0.0,0.0,0.0,0.0,0.0,0.0,0.0,0.0,0.0,0.0,0.0,0.0,0.0,0.0,0.0,0.0,0.0,0.0,0.0,0.0,0.0,0.0,0.0,0.0,0.0,0.0,0.0,0.0,0.0,0.0,0.0,0.0,0.0,0.0,0.0,0.0,0.0,0.0,0.0,0.0,0.0,0.0,0.0,0.0,0.0,0.0,0.0,0.0,0.0,0.0,0.0,0.0,0.0,0.0,0.0,0.0,0.0,0.0,0.0,0.0,0.0,0.0,0.0,0.0,0.0,0.0,0.0,0.0,0.0,0.0,0.0,0.0,0.0,0.0,0.0,0.0,0.0,0.0,0.0,0.0,0.0,0.0,0.0,0.0,0.0,0.0,0.0,0.0,0.0,0.0,0.0,0.0,0.0,0.0,0.0,0.0,0.0,0.0,0.0,0.0,0.0,0.0,0.0,0.0,0.0,0.0,0.0,0.0,0.0,0.0,0.0,0.0,0.0,0.0,0.0,0.0,0.0,0.0,0.0,0.0,0.0,0.0,0.0,0.0,0.0,0.0,0.0,0.0,0.0,0.0,0.0,0.0,0.0,0.0,0.0,0.0,0.0,0.0,0.0,0.0,0.0,0.0,0.0,0.0,0.0,0.0,0.0,0.0,0.0,0.0,0.0,0.0,0.0,0.0,0.0,0.0,0.0,0.0,0.0,0.0,0.0,0.0,0.0,0.0,0.0,0.0,0.0,0.0,0.0,0.0,0.0,0.0,0.0,0.0,0.0,0.0,0.0,0.0,0.0,0.0,0.0,0.0,0.0,0.0,0.0,0.0,0.0,0.0,0.0,0.0,0.0,0.0,0.0,0.0,0.0,0.0,0.0,0.0,0.0,0.0,0.0,0.0,0.0,0.0,0.0,0.0,0.0,0.0,0.0,0.0,0.0,0.0,0.0,0.0,0.0,0.0,0.0,0.0,0.0,0.0,0.0,0.0,0.0,0.0,0.0,0.0,0.0,0.0,0.0,0.0,0.0,0.0,0.0,0.0,0.0,0.0,0.0,0.0,0.0,0.0,0.0,0.0,0.0,0.0,0.0,0.0,0.0,0.0,0.0,0.0,0.0,0.0,0.0,0.0,0.0,0.0,0.0,0.0,0.0,0.0,0.0,0.0,0.0,0.0,0.0,0.0,0.0,0.0,0.0,0.0,0.0,0.0,0.0,0.0,0.0,0.0,0.0,0.0,0.0,0.0,0.0,0.0,0.0,0.0,0.0,0.0,0.0,0.0,0.0,0.0,0.0,0.0,0.0,0.0,0.0,0.0,0.0,0.0,0.0,0.0,0.0,0.0,0.0,0.0,0.0,0.0,0.0,0.0,0.0,0.0,0.0,0.0,0.0,0.0,0.0,0.0,0.0,0.0,0.0,0.0,0.0,0.0,0.0,0.0,0.0,0.0,0.0,0.0,0.0,0.0,0.0,0.0,0.0,0.0,0.0,0.0,0.0,0.0,0.0,0.0,0.0,0.0,0.0,0.0,0.0,0.0,0.0,0.0,0.0,0.0,0.0,0.0,0.0,0.0,0.0,0.0,0.0,0.0,0.0,0.0,0.0,0.0,0.0,0.0,0.0,0.0,0.0,0.0,0.0,0.0,0.0,0.0,0.0,0.0,0.0,0.0,0.0,0.0,0.0,0.0,0.0,0.0,0.0,0.0,0.0,0.0,0.0,0.0,0.0,0.0,0.0,0.0,0.0,0.0,0.0,0.0,0.0,0.0,0.0,0.0,0.0,0.0,0.0,0.0,0.0,0.0,0.0,0.0,0.0,0.0,0.0,0.0,0.0,0.0,0.0,0.0,0.0,0.0,0.0,0.0,0.0,0.0,0.0,0.0,0.0,0.0,0.0,0.0,0.0,0.0,0.0,0.0,0.0,0.0,0.0,0.0,0.0,0.0,0.0,0.0,0.0,0.0,0.0,0.0,0.0,0.0,0.0,0.0,0.0,0.0,0.0,0.0,0.0,0.0,0.0,0.0,0.0,0.0,0.0,0.0,0.0,0.0,0.0,0.0,0.0,0.0,0.0,0.0,0.0,0.0,0.0,0.0,0.0,0.0,0.0,0.0,0.0,0.0,0.0,0.0,0.0,0.0,0.0,0.0,0.0,0.0,0.0,0.0,0.0,0.0,0.0,0.0,0.0,0.0,0.0,0.0,0.0,0.0,0.0,0.0,0.0,0.0,0.0,0.0,0.0,0.0,0.0,0.0,0.0,0.0,0.0,0.0,0.0,0.0,0.0,0.0,0.0,0.0,0.0,0.0,0.0,0.0,0.0,0.0,0.0,0.0,0.0,0.0,0.0,0.0,0.0,0.0,0.0,0.0,0.0,0.0,0.0,0.0,0.0,0.0,0.0,0.0,0.0,0.0,0.0,0.0,0.0,0.0,0.0,0.0,0.0,0.0,0.0,0.0,0.0,0.0,0.0,0.0,0.0,0.0,0.0,0.0,0.0,0.0,0.0,0.0,0.0,0.0,0.0,0.0,0.0,0.0,0.0,0.0,0.0,0.0,0.0,0.0,0.0,0.0,0.0,0.0,0.0,0.0,0.0,0.0,0.0,0.0,0.0,0.0,0.0,0.0,0.0,0.0,0.0,0.0,0.0,0.0,0.0,0.0,0.0,0.0,0.0,0.0,0.0,0.0,0.0,0.0,0.0,0.0,0.0,0.0,0.0,0.0,0.0,0.0,0.0,0.0,0.0,0.0,0.0,0.0,0.0,0.0,0.0,0.0,0.0,0.0,0.0,0.0,0.0,0.0,0.0,0.0,0.0,0.0,0.0,0.0,0.0,0.0,0.0,0.0,0.0,0.0,0.0,0.0,0.0,0.0,0.0,0.0,0.0,0.0,0.0,0.0,0.0,0.0,0.0,0.0,0.0,0.0,0.0,0.0,0.0,0.0,0.0,0.0,0.0,0.0,0.0,0.0,0.0,0.0,0.0,0.0,0.0,0.0,0.0,-0.1914,0.0,0.0,0.0,-0.4359,0.0,0.0,0.0,0.0,0.0,0.0,0.0,0.0,0.0,0.0,0.0,0.0,0.0,0.0,0.0,0.0,0.0,0.0,0.0,0.0,0.0,0.0,0.0,0.0,0.0,0.0,0.0,0.0,0.0,0.0,0.0,0.0,0.0,0.0,0.0,0.0,0.0,0.0,0.0,0.0,0.0,0.0,0.0,0.0,0.0,0.0,0.0,0.0,0.0,0.0,0.0,0.0,0.0,0.0,0.0,0.0,0.0,0.0,0.0,0.0,0.0,0.0,0.0,0.0,0.0,0.0,0.0,0.0,0.0,0.0,0.0,0.0,0.0,0.0,0.0,0.0,0.0,0.0,0.0,0.0,0.0,0.0,0.0,0.0,0.0,0.0,0.0,0.0,0.0,0.0,0.0,0.0,0.0,0.0,0.0,0.0,0.0,0.0,0.0,0.0,0.0,0.0,0.0,0.0,0.0,0.0,0.0,0.0,0.0,0.0,-0.1588,-0.2236,-0.2673,-0.3232,-0.3904,0.0,0.0,0.0,0.0,0.0,0.0,0.0,0.0,0.0,0.0,0.0,0.0,0.0,0.0,0.0,0.0,0.0,0.0,0.0,0.0,0.0,0.0,0.0,0.0,0.0,0.0,0.0,0.0,0.0,0.0,0.0,0.0,0.0,0.0,0.0,0.0,0.0,0.0,0.0,0.0,0.0,0.0,0.0,0.0,0.0,0.0,0.0,0.0,0.0,0.0,0.0,0.0,0.0,0.0,0.0,0.0,0.0,0.0,0.0,0.0,0.0,0.0,0.0,0.0,0.0,0.0,0.0,0.0,0.0,0.0,0.0,0.0,0.0,0.0,0.0,0.0,0.0,0.0,0.0,0.0,0.0,0.0,0.0,0.0,0.0,0.0,0.0,0.0,0.0,0.0,0.0,0.0,0.0,0.0,0.0,0.0,0.0,0.0,0.0,0.0,0.0,0.0,0.0,0.0,0.0,0.0,0.0,0.0,0.0,0.0,0.0,0.0,-0.2474,-0.3035,-0.3397,0.0,0.0,0.0,0.0,0.0,0.0,0.0,0.0,0.0,0.0,0.0,0.0,0.0,0.0,0.0,0.0,0.0,0.0,0.0,0.0,0.0,0.0,0.0,0.0,0.0,0.0,0.0,0.0,0.0,0.0,0.0,0.0,0.0,0.0,0.0,0.0,0.0,0.0,0.0,0.0,0.0,0.0,0.0,0.0,0.0,0.0,0.0,0.0,0.0,0.0,0.0,0.0,0.0,0.0,0.0,0.0,0.0,0.0,0.0,0.0,0.0,0.0,0.0,0.0,0.0,0.0,0.0,0.0,0.0,0.0,0.0,0.0,0.0,0.0,0.0,0.0,0.0,0.0,0.0,0.0,0.0,0.0,0.0,0.0,0.0,0.0,0.0,0.0,0.0,0.0,0.0,0.0,0.0,0.0,0.0,0.0,0.0,0.0,0.0,0.0,0.0,0.0,0.0,0.0,0.0,0.0,0.0,0.0,0.0,0.0,-0.0758,-0.1168,-0.1776,0.0,-0.2823,0.0,0.0,0.0,0.0,0.0,0.0,0.0,0.0,0.0,0.0,0.0,0.0,0.0,0.0,0.0,0.0,0.0,0.0,0.0,0.0,0.0,0.0,0.0,0.0,0.0,0.0,0.0,0.0,0.0,0.0,0.0,0.0,0.0,0.0,0.0,0.0,0.0,0.0,0.0,0.0,0.0,0.0,0.0,0.0,0.0,0.0,0.0,0.0,0.0,0.0,0.0,0.0,0.0,0.0,0.0,0.0,0.0,0.0,0.0,0.0,0.0,0.0,0.0,0.0,0.0,0.0,0.0,0.0,0.0,0.0,0.0,0.0,0.0,0.0,0.0,0.0,0.0,0.0,0.0,0.0,0.0,0.0,0.0,0.0,0.0,0.0,0.0,0.0,0.0,0.0,0.0,0.0,0.0,0.0,0.0,0.0,0.0,0.0,0.0,0.0,0.0,0.0,0.0,0.0,0.0,0.0,0.0,0.0,0.0,0.0,-0.019,-0.0735,-0.1238,-0.1709,0.0,0.0,0.0,0.0,0.0,0.0,0.0,0.0,0.0,0.0,0.0,0.0,0.0,0.0,0.0,0.0,0.0,0.0,0.0,0.0,0.0,0.0,0.0,0.0,0.0,0.0,0.0,0.0,0.0,0.0,0.0,0.0,0.0,0.0,0.0,0.0,0.0,0.0,0.0,0.0,0.0,0.0,0.0,0.0,0.0,0.0,0.0,0.0,0.0,0.0,0.0,0.0,0.0,0.0,0.0,0.0,0.0,0.0,0.0,0.0,0.0,0.0,0.0,0.0,0.0,0.0,0.0,0.0,0.0,0.0,0.0,0.0,0.0,0.0,0.0,0.0,0.0,0.0,0.0,0.0,0.0,0.0,0.0,0.0,0.0,0.0,0.0,0.0,0.0,0.0,0.0,0.0,0.0,0.0,0.0,0.0,0.0,0.0,0.0,0.0,0.0,0.0,0.0,0.0,0.0,0.0,0.0,0.0,0.0,0.0,0.0667,0.0324,-0.0341,-0.0843,-0.1171,-0.1375,0.0,0.0,0.0,0.0,0.0,0.0,0.0,0.0,0.0,0.0,0.0,0.0,0.0,0.0,0.0,0.0,0.0,0.0,0.0,0.0,0.0,0.0,0.0,0.0,0.0,0.0,0.0,0.0,0.0,0.0,0.0,0.0,0.0,0.0,0.0,0.0,0.0,0.0,0.0,0.0,0.0,0.0,0.0,0.0,0.0,0.0,0.0,0.0,0.0,0.0,0.0,0.0,0.0,0.0,0.0,0.0,0.0,0.0,0.0,0.0,0.0,0.0,0.0,0.0,0.0,0.0,0.0,0.0,0.0,0.0,0.0,0.0,0.0,0.0,0.0,0.0,0.0,0.0,0.0,0.0,0.0,0.0,0.0,0.0,0.0,0.0,0.0,0.0,0.0,0.0,0.0,0.0,0.0,0.0,0.0,0.0,0.0,0.0,0.0,0.0,0.0,0.0,0.0,0.0,0.0,0.0,0.0,0.0,0.1208,0.114,0.0688,-0.0072,-0.0519,-0.0774,0.0,0.0,0.0,0.0,0.0,0.0,0.0,0.0,0.0,0.0,0.0,0.0,0.0,0.0,0.0,0.0,0.0,0.0,0.0,0.0,0.0,0.0,0.0,0.0,0.0,0.0,0.0,0.0,0.0,0.0,0.0,0.0,0.0,0.0,0.0,0.0,0.0,0.0,0.0,0.0,0.0,0.0,0.0,0.0,0.0,0.0,0.0,0.0,0.0,0.0,0.0,0.0,0.0,0.0,0.0,0.0,0.0,0.0,0.0,0.0,0.0,0.0,0.0,0.0,0.0,0.0,0.0,0.0,0.0,0.0,0.0,0.0,0.0,0.0,0.0,0.0,0.0,0.0,0.0,0.0,0.0,0.0,0.0,0.0,0.0,0.0,0.0,0.0,0.0,0.0,0.0,0.0,0.0,0.0,0.0,0.0,0.0,0.0,0.0,0.0,0.0,0.0,0.0,0.0,0.0,0.0,0.0,0.0,0.0,0.0887,0.1055,0.1021,0.0797,0.0496,0.0108,0.0,0.0,0.0,0.0,0.0,0.0,0.0,0.0,0.0,0.0,0.0,0.0,0.0,0.0,0.0,0.0,0.0,0.0,0.0,0.0,0.0,0.0,0.0,0.0,0.0,0.0,0.0,0.0,0.0,0.0,0.0,0.0,0.0,0.0,0.0,0.0,0.0,0.0,0.0,0.0,0.0,0.0,0.0,0.0,0.0,0.0,0.0,0.0,0.0,0.0,0.0,0.0,0.0,0.0,0.0,0.0,0.0,0.0,0.0,0.0,0.0,0.0,0.0,0.0,0.0,0.0,0.0,0.0,0.0,0.0,0.0,0.0,0.0,0.0,0.0,0.0,0.0,0.0,0.0,0.0,0.0,0.0,0.0,0.0,0.0,0.0,0.0,0.0,0.0,0.0,0.0,0.0,0.0,0.0,0.0,0.0,0.0,0.0,0.0,0.0,0.0,0.0,0.0,0.0,0.0,0.0,0.0,0.0,0.0,0.1256,0.1118,0.1056,0.1066,0.0662,0.0286,0.0,0.0,0.0,0.0,0.0,0.0,0.0,0.0,0.0,0.0,0.0,0.0,0.0,0.0,0.0,0.0,0.0,0.0,0.0,0.0,0.0,0.0,0.0,0.0,0.0,0.0,0.0,0.0,0.0,0.0,0.0,0.0,0.0,0.0,0.0,0.0,0.0,0.0,0.0,0.0,0.0,0.0,0.0,0.0,0.0,0.0,0.0,0.0,0.0,0.0,0.0,0.0,0.0,0.0,0.0,0.0,0.0,0.0,0.0,0.0,0.0,0.0,0.0,0.0,0.0,0.0,0.0,0.0,0.0,0.0,0.0,0.0,0.0,0.0,0.0,0.0,0.0,0.0,0.0,0.0,0.0,0.0,0.0,0.0,0.0,0.0,0.0,0.0,0.0,0.0,0.0,0.0,0.0,0.0,0.0,0.0,0.0,0.0,0.0,0.0,0.0,0.0,0.0,0.0,0.0,0.0,0.0,0.0,0.0292,0.2463,0.1546,0.0926,0.0614,-0.0,-0.0239,0.0,0.0,0.0,0.0,0.0,0.0,0.0,0.0,0.0,0.0,0.0,0.0,0.0,0.0,0.0,0.0,0.0,0.0,0.0,0.0,0.0,0.0,0.0,0.0,0.0,0.0,0.0,0.0,0.0,0.0,0.0,0.0,0.0,0.0,0.0,0.0,0.0,0.0,0.0,0.0,0.0,0.0,0.0,0.0,0.0,0.0,0.0,0.0,0.0,0.0,0.0,0.0,0.0,0.0,0.0,0.0,0.0,0.0,0.0,0.0,0.0,0.0,0.0,0.0,0.0,0.0,0.0,0.0,0.0,0.0,0.0,0.0,0.0,0.0,0.0,0.0,0.0,0.0,0.0,0.0,0.0,0.0,0.0,0.0,0.0,0.0,0.0,0.0,0.0,0.0,0.0,0.0,0.0,0.0,0.0,0.0,0.0,0.0,0.0,0.0,0.0,0.0,0.0,0.0,0.0,0.0,0.0,0.0,0.0,0.3049,0.3072,0.2539,0.1548,0.1127,0.0667,0.0,0.0,0.0,0.0,0.0,0.0,0.0,0.0,0.0,0.0,0.0,0.0,0.0,0.0,0.0,0.0,0.0,0.0,0.0,0.0,0.0,0.0,0.0,0.0,0.0,0.0,0.0,0.0,0.0,0.0,0.0,0.0,0.0,0.0,0.0,0.0,0.0,0.0,0.0,0.0,0.0,0.0,0.0,0.0,0.0,0.0,0.0,0.0,0.0,0.0,0.0,0.0,0.0,0.0,0.0,0.0,0.0,0.0,0.0,0.0,0.0,0.0,0.0,0.0,0.0,0.0,0.0,0.0,0.0,0.0,0.0,0.0,0.0,0.0,0.0,0.0,0.0,0.0,0.0,0.0,0.0,0.0,0.0,0.0,0.0,0.0,0.0,0.0,0.0,0.0,0.0,0.0,0.0,0.0,0.0,0.0,0.0,0.0,0.0,0.0,0.0,0.0,0.0,0.0,0.0,0.0,0.0,0.0,0.0,0.3811,0.4082,0.3628,0.2368,0.1985,0.1164,-0.0,0.0,0.0,0.0,0.0,0.0,0.0,0.0,0.0,0.0,0.0,0.0,0.0,0.0,0.0,0.0,0.0,0.0,0.0,0.0,0.0,0.0,0.0,0.0,0.0,0.0,0.0,0.0,0.0,0.0,0.0,0.0,0.0,0.0,0.0,0.0,0.0,0.0,0.0,0.0,0.0,0.0,0.0,0.0,0.0,0.0,0.0,0.0,0.0,0.0,0.0,0.0,0.0,0.0,0.0,0.0,0.0,0.0,0.0,0.0,0.0,0.0,0.0,0.0,0.0,0.0,0.0,0.0,0.0,0.0,0.0,0.0,0.0,0.0,0.0,0.0,0.0,0.0,0.0,0.0,0.0,0.0,0.0,0.0,0.0,0.0,0.0,0.0,0.0,0.0,0.0,0.0,0.0,0.0,0.0,0.0,0.0,0.0,0.0,0.0,0.0,0.0,0.0,0.0,0.0,0.0,0.0,0.0,0.0,0.4797,0.4835,0.4344,0.3243,0.2534,0.1489,0.0,0.0,0.0,0.0,0.0,0.0,0.0,0.0,0.0,0.0,0.0,0.0,0.0,0.0,0.0,0.0,0.0,0.0,0.0,0.0,0.0,0.0,0.0,0.0,0.0,0.0,0.0,0.0,0.0,0.0,0.0,0.0,0.0,0.0,0.0,0.0,0.0,0.0,0.0,0.0,0.0,0.0,0.0,0.0,0.0,0.0,0.0,0.0,0.0,0.0,0.0,0.0,0.0,0.0,0.0,0.0,0.0,0.0,0.0,0.0,0.0,0.0,0.0,0.0,0.0,0.0,0.0,0.0,0.0,0.0,0.0,0.0,0.0,0.0,0.0,0.0,0.0,0.0,0.0,0.0,0.0,0.0,0.0,0.0,0.0,0.0,0.0,0.0,0.0,0.0,0.0,0.0,0.0,0.0,0.0,0.0,0.0,0.0,0.0,0.0,0.0,0.0,0.0,0.0,0.0,0.0,0.0,0.0,0.0,0.5675,0.6129,0.5817,0.4889,0.3849,0.2727,0.0,0.0,0.0,0.0,0.0,0.0,0.0,0.0,0.0,0.0,0.0,0.0,0.0,0.0,0.0,0.0,0.0,0.0,0.0,0.0,0.0,0.0,0.0,0.0,0.0,0.0,0.0,0.0,0.0,0.0,0.0,0.0,0.0,0.0,0.0,0.0,0.0,0.0,0.0,0.0,0.0,0.0,0.0,0.0,0.0,0.0,0.0,0.0,0.0,0.0,0.0,0.0,0.0,0.0,0.0,0.0,0.0,0.0,0.0,0.0,0.0,0.0,0.0,0.0,0.0,0.0,0.0,0.0,0.0,0.0,0.0,0.0,0.0,0.0,0.0,0.0,0.0,0.0,0.0,0.0,0.0,0.0,0.0,0.0,0.0,0.0,0.0,0.0,0.0,0.0,0.0,0.0,0.0,0.0,0.0,0.0,0.0,0.0,0.0,0.0,0.0,0.0,0.0,0.0,0.0,0.0,0.0,0.0,0.583,0.6575,0.6743,0.6537,0.5892,0.47,0.3411,0.0,0.0,0.0,0.0,0.0,0.0,0.0,0.0,0.0,0.0,0.0,0.0,0.0,0.0,0.0,0.0,0.0,0.0,0.0,0.0,0.0,0.0,0.0,0.0,0.0,0.0,0.0,0.0,0.0,0.0,0.0,0.0,0.0,0.0,0.0,0.0,0.0,0.0,0.0,0.0,0.0,0.0,0.0,0.0,0.0,0.0,0.0,0.0,0.0,0.0,0.0,0.0,0.0,0.0,0.0,0.0,0.0,0.0,0.0,0.0,0.0,0.0,0.0,0.0,0.0,0.0,0.0,0.0,0.0,0.0,0.0,0.0,0.0,0.0,0.0,0.0,0.0,0.0,0.0,0.0,0.0,0.0,0.0,0.0,0.0,0.0,0.0,0.0,0.0,0.0,0.0,0.0,0.0,0.0,0.0,0.0,0.0,0.0,0.0,0.0,0.0,0.0,0.0,0.0,0.0,0.0,0.0,0.0,0.6305,0.7229,0.6934,0.6593,0.6284,0.5248,0.3842,0.0,0.0,0.0,0.0,0.0,0.0,0.0,0.0,0.0,0.0,0.0,0.0,0.0,0.0,0.0,0.0,0.0,0.0,0.0,0.0,0.0,0.0,0.0,0.0,0.0,0.0,0.0,0.0,0.0,0.0,0.0,0.0,0.0,0.0,0.0,0.0,0.0,0.0,0.0,0.0,0.0,0.0,0.0,0.0,0.0,0.0,0.0,0.0,0.0,0.0,0.0,0.0,0.0,0.0,0.0,0.0,0.0,0.0,0.0,0.0,0.0,0.0,0.0,0.0,0.0,0.0,0.0,0.0,0.0,0.0,0.0,0.0,0.0,0.0,0.0,0.0,0.0,0.0,0.0,0.0,0.0,0.0,0.0,0.0,0.0,0.0,0.0,0.0,0.0,0.0,0.0,0.0,0.0,0.0,0.0,0.0,0.0,0.0,0.0,0.0,0.0,0.0,0.0,0.0,0.0,0.0,0.0,0.0,0.6339,0.7039,0.6859,0.6391,0.5825,0.518,0.4529,0.0,0.0,0.0,0.0,0.0,0.0,0.0,0.0,0.0,0.0,0.0,0.0,0.0,0.0,0.0,0.0,0.0,0.0,0.0,0.0,0.0,0.0,0.0,0.0,0.0,0.0,0.0,0.0,0.0,0.0,0.0,0.0,0.0,0.0,0.0,0.0,0.0,0.0,0.0,0.0,0.0,0.0,0.0,0.0,0.0,0.0,0.0,0.0,0.3421,0.0,0.0,0.0,0.0,0.0,0.0,0.0,0.0,0.0,0.0,0.0,0.0,0.0,0.0,0.0,0.0,0.0,0.0,0.0,0.0,0.0,0.0,0.0,0.0,0.0,0.0,0.0,0.0,0.0,0.0,0.0,0.0,0.0,0.0,0.0,0.0,0.0,0.0,0.0,0.0,0.0,0.0,0.0,0.0,0.0,0.0,0.0,0.0,0.0,0.0,0.0,0.0,0.0,0.0,0.0,0.0,0.0,0.0,0.0,0.6805,0.747,0.7092,0.6565,0.6075,0.5588,0.4657,0.0,0.0,0.0,0.0,0.0,0.0,0.0,0.0,0.0,0.0,0.0,0.0,0.0,0.0,0.0,0.0,0.0,0.0,0.0,0.0,0.0,0.0,0.0,0.0,0.0,0.0,0.0,0.0,0.0,0.0,0.0,0.0,0.0,0.0,0.0,0.0,0.0,0.0,0.0,0.0,0.0,0.0,0.0,0.0,0.0,0.0,0.0,0.0,0.0,0.0,0.0,0.0,0.0,0.0,0.0,0.0,0.0,0.0,0.0,0.0,0.0,0.0,0.0,0.0,0.0,0.0,0.0,0.0,0.0,0.0,0.0,0.0,0.0,0.0,0.0,0.0,0.0,0.0,0.0,0.0,0.0,0.0,0.0,0.0,0.0,0.0,0.0,0.0,0.0,0.0,0.0,0.0,0.0,0.0,0.0,0.0,0.0,0.0,0.0,0.0,0.0,0.0,0.0,0.0,0.0,0.0,0.0,0.6461,0.7281,0.7897,0.7324,0.687,0.6565,0.6036,0.481,0.2795,0.0,0.0,0.0,0.0,0.0,0.0,0.0,0.0,0.0,0.0,0.0,0.0,0.0,0.0,0.0,0.0,0.0,0.0,0.0,0.0,0.0,0.0,0.0,0.0,0.0,0.0,0.0,0.0,0.0,0.0,0.0,0.0,0.0,0.0,0.0,0.0,0.0,0.0,0.3436,0.4222,0.0,0.0,0.0,0.0,0.0,0.0,0.0,0.0,0.4166,0.0,0.0,0.0,0.0,0.0,0.0,0.0,0.0,0.0,0.0,0.0,0.0,0.0,0.0,0.0,0.0,0.0,0.0,0.0,0.0,0.0,0.0,0.0,0.0,0.0,0.0,0.0,0.0,0.0,0.0,0.0,0.0,0.0,0.0,0.0,0.0,0.0,0.0,0.0,0.0,0.0,0.0,0.0,0.0,0.0,0.0,0.0,0.0,0.0,0.0,0.0,0.0,0.0,0.0,0.0,0.0,0.4834,0.6406,0.7281,0.7442,0.7687,0.7386,0.6672,0.6582,0.5821,0.4097,0.0,0.0,0.0,0.0,0.0,0.0,0.0,0.0,0.0,0.0,0.0,0.0,0.0,0.0,0.0,0.0,0.0,0.0,0.0,0.0,0.0,0.0,0.0,0.0,0.0,0.0,0.0,0.0,0.0,0.0,0.0,0.0,0.0,0.0,0.0,0.0,0.0,0.0,0.0,0.4021,0.4465,0.0,0.0,0.0,0.0,0.0,0.0,0.0,0.0,0.466,0.0,0.0,0.0,0.0,0.0,0.0,0.0,0.0,0.0,0.0,0.0,0.0,0.0,0.0,0.0,0.0,0.0,0.0,0.0,0.0,0.0,0.0,0.0,0.0,0.0,0.0,0.0,0.0,0.0,0.0,0.0,0.0,0.0,0.0,0.0,0.0,0.0,0.0,0.0,0.0,0.0,0.0,0.0,0.0,0.0,0.0,0.0,0.0,0.0,0.0,0.0,0.0,0.0,0.0,0.0,0.478,0.6251,0.7259,0.7513,0.7752,0.7637,0.7051,0.6942,0.6054,0.0,0.0,0.0,0.0,0.0,0.0,0.0,0.0,0.0,0.0,0.0,0.0,0.0,0.0,0.0,0.0,0.0,0.0,0.0,0.0,0.0,0.0,0.0,0.0,0.0,0.0,0.0,0.0,0.0,0.0,0.0,0.0,0.0,0.0,0.0,0.0,0.0,0.0,0.0,0.0,0.3988,0.4753,0.5665,0.0,0.0,0.0,0.0,0.0,0.0,0.588,0.5496,0.0,0.0,0.0,0.0,0.0,0.0,0.0,0.0,0.0,0.0,0.0,0.0,0.0,0.0,0.0,0.0,0.0,0.0,0.0,0.0,0.0,0.0,0.0,0.0,0.0,0.0,0.0,0.0,0.0,0.0,0.0,0.0,0.0,0.0,0.0,0.0,0.0,0.0,0.0,0.0,0.0,0.0,0.0,0.0,0.0,0.0,0.0,0.0,0.0,0.0,0.0,0.0,0.0,0.0,0.0,0.4768,0.6363,0.7326,0.7682,0.7812,0.7758,0.7519,0.716,0.6251,0.0,0.0,0.0,0.0,0.0,0.0,0.0,0.0,0.0,0.0,0.0,0.0,0.0,0.0,0.0,0.0,0.0,0.0,0.0,0.0,0.0,0.0,0.0,0.0,0.0,0.0,0.0,0.0,0.0,0.0,0.0,0.0,0.0,0.0,0.0,0.0,0.0,0.0,0.0,0.0,0.0,0.5055,0.565,0.6542,0.0,0.0,0.0,0.0,0.7136,0.6746,0.0,0.0,0.0,0.0,0.0,0.0,0.0,0.0,0.0,0.0,0.0,0.0,0.0,0.0,0.0,0.0,0.0,0.0,0.0,0.0,0.0,0.0,0.0,0.0,0.0,0.0,0.0,0.0,0.0,0.0,0.0,0.0,0.0,0.0,0.0,0.0,0.0,0.0,0.0,0.0,0.0,0.0,0.0,0.0,0.0,0.0,0.0,0.0,0.0,0.0,0.0,0.0,0.0,0.0,0.0,0.0,0.4854,0.6702,0.7656,0.7676,0.7812,0.7758,0.7519,0.7489,0.6744,0.0,0.0,0.0,0.0,0.0,0.0,0.0,0.0,0.0,0.0,0.0,0.0,0.0,0.0,0.0,0.0,0.0,0.0,0.0,0.0,0.0,0.0,0.0,0.0,0.0,0.0,0.0,0.0,0.0,0.0,0.0,0.0,0.0,0.0,0.0,0.0,0.0,0.0,0.0,0.0,0.0,0.495,0.6309,0.6385,0.6608,0.0,0.0,0.8165,0.824,0.7808,0.0,0.0,0.0,0.0,0.0,0.0,0.0,0.0,0.0,0.0,0.0,0.0,0.0,0.0,0.0,0.0,0.0,0.0,0.0,0.0,0.0,0.0,0.0,0.0,0.0,0.0,0.0,0.0,0.0,0.0,0.0,0.0,0.0,0.0,0.0,0.0,0.0,0.0,0.0,0.0,0.0,0.0,0.0,0.0,0.0,0.0,0.0,0.0,0.0,0.0,0.0,0.0,0.0,0.0,0.0,0.4403,0.5043,0.6537,0.7539,0.778,0.7845,0.7758,0.7524,0.7489,0.6877,0.0,0.0,0.0,0.0,0.0,0.0,0.0,0.0,0.0,0.0,0.0,0.0,0.0,0.0,0.0,0.0,0.0,0.0,0.0,0.0,0.0,0.0,0.0,0.0,0.0,0.0,0.0,0.0,0.0,0.0,0.0,0.0,0.0,0.0,0.0,0.0,0.0,0.0,0.0,0.0,0.0,0.0,0.6047,0.6255,0.0,0.0,0.0,0.792,0.8512,0.0,0.0,0.0,0.0,0.0,0.0,0.0,0.0,0.0,0.0,0.0,0.0,0.0,0.0,0.0,0.0,0.0,0.0,0.0,0.0,0.0,0.0,0.0,0.0,0.0,0.0,0.0,0.0,0.0,0.0,0.0,0.0,0.0,0.0,0.0,0.0,0.0,0.0,0.0,0.0,0.0,0.0,0.0,0.0,0.0,0.0,0.0,0.0,0.0,0.0,0.0,0.0,0.0,0.0,0.0,0.0,0.0,0.5081,0.6531,0.7388,0.785,0.7872,0.7769,0.7562,0.7535,0.0,0.0,0.0,0.0,0.0,0.0,0.0,0.0,0.0,0.0,0.0,0.0,0.0,0.0,0.0,0.0,0.0,0.0,0.0,0.0,0.0,0.0,0.0,0.0,0.0,0.0,0.0,0.1604,0.0,0.0,0.0,0.0,0.0,0.0,0.0,0.0,0.0,0.0,0.0,0.0,0.0,0.0,0.5921,0.6129,0.649,0.7066,0.0,0.0,0.8045,0.88,0.8802,0.8752,0.0,0.0,0.0,0.0,0.0,0.0,0.0,0.0,0.0,0.0,0.0,0.0,0.0,0.0,0.0,0.0,0.0,0.0,0.0,0.0,0.0,0.0,0.0,0.0,0.0,0.0,0.0,0.0,0.2534,0.0,0.0,0.0,0.0,0.0,0.0,0.0,0.0,0.0,0.0,0.0,0.0,0.0,0.0,0.0,0.0,0.0,0.0,0.0,0.0,0.0,0.0,0.0,0.0,0.0,0.4299,0.5072,0.6531,0.7388,0.785,0.7872,0.7812,0.7687,0.7662,0.734,0.0,0.0,0.0,0.0,0.0,0.0,0.0,0.0,0.0,0.0,0.0,0.0,0.0,0.0,0.0,0.0,0.0,0.0,0.0,0.0,0.0,0.0,0.0,0.0,0.0,0.0,0.0,0.0,0.0,0.0,0.0,0.0,0.0,0.0,0.0,0.0,0.0,0.0,0.0,0.0,0.0,0.6673,0.7224,0.749,0.7918,0.0,0.86,0.891,0.9609,0.9225,0.8832,0.9024,0.0,0.0,0.0,0.0,0.0,0.0,0.0,0.0,0.0,0.0,0.0,0.0,0.0,0.0,0.0,0.0,0.0,0.0,0.0,0.0,0.0,0.0,0.0,0.0,0.0,0.2512,0.2429,0.0,0.2121,0.0,0.0,0.0,0.0,0.0,0.0,0.0,0.0,0.0,0.0,0.0,0.0,0.0,0.0,0.0,0.0,0.0,0.0,0.0,0.0,0.0,0.0,0.0,0.0,0.4326,0.5169,0.6567,0.7388,0.7845,0.7872,0.7818,0.7703,0.7754,0.7663,0.0,0.0,0.0,0.0,0.0,0.0,0.0,0.0,0.0,0.0,0.0,0.0,0.0,0.0,0.0,0.0,0.0,0.0,0.0,0.0,0.0,0.0,0.0,0.0,0.0,0.0,0.0,0.0,0.3463,0.351,0.3288,0.0,0.0,0.0,0.0,0.0,0.0,0.0,0.0,0.0,0.0,0.7819,0.7865,0.7977,0.0,0.0,0.8327,0.8322,0.885,0.888,0.8877,0.8847,0.8412,0.0,0.0,0.0,0.0,0.0,0.0,0.0,0.0,0.0,0.0,0.0,0.0,0.0,0.0,0.0,0.0,0.0,0.0,0.0,0.0,0.0,0.0,0.0,0.0,0.0,0.0,0.0,0.0,0.0,0.0,0.0,0.0,0.0,0.0,0.0,0.0,0.0,0.0,0.0,0.0,0.0,0.0,0.0,0.0,0.0,0.0,0.0,0.0,0.0,0.0,0.0,0.0,0.4325,0.5231,0.6516,0.7437,0.7915,0.7926,0.7905,0.7856,0.7857,0.7883,0.0,0.0,0.0,0.0,0.0,0.0,0.0,0.0,0.0,0.0,0.0,0.0,0.0,0.0,0.0,0.0,0.0,0.0,0.0,0.0,0.0,0.0,0.0,0.0,0.0,0.0,0.0,0.0,0.3711,0.3565,0.319,0.0,0.0,0.0,0.0,0.0,0.0,0.0,0.0,0.0,0.0,0.8707,0.8554,0.8529,0.8461,0.8615,0.838,0.8221,0.8393,0.8587,0.8742,0.8661,0.0,0.0,0.0,0.0,0.0,0.0,0.0,0.0,0.0,0.0,0.0,0.0,0.0,0.0,0.0,0.0,0.0,0.0,0.0,0.0,0.0,0.0,0.0,0.0,0.0,0.0,0.0,0.2583,0.0,0.0,0.2042,0.0,0.0,0.0,0.0,0.0,0.0,0.0,0.0,0.0,0.0,0.0,0.0,0.0,0.0,0.0,0.0,0.0,0.0,0.0,0.0,0.0,0.0,0.4372,0.5231,0.6593,0.7562,0.803,0.8051,0.81,0.8204,0.7877,0.7746,0.7796,0.0,0.0,0.0,0.0,0.0,0.0,0.0,0.0,0.0,0.0,0.0,0.0,0.0,0.0,0.0,0.0,0.0,0.0,0.0,0.0,0.0,0.0,0.0,0.0,0.0,0.0,0.3556,0.3705,0.3646,0.0,0.0,0.0,0.0,0.0,0.0,0.0,0.0,0.0,0.9211,0.9374,0.9348,0.9412,0.9239,0.9197,0.8906,0.8933,0.8886,0.8743,0.8587,0.8536,0.0,0.0,0.0,0.0,0.0,0.0,0.0,0.0,0.0,0.0,0.0,0.0,0.0,0.0,0.0,0.0,0.0,0.0,0.0,0.0,0.0,0.0,0.0,0.0,0.0,0.0,0.0,0.5171,0.5202,0.0,0.0,0.0,0.0,0.0,0.0,0.0,0.0,0.0,0.0,0.0,0.9932,1.0118,0.0,0.0,0.0,0.0,0.0,0.0,0.0,0.0,0.0,0.0,0.0,0.0,0.4555,0.532,0.6705,0.7649,0.804,0.8133,0.8193,0.8231,0.804,0.7892,0.7926,0.0,0.0,0.0,0.0,0.0,0.0,0.0,0.0,0.0,0.0,0.0,0.0,0.0,0.0,0.0,0.0,0.0,0.0,0.0,0.0,0.0,0.0,0.0,0.0,0.0,0.3715,0.0,0.0,0.0,0.0,0.0,0.0,0.0,0.0,0.0,0.0,0.0,0.8418,0.9178,1.0158,1.0587,1.0015,1.0335,1.0516,0.0,0.0,0.0,0.0,0.0,0.0,0.0,0.0,0.0,0.0,0.0,0.0,0.0,0.0,1.2738,1.1822,1.1652,1.1535,1.1318,0.0,0.0,0.0,0.0,0.0,0.0,0.0,0.0,0.0,0.0,0.0,0.0,0.0,0.0,0.6989,0.703,0.6652,0.0,0.0,0.0,0.0,0.0,0.0,0.0,0.0,0.903,0.9984,1.0791,1.1133,1.1417,0.0,1.1189,0.9952,0.0,0.0,0.0,0.0,0.0,0.0,0.0,0.0,0.5009,0.5735,0.7018,0.7818,0.8166,0.8258,0.8318,0.835,0.816,0.8015,0.7739,0.7948,0.7959,0.0,0.0,0.0,0.0,0.0,0.0,0.0,0.0,0.0,0.0,0.0,0.0,0.0,0.0,0.0,0.0,0.0,0.0,0.0,0.0,0.0,0.0,0.0,0.4508,0.0,0.0,0.0,0.0,0.0,0.0,0.0,0.0,0.0,0.6003,0.771,0.915,0.9575,1.0475,1.0974,1.062,0.0,0.0,0.0,0.0,0.0,0.0,0.0,0.9673,0.9514,0.9472,0.9923,1.0966,1.225,1.3226,1.3587,0.0,0.0,1.4008,1.3909,1.3721,1.3507,1.3905,1.4335,1.4335,1.4993,1.5575,0.0,0.0,0.0,0.0,0.0,0.0,0.0,0.0,0.8116,0.8045,0.0,0.788,0.0,0.0,0.0,0.0,0.0,0.7157,0.0,0.0,0.987,1.063,1.0988,1.2036,1.2469,1.2084,1.2385,1.2163,1.1444,0.8932,0.0,0.0,0.0,0.0,0.0,0.0,0.5756,0.6487,0.7401,0.8057,0.8405,0.8426,0.8481,0.8579,0.8253,0.791,0.7546,0.806,0.7857,0.6974,0.8178,0.0,0.0,0.0,0.0,0.0,0.0,0.0,0.0,0.0,0.0,0.0,0.0,0.0,0.0,0.0,0.0,0.0,0.0,0.0,0.0,0.5712,0.0,0.0,0.0,0.0,0.0,0.0,0.0,0.0,0.0,0.0,0.688,0.8574,1.0044,1.0347,0.0,0.0,0.0,0.0,1.1288,1.1643,1.1799,1.1856,1.1676,1.1406,1.0996,1.0368,0.0,0.0,1.238,1.325,1.3756,1.3908,1.4595,1.5521,1.6738,1.5923,1.5313,1.5872,1.6182,1.6535,1.6589,1.7155,1.8002,1.1355,0.0,0.0,0.0,0.0,0.9705,0.9953,1.0288,1.0575,1.0753,1.0952,1.0642,0.0,0.0,0.0,0.0,0.0,0.0,0.8379,0.9093,0.9846,1.0459,1.1012,1.1887,1.2238,1.2418,1.324,1.368,1.3598,1.2298,1.0246,0.7788,0.0,0.0,0.0,0.0,0.63,0.6719,0.7643,0.8263,0.8535,0.8622,0.8687,0.8715,0.8535,0.8307,0.8035,0.7886,0.7909,0.8171,0.7896,0.0,0.0,0.0,0.0,0.0,0.0,0.0,0.0,0.0,0.0,0.0,0.0,0.0,0.0,0.0,0.0,0.0,0.0,0.0,0.5881,0.6221,0.6159,0.0,0.0,0.0,0.0,0.0,0.0,0.0,0.0,0.0,0.8967,0.9406,0.9648,0.0,0.0,1.1762,1.17,1.2595,1.3225,1.2741,1.2783,0.0,1.1775,1.15,1.1351,1.0796,1.1644,1.2775,1.3622,1.4271,1.4723,1.4642,1.5413,1.6024,1.6002,1.5864,1.5592,1.5634,1.5904,1.621,1.6257,1.6851,1.7325,1.1704,1.1355,1.123,1.099,1.0817,1.0726,1.083,1.088,1.1177,1.138,1.1567,1.1971,1.1647,1.0972,1.0548,0.0,0.0,0.0,0.8981,0.9367,0.9987,1.0279,1.0531,1.1298,1.176,1.1821,1.3137,1.3815,1.3975,1.35,1.2312,1.0306,0.0,0.0,0.6866,0.732,0.7508,0.7505,0.8124,0.8541,0.8725,0.8802,0.884,0.884,0.8725,0.8568,0.8378,0.8079,0.8004,0.8366,0.8106,0.8052,0.0,0.0,0.0,0.0,0.0,0.0,0.0,0.0,0.0,0.0,0.0,0.4183,0.4301,0.0,0.0,0.0,0.6084,0.6619,0.6654,0.6746,0.0,0.0,0.0,0.0,0.0,0.0,0.0,0.9387,1.0072,1.0437,1.0347,1.0193,0.9923,0.9815,1.0891,1.1733,1.1908,0.0,1.3674,1.3664,1.3897,1.3756,1.3116,1.2823,1.2569,1.2225,1.3368,1.438,1.4736,1.5441,1.5782,1.5739,1.602,1.6201,1.5968,1.5721,1.5852,1.6275,1.6619,1.6887,1.6898,1.7337,1.7618,1.1571,1.1463,1.1608,1.1575,1.1289,1.0712,1.0521,1.0469,1.0635,1.0599,1.0703,1.2052,1.2114,1.1156,1.0576,0.0,1.1364,1.0126,0.9447,0.9613,1.0129,1.0091,0.9552,1.0485,1.0941,1.0802,1.2382,1.3037,1.3147,1.3268,1.3259,1.3363,1.1938,1.047,0.9228,0.9392,0.9237,0.8443,0.8666,0.8845,0.8965,0.8976,0.8976,0.8965,0.8856,0.8742,0.8617,0.8399,0.8171,0.7932,0.8642,0.8732,0.804,0.0,0.0,0.0,0.0,0.0,0.0,0.0,0.0,0.0,0.0,0.0,0.0,0.0,0.0,0.5621,0.6558,0.0,0.754,0.7335,0.0,0.0,0.0,0.7914,0.7413,0.8708,1.0216,1.175,0.0,0.0,1.1053,1.0739,1.0541,1.0419,1.0487,1.0995,1.2211,1.2791,1.3295,1.4259,1.471,1.4945,1.475,1.4474,1.4239,1.4252,1.5404,1.604,1.5856,1.6333,1.6727,1.6644,1.6492,1.631,1.6269,1.6029,1.6069,1.7358,1.7806,1.794,1.784,1.8017,1.8171,1.1561,1.151,1.1141,1.092,1.1091,1.0786,1.0664,1.0745,1.09,1.0966,1.0959,1.1417,1.1559,1.131,1.0814,1.0485,1.0313,0.9632,0.9245,0.8989,0.9163,0.9126,0.9136,1.0098,1.0626,1.0594,1.1711,1.2799,1.357,1.3443,1.3435,1.3688,1.3005,1.1782,0.9982,1.013,0.9794,0.8687,0.8834,0.8965,0.909,0.9177,0.9177,0.9095,0.9063,0.8992,0.8867,0.872,0.8573,0.8421,0.8413,0.84,0.8452,0.8909,0.0,0.0,0.0,0.0,0.0,0.0,0.0,0.0,0.0,0.6386,0.7074,0.0,0.7011,0.0,0.7617,0.7916,0.826,0.8295,0.0,0.0,0.7006,0.7889,0.9182,1.0174,1.0894,1.1333,1.1404,1.1365,1.1191,1.1324,1.1382,1.1443,1.1607,1.2013,1.2881,1.3609,1.4264,1.4576,1.4745,1.4897,1.4604,1.4604,1.4662,1.4985,1.594,1.6414,1.6292,1.674,1.6963,1.693,1.6844,1.6787,1.673,1.6692,1.6616,1.692,1.6846,1.6698,1.6846,1.6925,1.6954,1.0339,1.0392,1.0003,0.9907,1.0019,0.9973,0.9825,0.9588,0.9783,0.9996,1.0122,1.063,1.1155,1.171,1.0906,1.0344,1.0045,0.9389,0.9024,0.8932,0.8932,0.9024,0.9188,0.9758,1.0042,1.0042,1.1233,1.2087,1.273,1.3649,1.4115,1.439,1.469,1.3966,1.2291,1.1145,1.0166,0.9209,0.9327,0.928,0.9209,0.9269,0.9562,0.9924,0.9495,0.9575,1.0569,0.9521,0.9423,1.0232,0.9048,0.8881,0.9876,0.9829,0.9727,0.0,0.0,0.0,0.0,0.0,0.0,0.0,0.0,0.0,0.0,0.0,0.7923,0.8661,0.8567,0.8476,0.8489,0.8636,0.8426,0.8045,0.7906,0.8535,0.9995,1.0749,1.1286,1.161,1.1739,1.1678,1.1688,1.1852,1.2017,1.2013,1.2401,1.282,1.2857,1.3498,1.3956,1.4416,1.4562,1.4676,1.4667,1.4676,1.5002,1.5404,1.6045,1.6509,1.6651,1.6944,1.7209,1.7254,1.701,1.6934,1.6944,1.7016,1.6831,1.6887,1.6755,1.6623,1.6613,1.6623,1.6604,0.9087,0.8954,0.8809,0.8809,0.8799,0.8731,0.851,0.8246,0.8449,0.8676,0.8943,0.9656,1.0684,1.1767,1.0567,1.0036,0.9905,0.9232,0.8938,0.9034,0.9056,0.9168,0.9361,0.9508,0.9508,0.9514,1.0649,1.1237,1.1276,1.3458,1.4416,1.4564,1.5467,1.5467,1.4399,1.1798,1.0321,0.9752,0.985,0.9752,0.9452,0.9302,0.9879,1.1031,1.0035,1.0568,1.2433,1.0735,1.0524,1.2321,1.0264,0.9921,1.1575,1.1217,1.0807,0.0,1.0934,0.0,0.0,0.0,0.0,0.0,0.0,0.0,0.0,0.8637,0.8836,0.9637,0.9517,0.9226,0.9001,0.8985,0.9311,1.0234,0.9825,0.9721,1.0505,1.1094,1.1579,1.2129,1.2031,1.1945,1.2054,1.2407,1.2627,1.2429,1.2885,1.3115,1.2749,1.2971,1.3361,1.3983,1.4259,1.4629,1.4935,1.4952,1.5105,1.542,1.588,1.6203,1.6644,1.6959,1.7264,1.7398,1.7256,1.7142,1.7142,1.7159,1.7121,1.7114,1.7123,1.7067,1.6934,1.6859,1.6783,0.992,0.9365,0.8809,0.8387,0.8114,0.8163,0.8413,0.8751,0.8793,0.8815,0.8948,0.9065,0.9331,0.9475,0.9014,0.8771,0.8786,0.8559,0.8372,0.8392,0.8785,0.8994,0.9185,0.9484,0.9633,0.9639,0.9955,1.0548,1.1405,1.1586,1.1749,1.204,1.2047,1.1606,1.0709,0.0,0.0,0.0,0.9877,0.9983,0.974,0.9735,1.0311,1.1462,1.1134,0.0,1.2902,1.2612,1.2532,1.279,1.2182,0.0,0.0,0.0,0.0,0.0,0.0,0.0,0.0,0.0,0.0,0.0,1.0817,1.0357,1.0241,1.0126,1.0058,1.0042,1.0104,1.0391,1.0789,1.0975,1.1235,1.1698,1.183,1.1942,1.2149,1.2143,1.2268,1.2466,1.2278,1.221,1.2244,1.2498,1.2574,1.2447,1.2615,1.2601,1.2567,1.3048,1.3692,1.4322,1.4491,1.4814,1.4968,1.4968,1.4968,1.5122,1.5429,1.5888,1.6203,1.6653,1.7121,1.7273,1.7398,1.736,1.736,1.7331,1.7294,1.736,1.736,1.736,1.7312,1.7171,1.7038,0.9688,0.0,0.8981,0.8697,0.0,0.8617,0.8754,0.9122,0.8844,0.8844,0.9128,0.9122,0.9128,0.9133,0.8965,0.9013,0.9023,0.905,0.8979,0.8984,0.919,0.9397,0.945,0.9602,0.9786,0.984,0.9845,1.0145,1.075,1.106,1.1517,1.1663,1.1967,1.2119,1.1663,1.106,1.0358,0.9579,1.0019,0.9991,0.9781,0.9781,1.0363,1.1384,1.1308,0.0,0.0,0.0,0.0,0.0,0.0,0.0,0.0,0.0,0.0,1.2947,1.2648,1.2441,1.2515,1.1861,1.158,1.1865,1.1665,1.1276,1.0578,1.0704,1.0905,1.0792,1.0928,1.1302,1.1592,1.1748,1.2017,1.2254,1.2387,1.2498,1.2588,1.2727,1.2635,1.2567,1.2461,1.2481,1.2406,1.2608,1.2656,1.2501,1.2811,1.2972,1.2656,1.2811,1.3274,1.3744,1.4361,1.4669,1.4669,1.4968,1.4968,1.5122,1.5275,1.5744,1.605,1.651,1.6959,1.7273,1.7426,1.7426,1.7426,1.7426,1.7426,1.7426,1.7426,1.7426,1.7426,1.7341,1.7227,0.9302,0.9307,0.9329,0.9334,0.9334,0.9362,0.9367,0.9367,0.0,0.0,0.0,0.9362,0.9367,0.9378,0.947,0.9371,0.9377,0.9495,0.9548,0.9548,0.9569,0.9628,0.9714,0.9867,0.9921,1.0014,1.0019,1.0019,1.0019,1.1107,1.1572,1.1727,1.2649,1.3105,1.2951,1.2057,1.1035,0.9926,1.0022,1.0139,0.9822,0.9822,1.041,1.1444,1.1326,1.2244,1.4324,1.3275,1.3729,1.5528,1.373,1.3482,1.5078,1.3928,1.3625,1.4322,1.3661,1.3157,1.3161,1.2388,1.1895,1.2036,1.2141,1.1925,1.0948,1.1288,1.1599,1.1626,1.185,1.1999,1.2033,1.2142,1.2271,1.2553,1.2515,1.263,1.2594,1.2881,1.2881,1.2635,1.2759,1.2725,1.261,1.2908,1.3049,1.2738,1.3078,1.336,1.2731,1.2731,1.288,1.3226,1.4027,1.4462,1.457,1.4724,1.5009,1.4976,1.5275,1.559,1.605,1.651,1.6815,1.7273,1.7426,1.7426,1.7426,1.7426,1.7426,1.7426,1.7426,1.7426,1.7426,1.7426,1.736,0.9307,0.9313,0.9416,0.9459,0.947,0.9574,0.9622,0.9612,0.9508,0.9459,0.9465,0.9574,0.9617,0.9622,0.9334,0.9185,0.9195,0.8854,0.875,0.8755,0.9156,0.9516,0.9532,0.9842,1.0003,1.0019,1.0019,1.0019,1.0019,1.018,1.033,1.033,1.0486,1.0486,1.0491,1.0437,1.0318,1.0123,1.0235,1.023,1.0122,1.0116,1.0709,1.1898,1.2333,1.3144,1.4493,1.496,1.5561,1.5861,1.5388,1.5138,1.499,1.4203,1.373,1.3893,1.2926,1.2543,1.2863,1.2677,1.2512,1.2528,1.2725,1.2623,1.2162,1.225,1.24,1.2522,1.24,1.2501,1.2779,1.2628,1.2641,1.2847,1.2881,1.2908,1.2929,1.3123,1.313,1.2935,1.2929,1.2929,1.2881,1.3034,1.3027,1.2888,1.3006,1.3047,1.302,1.3096,1.3232,1.3648,1.4162,1.4576,1.461,1.4891,1.5147,1.4984,1.5138,1.5454,1.6076,1.6212,1.6662,1.7273,1.7426,1.7426,1.7426,1.7426,1.7426,1.7426,1.7426,1.7426,1.7426,1.7426,1.7407,0.9443,0.9508,0.9563,0.9584,0.959,0.9644,0.9666,0.9671,0.9677,0.9644,0.959,0.9644,0.9666,0.9677,0.958,0.945,0.9455,0.9423,0.9325,0.9325,0.9687,0.9708,0.9713,0.9864,1.0057,1.0117,1.0117,1.0155,1.0215,1.0215,1.0221,1.0221,1.0221,1.0221,1.0221,1.0275,1.0302,1.0302,1.0352,1.0426,1.0375,1.037,1.052,1.1137,1.1823,1.2474,1.2943,1.3886,1.4345,1.419,1.4121,1.4237,1.4554,1.3929,1.3774,1.4253,1.3538,1.3106,1.3262,1.3019,1.2813,1.2956,1.3037,1.303,1.2901,1.2807,1.2779,1.2847,1.2695,1.2722,1.2956,1.2795,1.2795,1.2956,1.3024,1.3071,1.3085,1.3159,1.3166,1.3091,1.3078,1.3044,1.2969,1.2963,1.2963,1.2963,1.2963,1.299,1.3064,1.3178,1.3283,1.3276,1.3909,1.4358,1.4441,1.4908,1.5192,1.5268,1.5179,1.5441,1.619,1.6291,1.6527,1.7273,1.7426,1.7426,1.7426,1.7426,1.7426,1.7426,1.7426,1.7426,1.7426,1.7426,1.7426,0.9557,0.9671,0.9699,0.9726,0.9748,0.9748,0.9748,0.9758,0.984,0.9829,0.9758,0.9748,0.9748,0.9758,0.984,0.9878,0.9889,0.9976,1.0019,1.0019,1.0019,1.0019,1.0025,1.0047,1.0112,1.0199,1.0231,1.0297,1.0378,1.0384,1.0384,1.0384,1.0384,1.0384,1.0389,1.0411,1.0427,1.0427,1.0449,1.0438,1.0389,1.0384,1.0384,1.0384,1.1183,1.1659,1.1665,1.2462,1.2942,1.2942,1.2942,1.3262,1.3909,1.3582,1.3582,1.4388,1.3785,1.3493,1.3528,1.3219,1.3105,1.3214,1.3254,1.3322,1.3417,1.3281,1.3125,1.3078,1.2936,1.2956,1.3139,1.3159,1.3159,1.3166,1.3083,1.3164,1.3171,1.3431,1.3458,1.3342,1.3295,1.3234,1.3139,1.3078,1.3071,1.3078,1.3057,1.3105,1.32,1.322,1.3173,1.326,1.3703,1.4172,1.4303,1.4929,1.5393,1.5536,1.5548,1.5789,1.6381,1.6423,1.6662,1.7279,1.753,1.7511,1.7339,1.7454,1.7435,1.7426,1.7426,1.7426,1.7426,1.7426,1.7426,0.9563,0.9677,0.978,0.9889,0.9976,0.9981,0.9976,0.9981,0.9998,0.9998,0.9976,0.9987,0.9981,0.9987,0.9992,0.9998,0.9998,1.0014,1.0019,1.0019,1.0019,1.0019,1.003,1.0134,1.0193,1.0221,1.0313,1.0384,1.0405,1.04,1.0389,1.0384,1.0384,1.0394,1.04,1.0492,1.0541,1.0541,1.065,1.0601,1.04,1.0384,1.0384,1.0384,1.1189,1.1665,1.1517,1.2462,1.2942,1.2942,1.2789,1.3102,1.3429,1.2782,1.2789,1.3596,1.3078,1.288,1.3336,1.3363,1.3363,1.3383,1.3505,1.3587,1.3614,1.3695,1.3634,1.3444,1.3311,1.3365,1.3573,1.3479,1.3519,1.3675,1.3539,1.3429,1.3579,1.3619,1.3619,1.3783,1.3634,1.358,1.3512,1.3403,1.3336,1.3315,1.3308,1.3315,1.3342,1.3356,1.3356,1.3342,1.3844,1.4109,1.4497,1.4784,1.5223,1.5417,1.5822,1.6282,1.6581,1.7038,1.7344,1.7539,1.7648,1.7545,1.7498,1.7405,1.7445,1.7464,1.7454,1.7426,1.7426,1.7426,1.7426,0.9764,0.9878,0.9927,0.997,1.0014,1.0019,1.0019,1.0019,1.0019,1.0175,1.033,1.0175,1.0019,1.0019,1.0019,1.0019,1.0019,1.0019,1.0019,1.0019,1.0019,1.0019,1.0036,1.0144,1.0237,1.0313,1.0433,1.0525,1.0579,1.059,1.0596,1.0596,1.0596,1.0596,1.0596,1.0639,1.0661,1.0661,1.071,1.0688,1.0606,1.0596,1.0596,1.0596,1.0924,1.1083,1.1077,1.1406,1.157,1.157,1.0908,1.0744,1.14,1.0245,1.0245,1.2049,1.2768,1.3211,1.3526,1.3532,1.3573,1.3654,1.3715,1.3756,1.3756,1.381,1.3783,1.3702,1.3546,1.3409,1.3756,1.381,1.3844,1.3838,1.3666,1.3666,1.3838,1.3844,1.3844,1.3838,1.379,1.3722,1.3634,1.3498,1.341,1.3397,1.3397,1.3397,1.3397,1.3397,1.3397,1.3397,1.3569,1.3873,1.446,1.4952,1.5404,1.5666,1.5893,1.6148,1.6781,1.6995,1.725,1.7743,1.7817,1.7917,1.7751,1.7592,1.7605,1.7577,1.7473,1.7426,1.7426,1.7426,1.7426,0.9911,1.0008,1.0019,1.0019,1.0019,1.0019,1.0019,1.0019,1.0019,1.0175,1.0336,1.0208,1.0068,1.0068,1.0036,1.0019,1.0019,1.0019,1.0041,1.0063,1.0074,1.009,1.0128,1.0242,1.0346,1.0438,1.0552,1.065,1.0726,1.0737,1.0737,1.0737,1.0737,1.0737,1.0737,1.0737,1.0737,1.0737,1.0737,1.0737,1.0732,1.0737,1.0737,1.0737,1.0737,1.0737,1.0737,1.0737,1.0737,1.0737,0.9397,0.9059,0.9726,0.8386,0.8395,1.0425,1.2111,1.3023,1.2997,1.3519,1.3729,1.3824,1.3871,1.3905,1.3912,1.3939,1.3966,1.3966,1.3787,1.378,1.3905,1.4119,1.4146,1.3966,1.3966,1.3966,1.3973,1.3973,1.398,1.3966,1.3939,1.3844,1.3702,1.3566,1.3471,1.3471,1.3431,1.3397,1.3397,1.3397,1.3397,1.3397,1.3397,1.3728,1.439,1.4706,1.5216,1.5695,1.5747,1.6333,1.6973,1.7012,1.7431,1.8173,1.821,1.8125,1.7948,1.7965,1.7776,1.7709,1.7605,1.7483,1.7435,1.7426,1.7426,0.9911,1.0014,1.0019,1.0025,1.0019,1.0025,1.0025,1.0047,1.003,1.003,1.0052,1.015,1.0193,1.0188,1.009,1.0025,1.003,1.0041,1.0095,1.0188,1.0193,1.0259,1.0373,1.0487,1.0536,1.0541,1.065,1.0721,1.0737,1.0737,1.0737,1.0737,1.0737,1.0737,1.0737,1.0737,1.0737,1.0737,1.057,1.057,1.0576,1.0576,1.0581,1.0586,1.0737,1.0737,1.0737,1.0737,1.0737,1.0737,0.9402,0.8896,0.923,0.806,0.7765,0.9013,1.0725,1.1804,1.2087,1.3146,1.3844,1.3871,1.3994,1.4061,1.4068,1.417,1.4238,1.4272,1.4258,1.4211,1.4129,1.4177,1.4238,1.4245,1.4258,1.4251,1.4258,1.4231,1.4272,1.4238,1.4122,1.3987,1.3844,1.3709,1.3634,1.3593,1.3498,1.3417,1.3417,1.341,1.3397,1.3397,1.3403,1.3569,1.4066,1.4397,1.4555,1.4878,1.5851,1.6656,1.7173,1.7665,1.8137,1.8579,1.8437,1.8343,1.8305,1.8172,1.7974,1.7851,1.7738,1.7634,1.752,1.7454,1.7426,0.9976,1.0019,1.0019,1.0063,1.0134,1.0139,1.0019,0.9775,1.0094,1.0253,1.0259,1.0302,1.0479,1.0639,1.0434,1.0253,1.0253,1.0259,1.028,1.0318,1.0324,1.0346,1.0394,1.0503,1.0558,1.0574,1.0677,1.0737,1.0737,1.0737,1.0737,1.0737,1.0737,1.0737,1.0737,1.0737,1.0737,1.057,0.9898,0.9431,0.9492,0.9497,0.9531,0.9588,1.0309,1.0737,1.0737,1.0737,1.0737,1.0737,0.8618,0.7638,0.7642,0.6833,0.6524,0.7238,0.964,1.1412,1.1877,1.3114,1.4034,1.4129,1.4183,1.4217,1.4224,1.4272,1.4333,1.4414,1.4434,1.4434,1.4468,1.4387,1.4299,1.4299,1.4299,1.4299,1.4299,1.4299,1.4299,1.4278,1.4163,1.4048,1.3987,1.3858,1.377,1.3749,1.3641,1.3559,1.3526,1.3471,1.341,1.3397,1.3397,1.3397,1.3569,1.3901,1.4232,1.4728,1.5546,1.6205,1.6871,1.7026,1.7492,1.8472,1.855,1.8532,1.8313,1.8371,1.8172,1.7993,1.7889,1.7785,1.7634,1.7539,1.7473,1.0197,1.0392,1.0392,1.0622,1.0736,1.0742,1.0627,1.0384,1.0545,1.0545,1.055,1.0422,1.06,1.0773,1.0644,1.0498,1.0487,1.0422,1.0405,1.0438,1.0438,1.046,1.0509,1.0579,1.0617,1.0623,1.0693,1.0737,1.0742,1.0775,1.0791,1.0797,1.0829,1.0857,1.1025,1.1025,1.0851,1.034,0.9497,0.8853,0.8228,0.8236,0.8264,0.8473,0.9569,1.0346,1.0857,1.0857,1.0857,1.0525,0.8718,0.7209,0.6531,0.6049,0.5738,0.6106,0.8883,1.0841,1.1478,1.3085,1.419,1.4285,1.4346,1.4367,1.4373,1.4414,1.4489,1.4563,1.4584,1.4638,1.4672,1.4557,1.4421,1.4373,1.4326,1.4299,1.4299,1.4299,1.4299,1.4285,1.4217,1.4156,1.4129,1.4,1.3933,1.3912,1.379,1.3695,1.362,1.3553,1.3451,1.341,1.3397,1.3562,1.3569,1.3901,1.3901,1.4232,1.4886,1.5719,1.6542,1.6698,1.7191,1.801,1.851,1.851,1.8463,1.8532,1.838,1.8182,1.8078,1.7993,1.7813,1.7615,1.753,1.0716,1.0978,1.1312,1.1549,1.1665,1.1671,1.1678,1.1541,1.1218,1.1068,1.093,1.084,1.0721,1.0744,1.0815,1.0721,1.0672,1.0509,1.0471,1.0552,1.0558,1.0612,1.0704,1.071,1.0715,1.0721,1.0732,1.0742,1.0759,1.0851,1.0905,1.0938,1.1025,1.1229,1.1779,1.1584,1.1074,1.0022,0.9497,0.8477,0.7108,0.6765,0.6772,0.6955,0.8161,0.9544,1.0929,1.109,1.1074,1.0902,0.9702,0.798,0.6258,0.6094,0.594,0.5816,0.8109,0.9735,1.0352,1.2686,1.4299,1.434,1.4441,1.4509,1.4529,1.4624,1.4713,1.474,1.474,1.4753,1.4767,1.474,1.4652,1.4529,1.4394,1.4326,1.4299,1.4299,1.4299,1.4299,1.4278,1.4292,1.4265,1.4163,1.4075,1.4048,1.3939,1.3797,1.3688,1.362,1.3553,1.3444,1.3397,1.3562,1.3569,1.3735,1.3569,1.3562,1.4225,1.5051,1.604,1.6525,1.7191,1.801,1.8174,1.8174,1.851,1.8435,1.855,1.839,1.8305,1.8154,1.7936,1.7728,1.7587,1.127,1.1324,1.1574,1.1845,1.2287,1.2293,1.2181,1.194,1.2111,1.1782,1.1458,1.1494,1.1671,1.1683,1.1718,1.1403,1.1231,1.1151,1.0981,1.0677,1.0683,1.0693,1.0726,1.0737,1.0737,1.0737,1.0737,1.078,1.0857,1.0905,1.0954,1.1041,1.1085,1.1101,1.1285,1.1274,1.0579,0.9366,0.8321,0.6959,0.561,0.5443,0.5638,0.5673,0.6918,0.8513,0.9745,1.0662,1.1107,1.1112,0.9778,0.8444,0.7434,0.6738,0.6396,0.6773,0.8369,0.9619,1.0372,1.2776,1.4448,1.4468,1.4584,1.4658,1.4672,1.4713,1.4794,1.4875,1.4903,1.493,1.5004,1.495,1.4801,1.4543,1.4289,1.4394,1.4312,1.4299,1.4299,1.4299,1.4299,1.4299,1.4292,1.4231,1.4217,1.4204,1.4095,1.3946,1.3804,1.3688,1.3573,1.3437,1.3417,1.3562,1.3735,1.3901,1.3901,1.3728,1.4225,1.4886,1.5711,1.6525,1.7182,1.7682,1.7846,1.8174,1.8346,1.8491,1.8607,1.855,1.8437,1.8239,1.8002,1.7832,1.77,1.2127,1.2026,1.2333,1.2794,1.309,1.2926,1.2814,1.2561,1.2567,1.2235,1.1736,1.157,1.157,1.157,1.157,1.1432,1.1305,1.1137,1.0997,1.0846,1.0764,1.0737,1.0737,1.0737,1.0737,1.0748,1.078,1.084,1.0922,1.1009,1.109,1.1161,1.121,1.1412,1.1406,1.1406,1.0703,0.8777,0.7728,0.6168,0.4611,0.4265,0.4277,0.448,0.5557,0.6809,0.7695,0.9365,1.0708,1.1243,1.0595,0.9777,0.8943,0.8405,0.8052,0.8417,0.9514,1.061,1.1162,1.3251,1.4597,1.4624,1.474,1.4821,1.4835,1.4862,1.4957,1.5025,1.5052,1.5086,1.5147,1.5113,1.4936,1.4713,1.439,1.4276,1.4333,1.4299,1.4299,1.4299,1.4299,1.4299,1.4299,1.4299,1.4299,1.4285,1.4217,1.4061,1.3905,1.3763,1.3614,1.3485,1.341,1.3562,1.3894,1.4059,1.4066,1.4225,1.439,1.5058,1.5891,1.6369,1.7026,1.7682,1.801,1.801,1.8183,1.851,1.8645,1.8598,1.8541,1.8352,1.8135,1.7974,1.7813,1.3137,1.313,1.3605,1.376,1.388,1.3556,1.339,1.3231,1.2567,1.2069,1.1902,1.1403,1.107,1.0904,1.1254,1.1322,1.1069,1.1097,1.1147,1.1163,1.0889,1.0791,1.0797,1.0802,1.0802,1.0808,1.0884,1.0938,1.0987,1.115,1.1275,1.1291,1.1373,1.1621,1.1954,1.216,1.0707,0.8207,0.7862,0.6261,0.3228,0.305,0.3052,0.3053,0.4305,0.502,0.5733,0.804,1.0357,1.1804,1.1965,1.1438,1.0911,1.0733,1.0372,1.0218,1.1563,1.2153,1.2554,1.3757,1.4753,1.4767,1.4889,1.4984,1.4991,1.5065,1.5126,1.5153,1.516,1.5167,1.5181,1.5167,1.5092,1.4957,1.4497,1.4283,1.434,1.4312,1.4299,1.4299,1.4299,1.4299,1.4299,1.4299,1.4299,1.4299,1.4278,1.4136,1.3926,1.3783,1.3682,1.3553,1.3417,1.3728,1.3894,1.4225,1.439,1.4555,1.4721,1.5389,1.6056,1.6377,1.7035,1.7691,1.801,1.801,1.8183,1.851,1.8673,1.8645,1.855,1.8428,1.8248,1.8031,1.7813,1.2822,1.3125,1.3439,1.3693,1.4066,1.3569,1.3397,1.3238,1.2401,1.2235,1.2401,1.1902,1.2075,1.258,1.2682,1.2752,1.2301,1.2033,1.1915,1.1607,1.1218,1.1009,1.1003,1.1003,1.0998,1.1003,1.1031,1.1096,1.1177,1.1243,1.1319,1.1406,1.1433,1.1632,1.1632,1.1638,1.0199,0.7877,0.7345,0.6094,0.359,0.3053,0.2874,0.2874,0.3233,0.3949,0.5199,0.8056,1.0377,1.1455,1.1988,1.2343,1.2165,1.1632,1.1487,1.1754,1.2153,1.2577,1.2859,1.4087,1.4903,1.4923,1.5031,1.5126,1.5126,1.5153,1.5181,1.5181,1.5181,1.5181,1.5181,1.5181,1.5113,1.4964,1.4706,1.4502,1.4441,1.4367,1.4299,1.4299,1.4299,1.4299,1.4299,1.4299,1.4299,1.4299,1.4278,1.4204,1.3966,1.3831,1.3743,1.3532,1.3403,1.3735,1.4059,1.439,1.4555,1.4713,1.5216,1.5719,1.6048,1.6369,1.7372,1.822,1.7855,1.7846,1.8183,1.8683,1.8683,1.8673,1.8522,1.8361,1.8144,1.7927,1.7728,1.336,1.3513,1.3665,1.3901,1.4066,1.3397,1.3231,1.3238,1.2567,1.2401,1.2567,1.2235,1.2439,1.3004,1.2914,1.3023,1.2784,1.2515,1.2241,1.1946,1.1428,1.1194,1.1128,1.1101,1.1107,1.1112,1.1156,1.1204,1.127,1.1319,1.1389,1.1438,1.1455,1.1455,1.146,1.1509,1.0421,0.8611,0.8086,0.7021,0.4845,0.4128,0.3769,0.359,0.3412,0.359,0.5199,0.752,0.9665,1.1094,1.1988,1.2366,1.2782,1.2419,1.2478,1.3325,1.3387,1.3651,1.3732,1.46,1.5052,1.5072,1.5147,1.5174,1.5181,1.5181,1.5181,1.5181,1.5181,1.5181,1.5181,1.5181,1.5113,1.5162,1.4753,1.4584,1.4523,1.4441,1.4367,1.4319,1.4299,1.4299,1.4299,1.4299,1.4299,1.4299,1.4299,1.417,1.4,1.3905,1.3777,1.3573,1.3583,1.3735,1.4059,1.4555,1.5051,1.5208,1.5381,1.6048,1.6205,1.6534,1.7199,1.7873,1.77,1.7855,1.8356,1.8683,1.8683,1.8617,1.8465,1.8286,1.8068,1.7832,1.7634,1.4348,1.3697,1.4009,1.4066,1.3901,1.3072,1.2899,1.3072,1.2235,1.2247,1.2599,1.226,1.2346,1.2464,1.286,1.2797,1.283,1.2499,1.2226,1.2108,1.1765,1.1516,1.1194,1.1183,1.1183,1.1188,1.1253,1.1286,1.133,1.1406,1.146,1.1487,1.1487,1.1493,1.1542,1.1612,1.0865,0.9568,0.9256,0.8352,0.6864,0.5777,0.5238,0.4517,0.3425,0.3597,0.4848,0.6461,0.8258,1.112,1.1827,1.2425,1.2885,1.3083,1.3531,1.4192,1.4494,1.4758,1.5004,1.5099,1.5174,1.5167,1.5174,1.5181,1.5181,1.5181,1.5181,1.5181,1.5181,1.5167,1.5133,1.514,1.5052,1.5107,1.4794,1.4672,1.455,1.4502,1.4441,1.4326,1.4299,1.4299,1.4299,1.4299,1.4299,1.4299,1.4285,1.4197,1.4048,1.3919,1.379,1.3634,1.3672,1.3735,1.4225,1.4548,1.5216,1.5546,1.5711,1.6048,1.6369,1.6534,1.7026,1.7519,1.7682,1.8019,1.851,1.8673,1.8673,1.8541,1.8371,1.821,1.8031,1.7776,1.7549,1.354,1.3521,1.3556,1.3569,1.3403,1.2567,1.2401,1.2733,1.157,1.1801,1.2545,1.239,1.2809,1.3462,1.3555,1.3847,1.3746,1.3299,1.2857,1.2154,1.2165,1.1793,1.155,1.1362,1.1368,1.1373,1.1395,1.1411,1.1422,1.1621,1.1504,1.1585,1.1596,1.1645,1.1726,1.1748,1.1034,0.9903,0.9739,0.8998,0.7882,0.7323,0.641,0.5129,0.3827,0.3798,0.4679,0.5424,0.6893,0.9423,1.1061,1.1809,1.2571,1.3005,1.3663,1.4329,1.4758,1.5025,1.5113,1.5153,1.5181,1.5181,1.5181,1.5181,1.5181,1.5181,1.5181,1.5181,1.5181,1.514,1.5038,1.4909,1.4848,1.4794,1.4753,1.4665,1.4529,1.4421,1.4353,1.4312,1.4299,1.4299,1.4299,1.4299,1.4299,1.4299,1.4272,1.4224,1.4102,1.3953,1.381,1.3682,1.3512,1.3742,1.4059,1.4721,1.5216,1.5711,1.5883,1.6048,1.6205,1.6698,1.7191,1.7519,1.7682,1.8183,1.8673,1.8664,1.8664,1.8465,1.8276,1.8087,1.7898,1.7672,1.753,1.3097,1.3397,1.3397,1.3397,1.3238,1.274,1.2567,1.2752,1.2142,1.2377,1.3121,1.3004,1.3291,1.3946,1.4034,1.4102,1.4008,1.3722,1.3053,1.2343,1.2165,1.1988,1.1632,1.181,1.181,1.181,1.181,1.181,1.1821,1.1872,1.1754,1.1639,1.1688,1.1743,1.1824,1.1873,1.1489,1.0906,1.0756,1.0387,0.9605,0.886,0.7384,0.5541,0.4414,0.4207,0.4011,0.4755,0.623,0.8251,0.9931,1.1242,1.2352,1.2966,1.3623,1.4287,1.4879,1.5092,1.5167,1.5181,1.5181,1.5181,1.5181,1.5181,1.5181,1.5181,1.5181,1.5181,1.5167,1.5126,1.4977,1.4835,1.4733,1.4645,1.4631,1.457,1.4448,1.4401,1.4367,1.4326,1.4299,1.4299,1.4299,1.4299,1.4299,1.4299,1.4299,1.4251,1.4177,1.4034,1.3871,1.3715,1.3526,1.3583,1.4066,1.4555,1.5208,1.5711,1.5883,1.6048,1.6048,1.6534,1.7026,1.7355,1.7682,1.8174,1.85,1.8654,1.8598,1.8409,1.821,1.7983,1.7776,1.7605,1.7501,1.2788,1.3403,1.3424,1.3437,1.3437,1.2964,1.2984,1.3331,1.3095,1.318,1.3715,1.3831,1.3787,1.4082,1.4109,1.419,1.4088,1.3938,1.3236,1.2698,1.2562,1.239,1.2039,1.224,1.2437,1.2402,1.2217,1.2217,1.2096,1.2147,1.187,1.171,1.1792,1.1873,1.19,1.1955,1.1982,1.1742,1.1791,1.1796,1.1541,1.0591,0.8728,0.6857,0.5189,0.4623,0.4061,0.4438,0.5557,0.7405,0.859,1.0502,1.2201,1.3144,1.3734,1.4228,1.4785,1.5167,1.5174,1.5181,1.5181,1.5181,1.5181,1.5181,1.5181,1.5181,1.5181,1.5153,1.5126,1.5031,1.4936,1.4733,1.4597,1.4516,1.4482,1.4421,1.436,1.4414,1.4387,1.4326,1.4299,1.4299,1.4299,1.4299,1.4299,1.4299,1.4299,1.4278,1.4211,1.4075,1.3899,1.3743,1.3553,1.3756,1.4232,1.4721,1.5381,1.5711,1.6048,1.6048,1.6048,1.6534,1.7026,1.7182,1.751,1.8174,1.851,1.8664,1.856,1.8371,1.8163,1.7955,1.7747,1.7549,1.7473,1.288,1.341,1.3539,1.3593,1.3439,1.32,1.3409,1.3599,1.3271,1.3535,1.3987,1.4027,1.4116,1.4224,1.4265,1.4285,1.4333,1.4175,1.38,1.3464,1.3349,1.322,1.2879,1.2939,1.3181,1.3356,1.2939,1.2385,1.2085,1.1781,1.2008,1.1906,1.1949,1.1998,1.2069,1.2134,1.2118,1.2074,1.2107,1.2096,1.1898,1.1694,1.0717,0.8606,0.6733,0.5595,0.483,0.4104,0.4681,0.73,0.7739,0.9664,1.1747,1.3257,1.3651,1.4046,1.4811,1.5181,1.5181,1.5181,1.5181,1.5181,1.5181,1.5181,1.5181,1.5167,1.5147,1.5086,1.5142,1.4998,1.478,1.457,1.4401,1.4346,1.4346,1.434,1.4312,1.4326,1.4346,1.4306,1.4299,1.4299,1.4299,1.4299,1.4299,1.4299,1.4299,1.4299,1.4265,1.4082,1.3871,1.3722,1.358,1.3971,1.4555,1.5051,1.5546,1.5875,1.604,1.6369,1.6369,1.6534,1.6854,1.7001,1.7501,1.8346,1.8673,1.8673,1.8484,1.8248,1.8087,1.7927,1.769,1.7473,1.7464,1.2445,1.3526,1.36,1.3668,1.3743,1.364,1.3673,1.3858,1.3753,1.3827,1.4082,1.4156,1.4224,1.4306,1.4387,1.4448,1.4509,1.4529,1.4163,1.4003,1.3874,1.3719,1.3362,1.3619,1.3865,1.4074,1.3676,1.3266,1.2735,1.2616,1.2488,1.1987,1.2047,1.2118,1.2156,1.2167,1.2172,1.2172,1.2172,1.2172,1.2172,1.2172,1.137,0.9835,0.8496,0.735,0.6398,0.5839,0.6427,0.8319,0.8916,1.0077,1.1789,1.3116,1.3682,1.387,1.4617,1.5181,1.5181,1.5181,1.5181,1.5181,1.5181,1.5181,1.516,1.512,1.5045,1.493,1.4977,1.4993,1.4618,1.4421,1.4319,1.4299,1.4299,1.4299,1.4299,1.4299,1.4299,1.4299,1.4299,1.4299,1.4299,1.4299,1.4299,1.4299,1.4299,1.4299,1.4299,1.4102,1.3871,1.3722,1.3755,1.413,1.4548,1.5051,1.5546,1.5875,1.6205,1.6534,1.6698,1.6862,1.6664,1.6475,1.7311,1.8346,1.8673,1.8664,1.8399,1.8172,1.8068,1.7917,1.7615,1.7426,1.7426,1.2148,1.3627,1.3661,1.3756,1.3878,1.3926,1.3939,1.396,1.4061,1.4116,1.4143,1.4272,1.434,1.438,1.4496,1.4624,1.474,1.4726,1.4531,1.4355,1.4395,1.4231,1.4048,1.4277,1.4711,1.4984,1.5169,1.4752,1.3789,1.3468,1.2946,1.2614,1.2322,1.2172,1.2172,1.2172,1.2172,1.2172,1.2172,1.2172,1.2172,1.2172,1.16,1.046,1.0081,0.9122,0.8164,0.7409,0.8171,0.9311,0.9888,1.0649,1.1983,1.3116,1.3682,1.387,1.4617,1.4993,1.5181,1.5181,1.5181,1.5181,1.5181,1.5167,1.5099,1.4997,1.4875,1.474,1.4798,1.4716,1.4523,1.4387,1.4312,1.4299,1.4299,1.4299,1.4299,1.4299,1.4299,1.4299,1.4299,1.4299,1.4299,1.4299,1.4299,1.4299,1.4299,1.4299,1.4272,1.4102,1.3899,1.3913,1.393,1.4289,1.4721,1.5216,1.5546,1.5883,1.6369,1.6698,1.7026,1.7182,1.6992,1.6811,1.7156,1.8019,1.8346,1.8626,1.8418,1.8239,1.8116,1.7889,1.7568,1.7435,1.7426,1.2984,1.3641,1.3763,1.3905,1.4055,1.4177,1.4238,1.4231,1.4251,1.4272,1.4278,1.4414,1.4482,1.4536,1.4652,1.4719,1.4753,1.478,1.4794,1.4631,1.5073,1.5121,1.5327,1.6011,1.6011,1.5867,1.6255,1.5896,1.4906,1.4171,1.3633,1.3269,1.2522,1.2178,1.2199,1.2199,1.2172,1.2178,1.2183,1.2183,1.2183,1.2178,1.1983,1.16,1.0649,1.0077,0.9509,0.8751,0.8751,0.9888,1.0081,1.0649,1.1983,1.3116,1.3682,1.4059,1.4623,1.5181,1.5181,1.5181,1.5181,1.5181,1.5167,1.5113,1.4977,1.4855,1.4753,1.4746,1.4597,1.4682,1.4462,1.438,1.4319,1.4299,1.4299,1.4299,1.4299,1.4299,1.4299,1.4299,1.4299,1.4299,1.4299,1.4299,1.4299,1.4299,1.4299,1.4299,1.4238,1.4068,1.3892,1.3885,1.4077,1.4426,1.4878,1.5216,1.5711,1.6048,1.6369,1.6862,1.7026,1.7191,1.7682,1.7501,1.7682,1.7819,1.8272,1.8532,1.8418,1.8248,1.805,1.7794,1.7511,1.7445,1.7426,1.3782,1.3756,1.381,1.398,1.4197,1.4278,1.4299,1.4299,1.4299,1.4346,1.4414,1.4482,1.4597,1.4753,1.4848,1.4916,1.497,1.4977,1.4991,1.4977,1.5231,1.5452,1.5473,1.5709,1.5931,1.6306,1.6306,1.6292,1.5556,1.4798,1.4046,1.367,1.2744,1.2221,1.2254,1.2275,1.2324,1.2341,1.2324,1.2281,1.2259,1.2216,1.2172,1.2172,1.1411,1.1217,1.1028,1.0838,1.046,1.1217,1.1411,1.1789,1.2739,1.3493,1.4052,1.4241,1.4805,1.5181,1.5181,1.5181,1.5181,1.5153,1.5099,1.495,1.4767,1.4658,1.457,1.4489,1.4434,1.4401,1.4394,1.434,1.4312,1.4299,1.4299,1.4299,1.4299,1.4299,1.4299,1.4299,1.4299,1.4299,1.4299,1.4299,1.4299,1.4299,1.4292,1.4292,1.4197,1.4034,1.3858,1.3668,1.4202,1.4721,1.5043,1.5381,1.5711,1.6048,1.6369,1.6698,1.6862,1.7191,1.7682,1.7837,1.7837,1.7955,1.8379,1.8447,1.8352,1.8163,1.7955,1.7719,1.7492,1.7445,1.7426,1.4408,1.3899,1.3899,1.4055,1.4292,1.4299,1.4326,1.4353,1.436,1.4434,1.455,1.4624,1.4787,1.497,1.5025,1.5065,1.5167,1.5181,1.5181,1.5181,1.5368,1.5362,1.5542,1.5556,1.5931,1.6126,1.6314,1.6306,1.6119,1.5174,1.4234,1.3864,1.2784,1.2455,1.2335,1.2384,1.2433,1.2487,1.2433,1.2384,1.2341,1.2265,1.221,1.2183,1.2172,1.2172,1.2172,1.2172,1.2172,1.2172,1.2361,1.255,1.2928,1.3493,1.4241,1.4429,1.4805,1.5181,1.5181,1.5181,1.5181,1.5126,1.4997,1.4808,1.4584,1.4489,1.4434,1.434,1.4326,1.4312,1.4299,1.4299,1.4299,1.4299,1.4299,1.4299,1.4299,1.4299,1.4299,1.4299,1.4299,1.4299,1.4299,1.4299,1.4299,1.4299,1.4292,1.4285,1.4156,1.4,1.4002,1.3816,1.4173,1.4721,1.5216,1.5546,1.5883,1.6213,1.6534,1.6862,1.7026,1.7355,1.7846,1.7837,1.7801,1.8045,1.8437,1.8361,1.8276,1.8031,1.7813,1.7672,1.752,1.7464,1.7426,1.4302,1.4055,1.4055,1.415,1.4299,1.4299,1.438,1.4475,1.4496,1.4584,1.4733,1.4869,1.5004,1.512,1.514,1.5153,1.5181,1.5181,1.5181,1.5368,1.5556,1.5751,1.5751,1.5931,1.6306,1.6494,1.6306,1.6306,1.6314,1.5208,1.4442,1.4253,1.3026,1.2516,1.2411,1.2509,1.2547,1.2585,1.2542,1.246,1.2401,1.233,1.2281,1.2194,1.2172,1.2172,1.2172,1.2172,1.2172,1.2172,1.255,1.2739,1.3116,1.3682,1.4241,1.4617,1.4993,1.5181,1.5181,1.5181,1.5174,1.5099,1.4923,1.4679,1.4496,1.4373,1.4312,1.4306,1.4299,1.4299,1.4299,1.4299,1.4299,1.4299,1.4299,1.4299,1.4299,1.4299,1.4299,1.4299,1.4299,1.4299,1.4299,1.4299,1.4299,1.4299,1.4285,1.4278,1.4122,1.3966,1.4145,1.4147,1.4492,1.4893,1.5381,1.5711,1.6048,1.6377,1.6698,1.7026,1.7363,1.7691,1.7846,1.7928,1.8035,1.8114,1.8163,1.8041,1.8059,1.7851,1.7681,1.7568,1.7501,1.7445,1.7426,1.4312,1.4075,1.417,1.4245,1.4306,1.4394,1.4462,1.4523,1.4611,1.474,1.4889,1.5031,1.5126,1.5167,1.5181,1.5181,1.5181,1.5181,1.5181,1.5181,1.5375,1.5375,1.5556,1.5744,1.5744,1.5744,1.5744,1.5744,1.5563,1.4878,1.4361,1.3822,1.2921,1.2648,1.2553,1.2661,1.2721,1.2716,1.2667,1.258,1.2477,1.2379,1.2297,1.2183,1.2172,1.2172,1.2172,1.2172,1.2172,1.2361,1.2739,1.3116,1.3493,1.4059,1.4617,1.4805,1.4993,1.5181,1.5181,1.516,1.5106,1.4896,1.4719,1.4543,1.4414,1.4326,1.4306,1.4299,1.4299,1.4299,1.4299,1.4299,1.4299,1.4299,1.4299,1.4299,1.4299,1.4299,1.4299,1.4299,1.4299,1.4299,1.4299,1.4299,1.4299,1.4299,1.4285,1.4238,1.4075,1.4084,1.4089,1.4294,1.4636,1.4901,1.5389,1.5719,1.6048,1.6369,1.6698,1.7191,1.7527,1.7363,1.7665,1.7891,1.7897,1.7919,1.7948,1.7835,1.7704,1.7719,1.7605,1.7501,1.7445,1.7426,1.7426,1.4451,1.4156,1.4299,1.436,1.438,1.4468,1.4563,1.4665,1.476,1.4896,1.5038,1.514,1.5181,1.5181,1.5181,1.5181,1.5181,1.5181,1.5181,1.5181,1.5181,1.5181,1.5181,1.5181,1.5368,1.5181,1.5181,1.5181,1.5187,1.4767,1.4266,1.374,1.3029,1.277,1.2672,1.2819,1.289,1.2863,1.2808,1.27,1.2585,1.2471,1.2357,1.2243,1.2199,1.2172,1.2172,1.2172,1.2172,1.2361,1.2928,1.3493,1.387,1.4435,1.4993,1.5181,1.5181,1.5181,1.5181,1.5113,1.5004,1.4801,1.4624,1.4462,1.4346,1.4299,1.4299,1.4299,1.4299,1.4299,1.4299,1.4299,1.4299,1.4299,1.4299,1.4299,1.4299,1.4299,1.4299,1.4299,1.4299,1.4299,1.4292,1.4292,1.4272,1.4251,1.4204,1.4136,1.398,1.4002,1.4189,1.4397,1.478,1.5074,1.5554,1.604,1.6369,1.6698,1.7026,1.7355,1.7519,1.7492,1.7593,1.7962,1.8107,1.7734,1.7585,1.7629,1.7709,1.7624,1.753,1.7445,1.7445,1.7426,1.7426,1.4163,1.4306,1.4441,1.4502,1.4523,1.4516,1.4679,1.4896,1.495,1.5038,1.5147,1.5181,1.5181,1.5181,1.5181,1.5181,1.5181,1.5181,1.5181,1.5181,1.5181,1.5181,1.5181,1.5181,1.5181,1.5181,1.5181,1.5181,1.5187,1.4609,1.4335,1.3879,1.3384,1.2689,1.2721,1.2825,1.2884,1.289,1.2873,1.2792,1.2661,1.2547,1.2439,1.2297,1.2216,1.2172,1.2172,1.2172,1.2172,1.2361,1.2928,1.3305,1.3682,1.4241,1.4805,1.5181,1.5181,1.5181,1.5167,1.5052,1.4896,1.4557,1.4577,1.4421,1.4326,1.4299,1.4299,1.4299,1.4299,1.4299,1.4299,1.4299,1.4299,1.4299,1.4299,1.4299,1.4299,1.4299,1.4299,1.4299,1.4299,1.4299,1.4285,1.4278,1.4251,1.4211,1.4143,1.4027,1.3892,1.4103,1.4294,1.4521,1.4916,1.5404,1.5711,1.6369,1.6698,1.6854,1.7156,1.762,1.7882,1.7971,1.8059,1.8305,1.8116,1.7714,1.7564,1.7577,1.7549,1.753,1.7483,1.7426,1.7426,1.7426,1.7426,1.4306,1.4441,1.4496,1.4631,1.4801,1.4821,1.4882,1.4977,1.5065,1.514,1.5174,1.5181,1.5181,1.5181,1.5181,1.5181,1.5181,1.5181,1.5181,1.5181,1.5181,1.5181,1.5181,1.5181,1.5181,1.5181,1.5181,1.5181,1.5187,1.4839,1.4777,1.4511,1.3708,1.3217,1.3035,1.2879,1.289,1.289,1.2868,1.2797,1.2618,1.2553,1.2444,1.2265,1.2205,1.2172,1.2172,1.2172,1.2172,1.2361,1.2928,1.3493,1.387,1.4241,1.4993,1.5181,1.5181,1.5133,1.5045,1.4909,1.4808,1.4679,1.4523,1.4367,1.4299,1.4299,1.4299,1.4299,1.4299,1.4299,1.4299,1.4299,1.4299,1.4299,1.4299,1.4299,1.4299,1.4299,1.4299,1.4299,1.4299,1.4224,1.4197,1.4122,1.4095,1.4082,1.4014,1.396,1.3851,1.4055,1.4426,1.4644,1.5058,1.5554,1.604,1.65,1.682,1.7138,1.7394,1.7791,1.804,1.8116,1.8125,1.8021,1.7861,1.769,1.7587,1.7492,1.7464,1.7426,1.7426,1.7426,1.7426,1.7426,1.7426,1.4428,1.4523,1.4624,1.478,1.4957,1.497,1.4997,1.5052,1.514,1.5181,1.5181,1.5181,1.5181,1.5181,1.5181,1.5181,1.5181,1.5181,1.5181,1.5181,1.5181,1.5181,1.5181,1.5181,1.5181,1.5181,1.5181,1.5181,1.5201,1.5301,1.4912,1.4262,1.3994,1.3456,1.3079,1.2884,1.289,1.289,1.2873,1.283,1.2694,1.2585,1.2466,1.233,1.2237,1.2172,1.2172,1.2172,1.2172,1.2361,1.2928,1.3493,1.387,1.4435,1.4993,1.5181,1.5174,1.5106,1.4984,1.4835,1.474,1.4638,1.4421,1.4312,1.4299,1.4299,1.4299,1.4299,1.4299,1.4299,1.4299,1.4299,1.4299,1.4299,1.4299,1.4299,1.4299,1.4299,1.4299,1.4299,1.4258,1.4183,1.4082,1.3973,1.3905,1.3892,1.3878,1.3831,1.3947,1.4323,1.4543,1.4954,1.5216,1.5711,1.6172,1.6433,1.6923,1.7258,1.762,1.7938,1.8023,1.8078,1.7908,1.7747,1.7653,1.7568,1.7492,1.7426,1.7426,1.7426,1.7426,1.7426,1.7426,1.7426,1.7426,1.4509,1.4563,1.4848,1.4964,1.4984,1.4997,1.5059,1.5174,1.5181,1.5181,1.5181,1.5181,1.5181,1.5181,1.5181,1.5181,1.5181,1.5181,1.5181,1.5181,1.5181,1.5181,1.5181,1.5181,1.5181,1.5181,1.5181,1.5187,1.5215,1.5103,1.4592,1.4198,1.4059,1.3484,1.329,1.289,1.289,1.289,1.2884,1.2846,1.2754,1.2623,1.2515,1.2395,1.2281,1.2194,1.2172,1.2172,1.2172,1.2361,1.2739,1.3116,1.3682,1.4052,1.4617,1.4993,1.5181,1.5072,1.4943,1.478,1.4638,1.4523,1.4387,1.4319,1.4299,1.4299,1.4299,1.4299,1.4299,1.4299,1.4299,1.4299,1.4299,1.4299,1.4299,1.4299,1.4299,1.4299,1.4299,1.4278,1.4231,1.415,1.4021,1.3899,1.3552,1.3709,1.3695,1.3999,1.4105,1.4376,1.478,1.527,1.5546,1.5875,1.6319,1.6563,1.6999,1.7332,1.7563,1.7873,1.7955,1.7889,1.7738,1.7605,1.752,1.7454,1.7435,1.7426,1.7426,1.7426,1.7426,1.7426,1.7426,1.7426,1.7426,1.4577,1.4692,1.4889,1.5031,1.5113,1.512,1.5147,1.5181,1.5181,1.5181,1.5181,1.5181,1.5181,1.5181,1.5181,1.5181,1.5181,1.5181,1.5181,1.5181,1.5181,1.5181,1.5181,1.5181,1.5181,1.5181,1.5181,1.5187,1.5248,1.5301,1.5198,1.4837,1.4277,1.3884,1.349,1.309,1.289,1.289,1.289,1.2852,1.277,1.2623,1.252,1.2406,1.227,1.2188,1.2172,1.2172,1.2172,1.2361,1.2739,1.3116,1.3682,1.4052,1.461,1.5167,1.5092,1.4964,1.5004,1.4665,1.4523,1.4414,1.4326,1.4312,1.4299,1.4299,1.4299,1.4299,1.4299,1.4299,1.4299,1.4299,1.4299,1.4299,1.4299,1.4299,1.4299,1.4299,1.4292,1.4224,1.4183,1.3847,1.3727,1.3363,1.3211,1.3358,1.3672,1.3992,1.4304,1.4585,1.5058,1.5381,1.5703,1.6032,1.645,1.67,1.7117,1.7521,1.7724,1.7823,1.7776,1.769,1.7568,1.7492,1.7454,1.7435,1.7426,1.7426,1.7426,1.7426,1.7426,1.7426,1.7426,1.7426,1.7426,1.4833,1.476,1.497,1.5106,1.5174,1.5181,1.5181,1.5181,1.5181,1.5181,1.5181,1.5181,1.5181,1.5181,1.5181,1.5181,1.5181,1.5181,1.5181,1.5181,1.5181,1.5181,1.5181,1.5181,1.5181,1.5181,1.5181,1.5181,1.5269,1.5493,1.5394,1.5254,1.4676,1.4283,1.369,1.329,1.289,1.289,1.2879,1.2841,1.2748,1.2623,1.2504,1.2406,1.227,1.2188,1.2172,1.2172,1.2172,1.2361,1.2739,1.3116,1.3682,1.4241,1.4798,1.516,1.5059,1.4916,1.4767,1.4611,1.4455,1.4346,1.4299,1.4299,1.4299,1.4299,1.4299,1.4299,1.4299,1.4299,1.4299,1.4299,1.4299,1.4299,1.4299,1.4299,1.4299,1.4299,1.4245,1.4001,1.3874,1.3528,1.3186,1.2836,1.3072,1.3597,1.4109,1.4434,1.4592,1.4735,1.5216,1.5711,1.5867,1.6016,1.6408,1.6759,1.7111,1.7277,1.7492,1.7479,1.7596,1.7558,1.7492,1.7454,1.7435,1.7426,1.7426,1.7426,1.7426,1.7426,1.7426,1.7426,1.7426,1.7426,1.7426,1.5287,1.4767,1.5059,1.5174,1.5181,1.5181,1.5181,1.5187,1.5208,1.5194,1.5187,1.5181,1.5181,1.5181,1.5181,1.5181,1.5181,1.5181,1.5181,1.5187,1.5181,1.5181,1.5181,1.5181,1.5181,1.5181,1.5187,1.5208,1.5289,1.5499,1.5582,1.5254,1.4676,1.4283,1.3889,1.3284,1.289,1.289,1.289,1.2868,1.2808,1.2683,1.2531,1.2487,1.233,1.2172,1.2172,1.2172,1.2172,1.2361,1.2739,1.3116,1.387,1.4811,1.5181,1.5113,1.5197,1.4875,1.4726,1.4563,1.4434,1.434,1.4299,1.4299,1.4299,1.4299,1.4299,1.4299,1.4299,1.4299,1.4299,1.4299,1.4299,1.4299,1.4299,1.4299,1.4299,1.4088,1.3475,1.321,1.2366,1.2051,1.2137,1.1813,1.2395,1.3397,1.4232,1.4555,1.5154,1.5154,1.5311,1.5803,1.5739,1.6008,1.6402,1.6729,1.688,1.7162,1.7279,1.7348,1.7501,1.7473,1.7435,1.7426,1.7426,1.7426,1.7426,1.7426,1.7426,1.7426,1.7426,1.7426,1.7426,1.7426,1.7426,1.6007,1.5322,1.5245,1.5181,1.5181,1.5181,1.5181,1.5194,1.5309,1.5296,1.5201,1.5187,1.5194,1.5221,1.5221,1.5221,1.5215,1.5248,1.5194,1.5208,1.5215,1.5248,1.5201,1.5242,1.5208,1.5181,1.5194,1.5242,1.5364,1.5547,1.5723,1.571,1.5004,1.4482,1.4283,1.3484,1.309,1.289,1.289,1.2879,1.2835,1.2683,1.2531,1.246,1.2319,1.2188,1.2172,1.2172,1.2172,1.2361,1.2739,1.3305,1.4241,1.5181,1.5563,1.5327,1.5334,1.5011,1.4881,1.4536,1.4387,1.4333,1.4299,1.4299,1.4299,1.4299,1.4299,1.4299,1.4299,1.4299,1.4299,1.4299,1.4299,1.4299,1.4299,1.4299,1.4292,1.3494,1.2885,1.205,1.1052,1.08,1.0725,1.1328,1.192,1.2727,1.3728,1.4526,1.5536,1.5804,1.561,1.5917,1.5666,1.5922,1.6333,1.6739,1.6903,1.7089,1.7405,1.7483,1.7426,1.7426,1.7426,1.7426,1.7426,1.7426,1.7426,1.7426,1.7426,1.7426,1.7426,1.7426,1.7426,1.7426,1.7426,1.727,1.6044,1.5431,1.5181,1.5181,1.5181,1.5221,1.5296,1.5377,1.5404,1.5391,1.5384,1.5384,1.5384,1.5384,1.5364,1.5371,1.5391,1.5411,1.5398,1.5357,1.5404,1.5384,1.5357,1.5337,1.5309,1.5221,1.5255,1.5425,1.556,1.571,1.5656,1.5196,1.4676,1.4482,1.3684,1.309,1.289,1.289,1.2857,1.2814,1.2645,1.2498,1.2417,1.2297,1.2188,1.2172,1.2172,1.2172,1.255,1.311,1.4052,1.4993,1.5931,1.6119,1.5874,1.5725,1.535,1.5049,1.4723,1.4367,1.4326,1.4299,1.4299,1.4299,1.4299,1.4299,1.4299,1.4299,1.4299,1.4299,1.4299,1.4299,1.4299,1.4285,1.4278,1.3859,1.3248,1.2582,1.1898,1.0609,0.9375,0.9656,1.0775,1.1529,1.309,1.3945,1.5202,1.6046,1.6418,1.6224,1.6023,1.5948,1.5889,1.632,1.6573,1.6796,1.7143,1.7511,1.7464,1.7426,1.7426,1.7426,1.7426,1.7426,1.7426,1.7426,1.7426,1.7426,1.7426,1.7426,1.7426,1.7426,1.7426,1.7426,1.8931,1.7191,1.6182,1.5744,1.5556,1.5556,1.5451,1.5398,1.5438,1.5533,1.5649,1.5676,1.5683,1.5642,1.5635,1.5635,1.5615,1.556,1.5594,1.5601,1.5601,1.556,1.5567,1.5594,1.552,1.5432,1.535,1.5377,1.5472,1.5615,1.5757,1.5872,1.5579,1.5081,1.4482,1.3884,1.349,1.309,1.2868,1.2803,1.2705,1.2591,1.2482,1.2362,1.2243,1.2183,1.2172,1.2172,1.2172,1.2928,1.3864,1.4805,1.5744,1.6494,1.6494,1.6442,1.6331,1.5971,1.5462,1.4944,1.462,1.4346,1.4312,1.4299,1.4299,1.4299,1.4299,1.4299,1.4299,1.4299,1.4299,1.4299,1.4299,1.4292,1.4278,1.4231,1.3618,1.2643,1.195,1.1272,0.9859,0.8302,0.8601,0.9555,1.1476,1.3186,1.4723,1.593,1.6801,1.6704,1.6634,1.6433,1.6372,1.6485,1.6605,1.6578,1.6825,1.7079,1.7464,1.7435,1.7426,1.7426,1.7426,1.7426,1.7426,1.7426,1.7426,1.7426,1.7426,1.7426,1.7426,1.7426,1.7426,1.7426,1.7426,2.0161,1.8988,1.8879,1.7973,1.7048,1.6853,1.6394,1.5609,1.5547,1.5676,1.5811,1.592,1.5886,1.5642,1.5635,1.5655,1.571,1.5689,1.5649,1.5635,1.5696,1.5669,1.5655,1.5696,1.5635,1.5574,1.554,1.5567,1.5574,1.571,1.5818,1.5866,1.5605,1.5074,1.4476,1.4077,1.3467,1.3262,1.2825,1.2765,1.2613,1.252,1.2471,1.2357,1.2237,1.2194,1.2172,1.2172,1.2733,1.3487,1.4805,1.5744,1.6494,1.6868,1.7055,1.7025,1.6725,1.6383,1.5855,1.5348,1.5026,1.4326,1.4299,1.4299,1.4299,1.4299,1.4299,1.4299,1.4299,1.4299,1.4299,1.4299,1.4299,1.4292,1.4278,1.4183,1.3733,1.2038,1.0517,0.9385,0.8125,0.7091,0.6566,0.8527,1.1288,1.3166,1.503,1.6376,1.7217,1.7125,1.7043,1.6852,1.6662,1.6744,1.6717,1.6753,1.687,1.713,1.7426,1.7426,1.7426,1.7426,1.7426,1.7426,1.7426,1.7426,1.7426,1.7426,1.7426,1.7426,1.7426,1.7426,1.7426,1.7426,1.7426]},{"header":{"parameterUnit":"m.s-1","parameterCategory":1,"la1":31.0,"la2":29.5877,"lo1":-88.7671,"lo2":-86.6584,"dx":0.0162,"dy":0.0185,"nx":115,"ny":88,"refTime":"2023-01-05T06:00:00:Z","depth":0,"parameterNumber":3,"parameterNumberName":"V-component_of_WINDS"},"data":[0.0,0.0,0.0,0.0,0.0,0.0,0.0,0.0,0.0,0.0,0.0,0.0,0.0,0.0,0.0,0.0,0.0,0.0,0.0,0.0,0.0,0.0,0.0,0.0,0.0,0.0,0.0,0.0,0.0,0.0,0.0,0.0,0.0,0.0,0.0,0.0,0.0,0.0,0.0,0.0,0.0,0.0,0.0,0.0,0.0,0.0,0.0,0.0,0.0,0.0,0.0,0.0,0.0,0.0,0.0,0.0,0.0,0.0,0.0,0.0,0.0,0.0,0.0,0.0,0.0,0.0,0.0,0.0,0.0,0.0,0.0,0.0,0.0,0.0,0.0,0.0,0.0,0.0,0.0,0.0,0.0,0.0,0.0,0.0,0.0,0.0,0.0,0.0,0.0,0.0,0.0,0.0,0.0,0.0,0.0,0.0,0.0,0.0,0.0,0.0,0.0,0.0,0.0,0.0,0.0,0.0,0.0,0.0,0.0,0.0,0.0,0.0,0.0,0.0,0.0,0.0,0.0,0.0,0.0,0.0,0.0,0.0,0.0,0.0,0.0,0.0,0.0,0.0,0.0,0.0,0.0,0.0,0.0,0.0,0.0,0.0,0.0,0.0,0.0,0.0,0.0,0.0,0.0,0.0,0.0,0.0,0.0,0.0,0.0,0.0,0.0,0.0,0.0,0.0,0.0,0.0,0.0,0.0,0.0,0.0,0.0,0.0,0.0,0.0,0.0,0.0,0.0,0.0,0.0,0.0,0.0,0.0,0.0,0.0,0.0,0.0,0.0,0.0,0.0,0.0,0.0,0.0,0.0,0.0,0.0,0.0,0.0,0.0,0.0,0.0,0.0,0.0,0.0,0.0,0.0,0.0,0.0,0.0,0.0,0.0,0.0,0.0,0.0,0.0,0.0,0.0,0.0,0.0,0.0,0.0,0.0,0.0,0.0,0.0,0.0,0.0,0.0,0.0,0.0,0.0,0.0,0.0,0.0,0.0,0.0,0.0,0.0,0.0,0.0,0.0,0.0,0.0,0.0,0.0,0.0,0.0,0.0,0.0,0.0,0.0,0.0,0.0,0.0,0.0,0.0,0.0,0.0,0.0,0.0,0.0,0.0,0.0,0.0,0.0,0.0,0.0,0.0,0.0,0.0,0.0,0.0,0.0,0.0,0.0,0.0,0.0,0.0,0.0,0.0,0.0,0.0,0.0,0.0,0.0,0.0,0.0,0.0,0.0,0.0,0.0,0.0,0.0,0.0,0.0,0.0,0.0,0.0,0.0,0.0,0.0,0.0,0.0,0.0,0.0,0.0,0.0,0.0,0.0,0.0,0.0,0.0,0.0,0.0,0.0,0.0,0.0,0.0,0.0,0.0,0.0,0.0,0.0,0.0,0.0,0.0,0.0,0.0,0.0,0.0,0.0,0.0,0.0,0.0,0.0,0.0,0.0,0.0,0.0,0.0,0.0,0.0,0.0,0.0,0.0,0.0,0.0,0.0,0.0,0.0,0.0,0.0,0.0,0.0,0.0,0.0,0.0,0.0,0.0,0.0,0.0,0.0,0.0,0.0,0.0,0.0,0.0,0.0,0.0,0.0,0.0,0.0,0.0,0.0,0.0,0.0,0.0,0.0,0.0,0.0,0.0,0.0,0.0,0.0,0.0,0.0,0.0,0.0,0.0,0.0,0.0,0.0,0.0,0.0,0.0,0.0,0.0,0.0,0.0,0.0,0.0,0.0,0.0,0.0,0.0,0.0,0.0,0.0,0.0,0.0,0.0,0.0,0.0,0.0,0.0,0.0,0.0,0.0,0.0,0.0,0.0,0.0,0.0,0.0,0.0,0.0,0.0,0.0,0.0,0.0,0.0,0.0,0.0,0.0,0.0,0.0,0.0,0.0,0.0,0.0,0.0,0.0,0.0,0.0,0.0,0.0,0.0,0.0,0.0,0.0,0.0,0.0,0.0,0.0,0.0,0.0,0.0,0.0,0.0,0.0,0.0,0.0,0.0,0.0,0.0,0.0,0.0,0.0,0.0,0.0,0.0,0.0,0.0,0.0,0.0,0.0,0.0,0.0,0.0,0.0,0.0,0.0,0.0,0.0,0.0,0.0,0.0,0.0,0.0,0.0,0.0,0.0,0.0,0.0,0.0,0.0,0.0,0.0,0.0,0.0,0.0,0.0,0.0,0.0,0.0,0.0,0.0,0.0,0.0,0.0,0.0,0.0,0.0,0.0,0.0,0.0,0.0,0.0,0.0,0.0,0.0,0.0,0.0,0.0,0.0,0.0,0.0,0.0,0.0,0.0,0.0,0.0,0.0,0.0,0.0,0.0,0.0,0.0,0.0,0.0,0.0,0.0,0.0,0.0,0.0,0.0,0.0,0.0,0.0,0.0,0.0,0.0,0.0,0.0,0.0,0.0,0.0,0.0,0.0,0.0,0.0,0.0,0.0,0.0,0.0,0.0,0.0,0.0,0.0,0.0,0.0,0.0,0.0,0.0,0.0,0.0,0.0,0.0,0.0,0.0,0.0,0.0,0.0,0.0,0.0,0.0,0.0,0.0,0.0,0.0,0.0,0.0,0.0,0.0,0.0,0.0,0.0,0.0,0.0,0.0,0.0,0.0,0.0,0.0,0.0,0.0,0.0,0.0,0.0,0.0,0.0,0.0,0.0,0.0,0.0,0.0,0.0,0.0,0.0,0.0,0.0,0.0,0.0,0.0,0.0,0.0,0.0,0.0,0.0,0.0,0.0,0.0,0.0,0.0,0.0,0.0,0.0,0.0,0.0,0.0,0.0,0.0,0.0,0.0,0.0,0.0,0.0,0.0,0.0,0.0,0.0,0.0,0.0,0.0,0.0,0.0,0.0,0.0,0.0,0.0,0.0,0.0,0.0,0.0,0.0,0.0,0.0,0.0,0.0,0.0,0.0,0.0,0.0,0.0,0.0,0.0,0.0,0.0,0.0,0.0,0.0,0.0,0.0,0.0,0.0,0.0,0.0,0.0,0.0,0.0,0.0,0.0,0.0,0.0,0.0,0.0,0.0,0.0,0.0,0.0,0.0,0.0,0.0,0.0,0.0,0.0,0.0,0.0,0.0,0.0,0.0,0.0,0.0,0.0,0.0,0.0,0.0,0.0,0.0,0.0,0.0,0.0,0.0,0.0,0.0,0.0,0.0,0.0,0.0,0.0,0.0,0.0,0.0,0.0,0.0,0.0,0.0,0.0,0.0,0.0,0.0,0.0,0.0,0.0,0.0,0.0,0.0,0.0,0.0,0.0,0.0,0.0,0.0,0.0,0.0,0.0,0.0,0.0,0.0,0.0,0.0,0.0,0.0,0.0,0.0,0.0,0.0,0.0,0.0,0.0,0.0,0.0,0.0,0.0,0.0,0.0,0.0,0.0,0.0,0.0,0.0,0.0,0.0,0.0,0.0,0.0,0.0,0.0,0.0,0.0,0.0,0.0,0.0,0.0,0.0,0.0,0.0,0.0,0.0,0.0,0.0,0.0,0.0,0.0,0.0,0.0,0.0,0.0,0.0,0.0,0.0,0.0,0.0,0.0,0.0,0.0,0.0,0.0,0.0,0.0,0.0,0.0,0.0,0.0,0.0,0.0,0.0,0.0,0.0,0.0,0.0,0.0,0.0,0.0,0.0,0.0,0.0,0.0,0.0,0.0,0.0,0.0,0.0,0.0,0.0,0.0,0.0,0.0,0.0,0.0,0.0,0.0,0.0,0.0,0.0,0.0,0.0,0.0,0.0,0.0,0.0,0.0,0.0,0.0,0.0,0.0,0.0,0.0,0.0,0.0,0.0,0.0,0.0,0.0,0.0,0.0,0.0,0.0,0.0,0.0,0.0,0.0,0.0,0.0,0.0,0.0,0.0,0.0,0.0,0.0,0.0,0.0,0.0,0.0,0.0,0.0,0.0,0.0,0.0,0.0,0.0,0.0,0.0,0.0,0.0,0.0,0.0,0.0,0.0,0.0,0.0,0.0,0.0,0.0,0.0,0.0,0.0,0.0,0.0,0.0,0.0,0.0,0.0,0.0,0.0,0.0,0.0,0.0,0.0,0.0,0.0,0.0,0.0,0.0,0.0,0.0,0.0,0.0,0.0,0.0,0.0,0.0,0.0,0.0,0.0,0.0,0.0,0.0,0.0,0.0,0.0,0.0,0.0,0.0,0.0,0.0,0.0,0.0,0.0,0.0,0.0,0.0,0.0,0.0,0.0,0.0,0.0,0.0,0.0,0.0,0.0,0.0,0.0,-1.5311,0.0,0.0,0.0,-1.3616,0.0,0.0,0.0,0.0,0.0,0.0,0.0,0.0,0.0,0.0,0.0,0.0,0.0,0.0,0.0,0.0,0.0,0.0,0.0,0.0,0.0,0.0,0.0,0.0,0.0,0.0,0.0,0.0,0.0,0.0,0.0,0.0,0.0,0.0,0.0,0.0,0.0,0.0,0.0,0.0,0.0,0.0,0.0,0.0,0.0,0.0,0.0,0.0,0.0,0.0,0.0,0.0,0.0,0.0,0.0,0.0,0.0,0.0,0.0,0.0,0.0,0.0,0.0,0.0,0.0,0.0,0.0,0.0,0.0,0.0,0.0,0.0,0.0,0.0,0.0,0.0,0.0,0.0,0.0,0.0,0.0,0.0,0.0,0.0,0.0,0.0,0.0,0.0,0.0,0.0,0.0,0.0,0.0,0.0,0.0,0.0,0.0,0.0,0.0,0.0,0.0,0.0,0.0,0.0,0.0,0.0,0.0,0.0,0.0,0.0,-1.4798,-1.5188,-1.5157,-1.4887,-1.4321,0.0,0.0,0.0,0.0,0.0,0.0,0.0,0.0,0.0,0.0,0.0,0.0,0.0,0.0,0.0,0.0,0.0,0.0,0.0,0.0,0.0,0.0,0.0,0.0,0.0,0.0,0.0,0.0,0.0,0.0,0.0,0.0,0.0,0.0,0.0,0.0,0.0,0.0,0.0,0.0,0.0,0.0,0.0,0.0,0.0,0.0,0.0,0.0,0.0,0.0,0.0,0.0,0.0,0.0,0.0,0.0,0.0,0.0,0.0,0.0,0.0,0.0,0.0,0.0,0.0,0.0,0.0,0.0,0.0,0.0,0.0,0.0,0.0,0.0,0.0,0.0,0.0,0.0,0.0,0.0,0.0,0.0,0.0,0.0,0.0,0.0,0.0,0.0,0.0,0.0,0.0,0.0,0.0,0.0,0.0,0.0,0.0,0.0,0.0,0.0,0.0,0.0,0.0,0.0,0.0,0.0,0.0,0.0,0.0,0.0,0.0,0.0,-1.519,-1.5088,-1.5011,0.0,0.0,0.0,0.0,0.0,0.0,0.0,0.0,0.0,0.0,0.0,0.0,0.0,0.0,0.0,0.0,0.0,0.0,0.0,0.0,0.0,0.0,0.0,0.0,0.0,0.0,0.0,0.0,0.0,0.0,0.0,0.0,0.0,0.0,0.0,0.0,0.0,0.0,0.0,0.0,0.0,0.0,0.0,0.0,0.0,0.0,0.0,0.0,0.0,0.0,0.0,0.0,0.0,0.0,0.0,0.0,0.0,0.0,0.0,0.0,0.0,0.0,0.0,0.0,0.0,0.0,0.0,0.0,0.0,0.0,0.0,0.0,0.0,0.0,0.0,0.0,0.0,0.0,0.0,0.0,0.0,0.0,0.0,0.0,0.0,0.0,0.0,0.0,0.0,0.0,0.0,0.0,0.0,0.0,0.0,0.0,0.0,0.0,0.0,0.0,0.0,0.0,0.0,0.0,0.0,0.0,0.0,0.0,0.0,0.0,-1.4472,-1.5268,-1.5288,0.0,-1.505,0.0,0.0,0.0,0.0,0.0,0.0,0.0,0.0,0.0,0.0,0.0,0.0,0.0,0.0,0.0,0.0,0.0,0.0,0.0,0.0,0.0,0.0,0.0,0.0,0.0,0.0,0.0,0.0,0.0,0.0,0.0,0.0,0.0,0.0,0.0,0.0,0.0,0.0,0.0,0.0,0.0,0.0,0.0,0.0,0.0,0.0,0.0,0.0,0.0,0.0,0.0,0.0,0.0,0.0,0.0,0.0,0.0,0.0,0.0,0.0,0.0,0.0,0.0,0.0,0.0,0.0,0.0,0.0,0.0,0.0,0.0,0.0,0.0,0.0,0.0,0.0,0.0,0.0,0.0,0.0,0.0,0.0,0.0,0.0,0.0,0.0,0.0,0.0,0.0,0.0,0.0,0.0,0.0,0.0,0.0,0.0,0.0,0.0,0.0,0.0,0.0,0.0,0.0,0.0,0.0,0.0,0.0,0.0,0.0,0.0,-1.4491,-1.5295,-1.5302,-1.5295,0.0,0.0,0.0,0.0,0.0,0.0,0.0,0.0,0.0,0.0,0.0,0.0,0.0,0.0,0.0,0.0,0.0,0.0,0.0,0.0,0.0,0.0,0.0,0.0,0.0,0.0,0.0,0.0,0.0,0.0,0.0,0.0,0.0,0.0,0.0,0.0,0.0,0.0,0.0,0.0,0.0,0.0,0.0,0.0,0.0,0.0,0.0,0.0,0.0,0.0,0.0,0.0,0.0,0.0,0.0,0.0,0.0,0.0,0.0,0.0,0.0,0.0,0.0,0.0,0.0,0.0,0.0,0.0,0.0,0.0,0.0,0.0,0.0,0.0,0.0,0.0,0.0,0.0,0.0,0.0,0.0,0.0,0.0,0.0,0.0,0.0,0.0,0.0,0.0,0.0,0.0,0.0,0.0,0.0,0.0,0.0,0.0,0.0,0.0,0.0,0.0,0.0,0.0,0.0,0.0,0.0,0.0,0.0,0.0,0.0,-1.389,-1.484,-1.5621,-1.5446,-1.5307,-1.5329,0.0,0.0,0.0,0.0,0.0,0.0,0.0,0.0,0.0,0.0,0.0,0.0,0.0,0.0,0.0,0.0,0.0,0.0,0.0,0.0,0.0,0.0,0.0,0.0,0.0,0.0,0.0,0.0,0.0,0.0,0.0,0.0,0.0,0.0,0.0,0.0,0.0,0.0,0.0,0.0,0.0,0.0,0.0,0.0,0.0,0.0,0.0,0.0,0.0,0.0,0.0,0.0,0.0,0.0,0.0,0.0,0.0,0.0,0.0,0.0,0.0,0.0,0.0,0.0,0.0,0.0,0.0,0.0,0.0,0.0,0.0,0.0,0.0,0.0,0.0,0.0,0.0,0.0,0.0,0.0,0.0,0.0,0.0,0.0,0.0,0.0,0.0,0.0,0.0,0.0,0.0,0.0,0.0,0.0,0.0,0.0,0.0,0.0,0.0,0.0,0.0,0.0,0.0,0.0,0.0,0.0,0.0,0.0,-1.2834,-1.4486,-1.5766,-1.6601,-1.5851,-1.541,0.0,0.0,0.0,0.0,0.0,0.0,0.0,0.0,0.0,0.0,0.0,0.0,0.0,0.0,0.0,0.0,0.0,0.0,0.0,0.0,0.0,0.0,0.0,0.0,0.0,0.0,0.0,0.0,0.0,0.0,0.0,0.0,0.0,0.0,0.0,0.0,0.0,0.0,0.0,0.0,0.0,0.0,0.0,0.0,0.0,0.0,0.0,0.0,0.0,0.0,0.0,0.0,0.0,0.0,0.0,0.0,0.0,0.0,0.0,0.0,0.0,0.0,0.0,0.0,0.0,0.0,0.0,0.0,0.0,0.0,0.0,0.0,0.0,0.0,0.0,0.0,0.0,0.0,0.0,0.0,0.0,0.0,0.0,0.0,0.0,0.0,0.0,0.0,0.0,0.0,0.0,0.0,0.0,0.0,0.0,0.0,0.0,0.0,0.0,0.0,0.0,0.0,0.0,0.0,0.0,0.0,0.0,0.0,0.0,-1.4504,-1.6646,-1.7979,-1.8264,-1.7493,-1.6523,0.0,0.0,0.0,0.0,0.0,0.0,0.0,0.0,0.0,0.0,0.0,0.0,0.0,0.0,0.0,0.0,0.0,0.0,0.0,0.0,0.0,0.0,0.0,0.0,0.0,0.0,0.0,0.0,0.0,0.0,0.0,0.0,0.0,0.0,0.0,0.0,0.0,0.0,0.0,0.0,0.0,0.0,0.0,0.0,0.0,0.0,0.0,0.0,0.0,0.0,0.0,0.0,0.0,0.0,0.0,0.0,0.0,0.0,0.0,0.0,0.0,0.0,0.0,0.0,0.0,0.0,0.0,0.0,0.0,0.0,0.0,0.0,0.0,0.0,0.0,0.0,0.0,0.0,0.0,0.0,0.0,0.0,0.0,0.0,0.0,0.0,0.0,0.0,0.0,0.0,0.0,0.0,0.0,0.0,0.0,0.0,0.0,0.0,0.0,0.0,0.0,0.0,0.0,0.0,0.0,0.0,0.0,0.0,0.0,-1.7416,-1.9695,-2.1028,-2.1223,-2.0223,-1.8709,0.0,0.0,0.0,0.0,0.0,0.0,0.0,0.0,0.0,0.0,0.0,0.0,0.0,0.0,0.0,0.0,0.0,0.0,0.0,0.0,0.0,0.0,0.0,0.0,0.0,0.0,0.0,0.0,0.0,0.0,0.0,0.0,0.0,0.0,0.0,0.0,0.0,0.0,0.0,0.0,0.0,0.0,0.0,0.0,0.0,0.0,0.0,0.0,0.0,0.0,0.0,0.0,0.0,0.0,0.0,0.0,0.0,0.0,0.0,0.0,0.0,0.0,0.0,0.0,0.0,0.0,0.0,0.0,0.0,0.0,0.0,0.0,0.0,0.0,0.0,0.0,0.0,0.0,0.0,0.0,0.0,0.0,0.0,0.0,0.0,0.0,0.0,0.0,0.0,0.0,0.0,0.0,0.0,0.0,0.0,0.0,0.0,0.0,0.0,0.0,0.0,0.0,0.0,0.0,0.0,0.0,0.0,0.0,-1.6755,-2.1618,-2.3582,-2.4944,-2.5579,-2.4062,-2.1913,0.0,0.0,0.0,0.0,0.0,0.0,0.0,0.0,0.0,0.0,0.0,0.0,0.0,0.0,0.0,0.0,0.0,0.0,0.0,0.0,0.0,0.0,0.0,0.0,0.0,0.0,0.0,0.0,0.0,0.0,0.0,0.0,0.0,0.0,0.0,0.0,0.0,0.0,0.0,0.0,0.0,0.0,0.0,0.0,0.0,0.0,0.0,0.0,0.0,0.0,0.0,0.0,0.0,0.0,0.0,0.0,0.0,0.0,0.0,0.0,0.0,0.0,0.0,0.0,0.0,0.0,0.0,0.0,0.0,0.0,0.0,0.0,0.0,0.0,0.0,0.0,0.0,0.0,0.0,0.0,0.0,0.0,0.0,0.0,0.0,0.0,0.0,0.0,0.0,0.0,0.0,0.0,0.0,0.0,0.0,0.0,0.0,0.0,0.0,0.0,0.0,0.0,0.0,0.0,0.0,0.0,0.0,0.0,0.0,-2.5286,-2.8625,-3.0559,-3.082,-2.8689,-2.546,0.0,0.0,0.0,0.0,0.0,0.0,0.0,0.0,0.0,0.0,0.0,0.0,0.0,0.0,0.0,0.0,0.0,0.0,0.0,0.0,0.0,0.0,0.0,0.0,0.0,0.0,0.0,0.0,0.0,0.0,0.0,0.0,0.0,0.0,0.0,0.0,0.0,0.0,0.0,0.0,0.0,0.0,0.0,0.0,0.0,0.0,0.0,0.0,0.0,0.0,0.0,0.0,0.0,0.0,0.0,0.0,0.0,0.0,0.0,0.0,0.0,0.0,0.0,0.0,0.0,0.0,0.0,0.0,0.0,0.0,0.0,0.0,0.0,0.0,0.0,0.0,0.0,0.0,0.0,0.0,0.0,0.0,0.0,0.0,0.0,0.0,0.0,0.0,0.0,0.0,0.0,0.0,0.0,0.0,0.0,0.0,0.0,0.0,0.0,0.0,0.0,0.0,0.0,0.0,0.0,0.0,0.0,0.0,0.0,-3.1607,-3.4486,-3.6029,-3.6133,-3.3652,-2.9626,-2.3906,0.0,0.0,0.0,0.0,0.0,0.0,0.0,0.0,0.0,0.0,0.0,0.0,0.0,0.0,0.0,0.0,0.0,0.0,0.0,0.0,0.0,0.0,0.0,0.0,0.0,0.0,0.0,0.0,0.0,0.0,0.0,0.0,0.0,0.0,0.0,0.0,0.0,0.0,0.0,0.0,0.0,0.0,0.0,0.0,0.0,0.0,0.0,0.0,0.0,0.0,0.0,0.0,0.0,0.0,0.0,0.0,0.0,0.0,0.0,0.0,0.0,0.0,0.0,0.0,0.0,0.0,0.0,0.0,0.0,0.0,0.0,0.0,0.0,0.0,0.0,0.0,0.0,0.0,0.0,0.0,0.0,0.0,0.0,0.0,0.0,0.0,0.0,0.0,0.0,0.0,0.0,0.0,0.0,0.0,0.0,0.0,0.0,0.0,0.0,0.0,0.0,0.0,0.0,0.0,0.0,0.0,0.0,0.0,-3.979,-4.0848,-4.1335,-4.1201,-3.8667,-3.4108,0.0,0.0,0.0,0.0,0.0,0.0,0.0,0.0,0.0,0.0,0.0,0.0,0.0,0.0,0.0,0.0,0.0,0.0,0.0,0.0,0.0,0.0,0.0,0.0,0.0,0.0,0.0,0.0,0.0,0.0,0.0,0.0,0.0,0.0,0.0,0.0,0.0,0.0,0.0,0.0,0.0,0.0,0.0,0.0,0.0,0.0,0.0,0.0,0.0,0.0,0.0,0.0,0.0,0.0,0.0,0.0,0.0,0.0,0.0,0.0,0.0,0.0,0.0,0.0,0.0,0.0,0.0,0.0,0.0,0.0,0.0,0.0,0.0,0.0,0.0,0.0,0.0,0.0,0.0,0.0,0.0,0.0,0.0,0.0,0.0,0.0,0.0,0.0,0.0,0.0,0.0,0.0,0.0,0.0,0.0,0.0,0.0,0.0,0.0,0.0,0.0,0.0,0.0,0.0,0.0,0.0,0.0,0.0,0.0,-4.3105,-4.6551,-4.7378,-4.5559,-4.1894,-3.6696,0.0,0.0,0.0,0.0,0.0,0.0,0.0,0.0,0.0,0.0,0.0,0.0,0.0,0.0,0.0,0.0,0.0,0.0,0.0,0.0,0.0,0.0,0.0,0.0,0.0,0.0,0.0,0.0,0.0,0.0,0.0,0.0,0.0,0.0,0.0,0.0,0.0,0.0,0.0,0.0,0.0,0.0,0.0,0.0,0.0,0.0,0.0,0.0,0.0,0.0,0.0,0.0,0.0,0.0,0.0,0.0,0.0,0.0,0.0,0.0,0.0,0.0,0.0,0.0,0.0,0.0,0.0,0.0,0.0,0.0,0.0,0.0,0.0,0.0,0.0,0.0,0.0,0.0,0.0,0.0,0.0,0.0,0.0,0.0,0.0,0.0,0.0,0.0,0.0,0.0,0.0,0.0,0.0,0.0,0.0,0.0,0.0,0.0,0.0,0.0,0.0,0.0,0.0,0.0,0.0,0.0,0.0,0.0,-4.0836,-4.6056,-5.0371,-5.1383,-4.8865,-4.4715,-3.8992,0.0,0.0,0.0,0.0,0.0,0.0,0.0,0.0,0.0,0.0,0.0,0.0,0.0,0.0,0.0,0.0,0.0,0.0,0.0,0.0,0.0,0.0,0.0,0.0,0.0,0.0,0.0,0.0,0.0,0.0,0.0,0.0,0.0,0.0,0.0,0.0,0.0,0.0,0.0,0.0,0.0,0.0,0.0,0.0,0.0,0.0,0.0,0.0,0.0,0.0,0.0,0.0,0.0,0.0,0.0,0.0,0.0,0.0,0.0,0.0,0.0,0.0,0.0,0.0,0.0,0.0,0.0,0.0,0.0,0.0,0.0,0.0,0.0,0.0,0.0,0.0,0.0,0.0,0.0,0.0,0.0,0.0,0.0,0.0,0.0,0.0,0.0,0.0,0.0,0.0,0.0,0.0,0.0,0.0,0.0,0.0,0.0,0.0,0.0,0.0,0.0,0.0,0.0,0.0,0.0,0.0,0.0,0.0,-4.4161,-4.8369,-5.267,-5.3698,-5.1178,-4.6973,-4.0835,0.0,0.0,0.0,0.0,0.0,0.0,0.0,0.0,0.0,0.0,0.0,0.0,0.0,0.0,0.0,0.0,0.0,0.0,0.0,0.0,0.0,0.0,0.0,0.0,0.0,0.0,0.0,0.0,0.0,0.0,0.0,0.0,0.0,0.0,0.0,0.0,0.0,0.0,0.0,0.0,0.0,0.0,0.0,0.0,0.0,0.0,0.0,0.0,0.0,0.0,0.0,0.0,0.0,0.0,0.0,0.0,0.0,0.0,0.0,0.0,0.0,0.0,0.0,0.0,0.0,0.0,0.0,0.0,0.0,0.0,0.0,0.0,0.0,0.0,0.0,0.0,0.0,0.0,0.0,0.0,0.0,0.0,0.0,0.0,0.0,0.0,0.0,0.0,0.0,0.0,0.0,0.0,0.0,0.0,0.0,0.0,0.0,0.0,0.0,0.0,0.0,0.0,0.0,0.0,0.0,0.0,0.0,0.0,-4.5104,-4.9305,-5.2995,-5.3998,-5.2136,-4.7295,-4.1354,0.0,0.0,0.0,0.0,0.0,0.0,0.0,0.0,0.0,0.0,0.0,0.0,0.0,0.0,0.0,0.0,0.0,0.0,0.0,0.0,0.0,0.0,0.0,0.0,0.0,0.0,0.0,0.0,0.0,0.0,0.0,0.0,0.0,0.0,0.0,0.0,0.0,0.0,0.0,0.0,0.0,0.0,0.0,0.0,0.0,0.0,0.0,0.0,-1.7003,0.0,0.0,0.0,0.0,0.0,0.0,0.0,0.0,0.0,0.0,0.0,0.0,0.0,0.0,0.0,0.0,0.0,0.0,0.0,0.0,0.0,0.0,0.0,0.0,0.0,0.0,0.0,0.0,0.0,0.0,0.0,0.0,0.0,0.0,0.0,0.0,0.0,0.0,0.0,0.0,0.0,0.0,0.0,0.0,0.0,0.0,0.0,0.0,0.0,0.0,0.0,0.0,0.0,0.0,0.0,0.0,0.0,0.0,0.0,-4.6931,-5.0742,-5.3871,-5.4449,-5.2305,-4.8114,-4.2519,0.0,0.0,0.0,0.0,0.0,0.0,0.0,0.0,0.0,0.0,0.0,0.0,0.0,0.0,0.0,0.0,0.0,0.0,0.0,0.0,0.0,0.0,0.0,0.0,0.0,0.0,0.0,0.0,0.0,0.0,0.0,0.0,0.0,0.0,0.0,0.0,0.0,0.0,0.0,0.0,0.0,0.0,0.0,0.0,0.0,0.0,0.0,0.0,0.0,0.0,0.0,0.0,0.0,0.0,0.0,0.0,0.0,0.0,0.0,0.0,0.0,0.0,0.0,0.0,0.0,0.0,0.0,0.0,0.0,0.0,0.0,0.0,0.0,0.0,0.0,0.0,0.0,0.0,0.0,0.0,0.0,0.0,0.0,0.0,0.0,0.0,0.0,0.0,0.0,0.0,0.0,0.0,0.0,0.0,0.0,0.0,0.0,0.0,0.0,0.0,0.0,0.0,0.0,0.0,0.0,0.0,0.0,-4.3231,-4.8717,-5.2061,-5.4707,-5.4963,-5.2521,-4.9162,-4.3917,-3.6534,0.0,0.0,0.0,0.0,0.0,0.0,0.0,0.0,0.0,0.0,0.0,0.0,0.0,0.0,0.0,0.0,0.0,0.0,0.0,0.0,0.0,0.0,0.0,0.0,0.0,0.0,0.0,0.0,0.0,0.0,0.0,0.0,0.0,0.0,0.0,0.0,0.0,0.0,-1.8313,-2.1225,0.0,0.0,0.0,0.0,0.0,0.0,0.0,0.0,-1.9601,0.0,0.0,0.0,0.0,0.0,0.0,0.0,0.0,0.0,0.0,0.0,0.0,0.0,0.0,0.0,0.0,0.0,0.0,0.0,0.0,0.0,0.0,0.0,0.0,0.0,0.0,0.0,0.0,0.0,0.0,0.0,0.0,0.0,0.0,0.0,0.0,0.0,0.0,0.0,0.0,0.0,0.0,0.0,0.0,0.0,0.0,0.0,0.0,0.0,0.0,0.0,0.0,0.0,0.0,0.0,0.0,-3.6714,-4.3515,-4.8717,-5.2128,-5.4697,-5.5172,-5.3374,-4.9998,-4.4976,-3.8179,0.0,0.0,0.0,0.0,0.0,0.0,0.0,0.0,0.0,0.0,0.0,0.0,0.0,0.0,0.0,0.0,0.0,0.0,0.0,0.0,0.0,0.0,0.0,0.0,0.0,0.0,0.0,0.0,0.0,0.0,0.0,0.0,0.0,0.0,0.0,0.0,0.0,0.0,0.0,-2.4358,-2.5986,0.0,0.0,0.0,0.0,0.0,0.0,0.0,0.0,-2.1692,0.0,0.0,0.0,0.0,0.0,0.0,0.0,0.0,0.0,0.0,0.0,0.0,0.0,0.0,0.0,0.0,0.0,0.0,0.0,0.0,0.0,0.0,0.0,0.0,0.0,0.0,0.0,0.0,0.0,0.0,0.0,0.0,0.0,0.0,0.0,0.0,0.0,0.0,0.0,0.0,0.0,0.0,0.0,0.0,0.0,0.0,0.0,0.0,0.0,0.0,0.0,0.0,0.0,0.0,0.0,-3.8926,-4.5195,-5.0062,-5.3459,-5.5161,-5.5216,-5.3561,-5.0186,-4.5221,0.0,0.0,0.0,0.0,0.0,0.0,0.0,0.0,0.0,0.0,0.0,0.0,0.0,0.0,0.0,0.0,0.0,0.0,0.0,0.0,0.0,0.0,0.0,0.0,0.0,0.0,0.0,0.0,0.0,0.0,0.0,0.0,0.0,0.0,0.0,0.0,0.0,0.0,0.0,0.0,-2.7091,-2.879,-2.9142,0.0,0.0,0.0,0.0,0.0,0.0,-2.5984,-2.4789,0.0,0.0,0.0,0.0,0.0,0.0,0.0,0.0,0.0,0.0,0.0,0.0,0.0,0.0,0.0,0.0,0.0,0.0,0.0,0.0,0.0,0.0,0.0,0.0,0.0,0.0,0.0,0.0,0.0,0.0,0.0,0.0,0.0,0.0,0.0,0.0,0.0,0.0,0.0,0.0,0.0,0.0,0.0,0.0,0.0,0.0,0.0,0.0,0.0,0.0,0.0,0.0,0.0,0.0,0.0,-4.1052,-4.6756,-5.1315,-5.4658,-5.5586,-5.52,-5.3498,-5.0155,-4.5195,0.0,0.0,0.0,0.0,0.0,0.0,0.0,0.0,0.0,0.0,0.0,0.0,0.0,0.0,0.0,0.0,0.0,0.0,0.0,0.0,0.0,0.0,0.0,0.0,0.0,0.0,0.0,0.0,0.0,0.0,0.0,0.0,0.0,0.0,0.0,0.0,0.0,0.0,0.0,0.0,0.0,-3.1036,-3.2045,-3.2154,0.0,0.0,0.0,0.0,-3.0304,-2.9512,0.0,0.0,0.0,0.0,0.0,0.0,0.0,0.0,0.0,0.0,0.0,0.0,0.0,0.0,0.0,0.0,0.0,0.0,0.0,0.0,0.0,0.0,0.0,0.0,0.0,0.0,0.0,0.0,0.0,0.0,0.0,0.0,0.0,0.0,0.0,0.0,0.0,0.0,0.0,0.0,0.0,0.0,0.0,0.0,0.0,0.0,0.0,0.0,0.0,0.0,0.0,0.0,0.0,0.0,0.0,0.0,-4.1789,-4.6946,-5.1228,-5.4619,-5.5586,-5.52,-5.3498,-5.0107,-4.5124,0.0,0.0,0.0,0.0,0.0,0.0,0.0,0.0,0.0,0.0,0.0,0.0,0.0,0.0,0.0,0.0,0.0,0.0,0.0,0.0,0.0,0.0,0.0,0.0,0.0,0.0,0.0,0.0,0.0,0.0,0.0,0.0,0.0,0.0,0.0,0.0,0.0,0.0,0.0,0.0,0.0,-3.216,-3.3632,-3.4452,-3.4808,0.0,0.0,-3.4677,-3.5341,-3.4158,0.0,0.0,0.0,0.0,0.0,0.0,0.0,0.0,0.0,0.0,0.0,0.0,0.0,0.0,0.0,0.0,0.0,0.0,0.0,0.0,0.0,0.0,0.0,0.0,0.0,0.0,0.0,0.0,0.0,0.0,0.0,0.0,0.0,0.0,0.0,0.0,0.0,0.0,0.0,0.0,0.0,0.0,0.0,0.0,0.0,0.0,0.0,0.0,0.0,0.0,0.0,0.0,0.0,0.0,0.0,-3.5863,-4.3419,-4.8034,-5.1995,-5.5354,-5.5818,-5.52,-5.3536,-5.0107,-4.5341,0.0,0.0,0.0,0.0,0.0,0.0,0.0,0.0,0.0,0.0,0.0,0.0,0.0,0.0,0.0,0.0,0.0,0.0,0.0,0.0,0.0,0.0,0.0,0.0,0.0,0.0,0.0,0.0,0.0,0.0,0.0,0.0,0.0,0.0,0.0,0.0,0.0,0.0,0.0,0.0,0.0,0.0,-3.6138,-3.7885,0.0,0.0,0.0,-3.8929,-3.9204,0.0,0.0,0.0,0.0,0.0,0.0,0.0,0.0,0.0,0.0,0.0,0.0,0.0,0.0,0.0,0.0,0.0,0.0,0.0,0.0,0.0,0.0,0.0,0.0,0.0,0.0,0.0,0.0,0.0,0.0,0.0,0.0,0.0,0.0,0.0,0.0,0.0,0.0,0.0,0.0,0.0,0.0,0.0,0.0,0.0,0.0,0.0,0.0,0.0,0.0,0.0,0.0,0.0,0.0,0.0,0.0,0.0,-4.4594,-4.8783,-5.2569,-5.5857,-5.6012,-5.5277,-5.3807,-5.0417,0.0,0.0,0.0,0.0,0.0,0.0,0.0,0.0,0.0,0.0,0.0,0.0,0.0,0.0,0.0,0.0,0.0,0.0,0.0,0.0,0.0,0.0,0.0,0.0,0.0,0.0,0.0,-1.3302,0.0,0.0,0.0,0.0,0.0,0.0,0.0,0.0,0.0,0.0,0.0,0.0,0.0,0.0,-3.6357,-3.8697,-4.0974,-4.2225,0.0,0.0,-4.2885,-4.2776,-4.1858,-4.0311,0.0,0.0,0.0,0.0,0.0,0.0,0.0,0.0,0.0,0.0,0.0,0.0,0.0,0.0,0.0,0.0,0.0,0.0,0.0,0.0,0.0,0.0,0.0,0.0,0.0,0.0,0.0,0.0,-1.5141,0.0,0.0,0.0,0.0,0.0,0.0,0.0,0.0,0.0,0.0,0.0,0.0,0.0,0.0,0.0,0.0,0.0,0.0,0.0,0.0,0.0,0.0,0.0,0.0,0.0,-3.7017,-4.4517,-4.8783,-5.2569,-5.5857,-5.6012,-5.5586,-5.4697,-5.1266,-4.7008,0.0,0.0,0.0,0.0,0.0,0.0,0.0,0.0,0.0,0.0,0.0,0.0,0.0,0.0,0.0,0.0,0.0,0.0,0.0,0.0,0.0,0.0,0.0,0.0,0.0,0.0,0.0,0.0,0.0,0.0,0.0,0.0,0.0,0.0,0.0,0.0,0.0,0.0,0.0,0.0,0.0,-3.6901,-4.0969,-4.3025,-4.4338,0.0,-4.5841,-4.6378,-4.6199,-4.4842,-4.2929,-4.0291,0.0,0.0,0.0,0.0,0.0,0.0,0.0,0.0,0.0,0.0,0.0,0.0,0.0,0.0,0.0,0.0,0.0,0.0,0.0,0.0,0.0,0.0,0.0,0.0,0.0,-1.6806,-1.6502,0.0,-1.6111,0.0,0.0,0.0,0.0,0.0,0.0,0.0,0.0,0.0,0.0,0.0,0.0,0.0,0.0,0.0,0.0,0.0,0.0,0.0,0.0,0.0,0.0,0.0,0.0,-3.725,-4.537,-4.9054,-5.2569,-5.5818,-5.6012,-5.5625,-5.4813,-5.1885,-4.8381,0.0,0.0,0.0,0.0,0.0,0.0,0.0,0.0,0.0,0.0,0.0,0.0,0.0,0.0,0.0,0.0,0.0,0.0,0.0,0.0,0.0,0.0,0.0,0.0,0.0,0.0,0.0,0.0,-1.9896,-2.0165,-1.9134,0.0,0.0,0.0,0.0,0.0,0.0,0.0,0.0,0.0,0.0,-4.0224,-4.2958,-4.524,0.0,0.0,-4.7835,-4.8431,-4.8337,-4.7338,-4.5669,-4.3006,-3.8746,0.0,0.0,0.0,0.0,0.0,0.0,0.0,0.0,0.0,0.0,0.0,0.0,0.0,0.0,0.0,0.0,0.0,0.0,0.0,0.0,0.0,0.0,0.0,0.0,0.0,0.0,0.0,0.0,0.0,0.0,0.0,0.0,0.0,0.0,0.0,0.0,0.0,0.0,0.0,0.0,0.0,0.0,0.0,0.0,0.0,0.0,0.0,0.0,0.0,0.0,0.0,0.0,-3.7957,-4.5914,-4.9495,-5.2917,-5.6321,-5.6399,-5.6244,-5.5896,-5.337,-5.0482,0.0,0.0,0.0,0.0,0.0,0.0,0.0,0.0,0.0,0.0,0.0,0.0,0.0,0.0,0.0,0.0,0.0,0.0,0.0,0.0,0.0,0.0,0.0,0.0,0.0,0.0,0.0,0.0,-2.1597,-2.1305,-1.9586,0.0,0.0,0.0,0.0,0.0,0.0,0.0,0.0,0.0,0.0,-4.2795,-4.5054,-4.7165,-4.8605,-4.8856,-4.9412,-4.9795,-4.9489,-4.8702,-4.7165,-4.4557,0.0,0.0,0.0,0.0,0.0,0.0,0.0,0.0,0.0,0.0,0.0,0.0,0.0,0.0,0.0,0.0,0.0,0.0,0.0,0.0,0.0,0.0,0.0,0.0,0.0,0.0,0.0,-2.0305,0.0,0.0,-1.9031,0.0,0.0,0.0,0.0,0.0,0.0,0.0,0.0,0.0,0.0,0.0,0.0,0.0,0.0,0.0,0.0,0.0,0.0,0.0,0.0,0.0,0.0,-3.9131,-4.5914,-5.0076,-5.3807,-5.7134,-5.7288,-5.7637,-5.8372,-5.6051,-5.3426,-5.0653,0.0,0.0,0.0,0.0,0.0,0.0,0.0,0.0,0.0,0.0,0.0,0.0,0.0,0.0,0.0,0.0,0.0,0.0,0.0,0.0,0.0,0.0,0.0,0.0,0.0,0.0,-2.2771,-2.2747,-2.2084,0.0,0.0,0.0,0.0,0.0,0.0,0.0,0.0,0.0,-3.8001,-4.1013,-4.3978,-4.7315,-4.8662,-4.9624,-5.051,-5.0664,-5.0394,-4.9586,-4.8702,-4.7203,0.0,0.0,0.0,0.0,0.0,0.0,0.0,0.0,0.0,0.0,0.0,0.0,0.0,0.0,0.0,0.0,0.0,0.0,0.0,0.0,0.0,0.0,0.0,0.0,0.0,0.0,0.0,-2.5138,-2.5011,0.0,0.0,0.0,0.0,0.0,0.0,0.0,0.0,0.0,0.0,0.0,-3.8061,-3.8093,0.0,0.0,0.0,0.0,0.0,0.0,0.0,0.0,0.0,0.0,0.0,0.0,-3.9976,-4.669,-5.0928,-5.4426,-5.7211,-5.7869,-5.8294,-5.8565,-5.7211,-5.4431,-5.004,0.0,0.0,0.0,0.0,0.0,0.0,0.0,0.0,0.0,0.0,0.0,0.0,0.0,0.0,0.0,0.0,0.0,0.0,0.0,0.0,0.0,0.0,0.0,0.0,0.0,-2.5236,0.0,0.0,0.0,0.0,0.0,0.0,0.0,0.0,0.0,0.0,0.0,-3.7584,-4.0977,-4.3999,-4.6786,-4.9226,-5.0237,-5.1117,0.0,0.0,0.0,0.0,0.0,0.0,0.0,0.0,0.0,0.0,0.0,0.0,0.0,0.0,-3.5478,-3.0399,-2.9963,-3.005,-2.8919,0.0,0.0,0.0,0.0,0.0,0.0,0.0,0.0,0.0,0.0,0.0,0.0,0.0,0.0,-3.0579,-3.0449,-2.8812,0.0,0.0,0.0,0.0,0.0,0.0,0.0,0.0,-3.8727,-4.119,-4.3687,-4.344,-4.3366,0.0,-4.2497,-3.9548,0.0,0.0,0.0,0.0,0.0,0.0,0.0,0.0,-4.2322,-4.8451,-5.2423,-5.5625,-5.8101,-5.8758,-5.9184,-5.9416,-5.8062,-5.5281,-5.1018,-4.687,-4.2424,0.0,0.0,0.0,0.0,0.0,0.0,0.0,0.0,0.0,0.0,0.0,0.0,0.0,0.0,0.0,0.0,0.0,0.0,0.0,0.0,0.0,0.0,0.0,-2.7682,0.0,0.0,0.0,0.0,0.0,0.0,0.0,0.0,0.0,-3.4045,-3.7895,-4.1703,-4.4569,-4.7251,-4.9501,-5.1056,0.0,0.0,0.0,0.0,0.0,0.0,0.0,-5.1561,-5.0717,-4.989,-4.9324,-4.9463,-4.8678,-4.7692,-4.6615,0.0,0.0,-3.7717,-3.6711,-3.6698,-3.5652,-3.6462,-3.7343,-3.7343,-3.8554,-3.9795,0.0,0.0,0.0,0.0,0.0,0.0,0.0,0.0,-3.6611,-3.6667,0.0,-3.4823,0.0,0.0,0.0,0.0,0.0,-3.5576,0.0,0.0,-4.4985,-4.7457,-4.9058,-4.9656,-4.9549,-4.892,-4.8764,-4.7894,-4.5899,-3.8308,0.0,0.0,0.0,0.0,0.0,0.0,-4.6048,-5.0995,-5.4381,-5.7327,-5.9803,-5.9957,-6.0344,-6.1041,-5.872,-5.6283,-5.3691,-5.0177,-4.6331,-4.2241,-3.8476,0.0,0.0,0.0,0.0,0.0,0.0,0.0,0.0,0.0,0.0,0.0,0.0,0.0,0.0,0.0,0.0,0.0,0.0,0.0,0.0,-3.0087,0.0,0.0,0.0,0.0,0.0,0.0,0.0,0.0,0.0,0.0,-3.9523,-4.2144,-4.5306,-4.8678,0.0,0.0,0.0,0.0,-5.4268,-5.4193,-5.4919,-5.5186,-5.4346,-5.4243,-5.4049,-5.3338,0.0,0.0,-5.5271,-5.5189,-5.4663,-5.3777,-5.4,-5.2398,-4.537,-4.4046,-4.3848,-4.3608,-4.416,-4.4821,-4.4967,-4.5882,-4.6898,-4.3907,0.0,0.0,0.0,0.0,-3.9288,-4.0675,-4.2443,-4.2412,-4.273,-4.3123,-4.0783,0.0,0.0,0.0,0.0,0.0,0.0,-4.4133,-4.7894,-4.9499,-5.1408,-5.3527,-5.362,-5.3541,-5.3259,-5.3101,-5.2424,-5.1194,-4.8424,-4.4379,-3.9155,0.0,0.0,0.0,0.0,-4.9523,-5.2816,-5.6162,-5.8797,-6.0731,-6.135,-6.1814,-6.2008,-6.0731,-5.9106,-5.7172,-5.4392,-5.1387,-4.8179,-4.4778,0.0,0.0,0.0,0.0,0.0,0.0,0.0,0.0,0.0,0.0,0.0,0.0,0.0,0.0,0.0,0.0,0.0,0.0,0.0,-3.3353,-3.4403,-3.4057,0.0,0.0,0.0,0.0,0.0,0.0,0.0,0.0,0.0,-4.7799,-4.7834,-4.8503,0.0,0.0,-5.3608,-5.446,-5.5663,-5.6721,-5.7472,-5.8262,0.0,-5.7877,-5.7813,-5.7723,-5.7551,-5.854,-5.9463,-5.9596,-5.9444,-5.9051,-5.8186,-5.8027,-5.7294,-5.535,-5.2295,-5.0213,-4.9586,-5.0443,-5.1411,-5.156,-5.2642,-5.372,-5.0698,-4.6404,-4.3818,-4.3275,-4.4204,-4.5109,-4.6449,-4.8081,-4.8414,-4.8808,-4.9125,-4.7136,-4.5445,-4.4004,-4.2701,0.0,0.0,0.0,-4.9663,-5.3126,-5.3887,-5.5462,-5.752,-5.7454,-5.7162,-5.683,-5.6902,-5.6459,-5.5534,-5.5169,-5.2802,-4.8487,0.0,0.0,-4.7356,-5.0488,-5.342,-5.6062,-5.8738,-6.077,-6.2085,-6.2627,-6.2897,-6.2897,-6.2085,-6.0963,-5.9609,-5.7482,-5.5204,-5.2818,-4.9774,-4.6257,0.0,0.0,0.0,0.0,0.0,0.0,0.0,0.0,0.0,0.0,0.0,-2.1272,-2.2125,0.0,0.0,0.0,-3.2045,-3.5283,-3.7738,-3.8753,0.0,0.0,0.0,0.0,0.0,0.0,0.0,-4.5128,-4.7898,-5.0734,-5.3859,-5.3689,-5.3541,-5.4276,-5.5384,-5.641,-5.7251,0.0,-5.9824,-6.0387,-6.1416,-6.2048,-6.1707,-6.1649,-6.1781,-6.2169,-6.2892,-6.355,-6.3829,-6.3702,-6.3296,-6.2542,-6.1946,-6.1536,-6.1193,-5.8672,-5.6206,-5.4945,-5.5658,-5.6556,-5.6593,-5.7604,-5.8539,-5.6244,-5.5109,-5.0279,-4.8682,-4.939,-5.0397,-5.1714,-5.3238,-5.4081,-5.4526,-5.4426,-5.3263,-5.1444,-4.93,-4.8709,0.0,-5.0735,-5.2708,-5.4975,-5.7443,-5.8187,-5.9502,-6.1173,-6.102,-6.0503,-5.9734,-6.0185,-6.0046,-5.9302,-5.9235,-5.9197,-5.9054,-5.3849,-5.2043,-5.3705,-5.5381,-5.7505,-6.0074,-6.166,-6.2936,-6.3787,-6.3864,-6.3864,-6.3787,-6.3013,-6.2201,-6.1311,-5.9764,-5.8139,-5.6437,-5.3802,-5.0818,-4.7409,0.0,0.0,0.0,0.0,0.0,0.0,0.0,0.0,0.0,0.0,0.0,0.0,0.0,0.0,-3.2288,-3.7676,0.0,-4.2223,-4.325,0.0,0.0,0.0,-4.3227,-4.49,-4.6417,-4.8586,-5.1929,0.0,0.0,-5.8218,-5.9388,-5.9781,-5.9088,-5.9473,-6.0056,-6.0698,-6.2174,-6.3227,-6.3016,-6.4356,-6.5384,-6.5188,-6.529,-6.5581,-6.6338,-6.6721,-6.6812,-6.7338,-6.7385,-6.7087,-6.6141,-6.5535,-6.4815,-6.406,-6.3113,-6.2135,-6.0041,-6.0113,-6.0563,-6.0714,-6.1314,-6.1839,-5.8119,-5.7213,-5.6012,-5.4901,-5.391,-5.4848,-5.5508,-5.593,-5.6736,-5.7081,-5.7043,-5.6116,-5.497,-5.3785,-5.4364,-5.5224,-5.6329,-5.7559,-5.9204,-6.106,-6.1311,-6.1988,-6.3013,-6.2866,-6.266,-6.2467,-6.2427,-6.2213,-6.1849,-6.1917,-6.1878,-6.1743,-6.0533,-5.923,-5.8094,-5.9733,-6.0976,-6.1814,-6.2859,-6.3787,-6.4677,-6.5296,-6.5296,-6.4715,-6.4483,-6.398,-6.3091,-6.2046,-6.1002,-5.9919,-5.8026,-5.5382,-5.1894,-4.7492,0.0,0.0,0.0,0.0,0.0,0.0,0.0,0.0,0.0,-2.8512,-3.0639,0.0,-3.5247,0.0,-4.3201,-4.6677,-4.745,-4.8911,0.0,0.0,-4.9073,-4.9809,-5.0778,-5.2341,-5.4149,-5.6332,-5.8667,-6.0584,-6.1887,-6.3411,-6.4551,-6.4897,-6.3399,-6.2528,-6.3312,-6.4717,-6.5696,-6.5747,-6.651,-6.7196,-6.7261,-6.7261,-6.7528,-6.8297,-6.8361,-6.837,-6.8519,-6.8411,-6.8034,-6.7277,-6.6936,-6.6709,-6.6482,-6.633,-6.6027,-6.5425,-6.4557,-6.399,-6.4557,-6.4859,-6.4973,-6.0965,-6.0481,-6.0586,-6.0008,-5.9078,-5.8809,-5.8715,-5.8873,-6.0068,-6.0547,-6.0487,-5.9527,-5.8755,-5.8209,-5.8842,-5.9419,-6.0025,-6.1,-6.224,-6.3555,-6.3555,-6.4213,-6.5373,-6.529,-6.5247,-6.5247,-6.537,-6.5217,-6.4737,-6.4908,-6.5009,-6.4908,-6.4921,-6.4322,-6.323,-6.3205,-6.329,-6.3515,-6.4327,-6.5005,-6.5528,-6.5953,-6.5951,-6.5423,-6.5487,-6.5041,-6.4016,-6.3706,-6.305,-6.1973,-6.0538,-5.8549,-5.6011,-5.177,-4.7809,0.0,0.0,0.0,0.0,0.0,0.0,0.0,0.0,0.0,0.0,0.0,-4.1238,-4.4557,-4.8586,-5.1336,-5.2126,-5.3764,-5.4746,-5.4645,-5.5376,-5.627,-5.7418,-5.8711,-6.0161,-6.1889,-6.3335,-6.4578,-6.5449,-6.6372,-6.7295,-6.8129,-6.6907,-6.5953,-6.6145,-6.7093,-6.7837,-6.7821,-6.8508,-6.9043,-6.9005,-6.9043,-6.9093,-6.9485,-6.95,-6.9431,-6.9357,-6.9246,-6.902,-6.8565,-6.8224,-6.7921,-6.7958,-6.7618,-6.7504,-6.7731,-6.72,-6.667,-6.6632,-6.667,-6.6594,-6.3651,-6.371,-6.369,-6.369,-6.3613,-6.2124,-6.1523,-6.1599,-6.3109,-6.3748,-6.3632,-6.2738,-6.2175,-6.1979,-6.2313,-6.248,-6.2541,-6.367,-6.4619,-6.5316,-6.547,-6.6283,-6.7676,-6.7655,-6.7655,-6.7694,-6.8197,-6.8063,-6.7383,-6.7659,-6.7821,-6.7789,-6.7669,-6.7669,-6.7744,-6.6064,-6.5164,-6.5252,-6.5908,-6.6239,-6.6204,-6.6185,-6.6102,-6.5919,-6.6157,-6.5797,-6.4715,-6.5018,-6.4617,-6.3384,-6.2166,-6.0916,-5.9549,-5.5758,-5.2533,0.0,-4.5984,0.0,0.0,0.0,0.0,0.0,0.0,0.0,0.0,-4.4959,-4.826,-5.1369,-5.3972,-5.5884,-5.6831,-5.8375,-5.9629,-6.0349,-6.1169,-6.2253,-6.3631,-6.4561,-6.5667,-6.7076,-6.7372,-6.7744,-6.8359,-6.8614,-6.8971,-6.9602,-6.9519,-6.9078,-6.8789,-6.9145,-6.9548,-6.9506,-7.0087,-7.033,-7.0266,-7.0342,-7.031,-7.0281,-7.0179,-7.0185,-7.0001,-6.9966,-6.9891,-6.9778,-6.9209,-6.8754,-6.8754,-6.8186,-6.8035,-6.8641,-6.8679,-6.8451,-6.7921,-6.7617,-6.7314,-6.3527,-6.3611,-6.369,-6.3708,-6.3783,-6.417,-6.3902,-6.3265,-6.3574,-6.3729,-6.3671,-6.3497,-6.3379,-6.3397,-6.4135,-6.4445,-6.4561,-6.6128,-6.6979,-6.7134,-6.7871,-6.8317,-6.8607,-6.8566,-6.8545,-6.8584,-6.8657,-6.8529,-6.8154,-6.8321,-6.8373,-6.8282,-6.8321,-6.8437,-6.8583,0.0,0.0,0.0,-6.7089,-6.6797,-6.6162,-6.6123,-6.6036,-6.5846,-6.6536,0.0,-6.6375,-6.643,-6.6008,-6.5043,-6.4166,0.0,0.0,0.0,0.0,0.0,0.0,0.0,0.0,0.0,0.0,0.0,-5.3168,-5.2066,-4.9778,-5.2708,-5.5621,-5.7687,-5.9579,-6.1273,-6.2791,-6.3869,-6.4537,-6.4693,-6.5423,-6.6038,-6.6358,-6.7153,-6.7845,-6.8087,-6.8756,-6.9244,-6.9436,-6.9986,-7.0409,-7.0591,-7.064,-7.0563,-7.0371,-7.0402,-7.0439,-7.0394,-7.0439,-7.0451,-7.0419,-7.0419,-7.0419,-7.0386,-7.0319,-7.0217,-7.0185,-7.0039,-6.9967,-6.9929,-6.9778,-6.9626,-6.9626,-6.9512,-6.9361,-6.9626,-6.9626,-6.9626,-6.9437,-6.8868,-6.8337,-6.4827,0.0,-6.4929,-6.4967,0.0,-6.5451,-6.5393,-6.4909,-6.4987,-6.4987,-6.4948,-6.4909,-6.4948,-6.4986,-6.5877,-6.6225,-6.6303,-6.76,-6.82,-6.8239,-6.8645,-6.9051,-6.9438,-6.9417,-6.9628,-7.0015,-7.0054,-6.9971,-6.9841,-6.9832,-6.9759,-6.9695,-6.9643,-6.9617,-6.9695,-6.9832,-6.9308,-6.8158,-6.8055,-6.7862,-6.7459,-6.7459,-6.7332,-6.7127,-6.7576,0.0,0.0,0.0,0.0,0.0,0.0,0.0,0.0,0.0,0.0,-6.0265,-5.8252,-5.7298,-5.7641,-5.7022,-5.7558,-5.9652,-6.1441,-6.0839,-5.7075,-5.9196,-6.1065,-6.1997,-6.3599,-6.4922,-6.5743,-6.6628,-6.7295,-6.7768,-6.8498,-6.9113,-6.9613,-7.0382,-7.0755,-7.0371,-7.0667,-7.0783,-7.036,-7.0602,-7.0871,-7.0898,-7.0843,-7.0853,-7.0871,-7.0843,-7.0758,-7.0708,-7.0585,-7.0522,-7.0522,-7.0419,-7.0419,-7.0386,-7.0353,-7.0289,-7.022,-7.0114,-6.9966,-6.9929,-6.9891,-6.9891,-6.9891,-6.9891,-6.9891,-6.9891,-6.9891,-6.9891,-6.9891,-6.955,-6.9096,-6.6185,-6.6224,-6.6379,-6.6417,-6.6417,-6.6611,-6.665,-6.665,0.0,0.0,0.0,-6.6611,-6.665,-6.6727,-6.7384,-6.7753,-6.7792,-6.8643,-6.903,-6.903,-6.9185,-6.9611,-7.023,-7.0208,-7.0595,-7.1253,-7.1291,-7.1291,-7.1291,-7.113,-7.1056,-7.103,-7.0832,-7.071,-7.0738,-7.1094,-7.0667,-6.9529,-6.9121,-6.8867,-6.8794,-6.8794,-6.8629,-6.8385,-6.8602,-6.8564,-6.8119,-6.8292,-6.8242,-6.7935,-6.7485,-6.7016,-6.6636,-6.5528,-6.4794,-6.4603,-6.3588,-6.3255,-6.3973,-6.3729,-6.418,-6.5743,-6.7987,-6.7628,-6.3715,-6.4845,-6.5782,-6.5936,-6.7205,-6.8052,-6.8244,-6.8859,-6.959,-7.0294,-7.0975,-7.1629,-7.2349,-7.3053,-7.3053,-7.258,-7.236,-7.2168,-7.1514,-7.1381,-7.1276,-7.1332,-7.143,-7.1218,-7.1294,-7.1294,-7.1227,-7.1363,-7.1329,-7.1083,-7.0821,-7.0789,-7.061,-7.0457,-7.0353,-7.0324,-7.022,-7.0114,-7.0041,-6.9929,-6.9891,-6.9891,-6.9891,-6.9891,-6.9891,-6.9891,-6.9891,-6.9891,-6.9891,-6.9891,-6.9626,-6.6224,-6.6263,-6.6998,-6.7307,-6.7384,-6.8119,-6.8468,-6.839,-6.7655,-6.7307,-6.7346,-6.8119,-6.8429,-6.8468,-6.8586,-6.8607,-6.8684,-6.9595,-7.0002,-7.0041,-7.0738,-7.1084,-7.1201,-7.1158,-7.1175,-7.1291,-7.1291,-7.1291,-7.1291,-7.1308,-7.1247,-7.1247,-7.1224,-7.1224,-7.1263,-7.1982,-7.2275,-7.2026,-7.059,-6.9485,-6.8751,-6.8712,-6.8583,-6.8347,-6.9064,-6.9232,-6.8922,-6.8902,-6.8769,-6.8701,-6.8007,-6.7583,-6.7616,-6.7546,-6.7485,-6.7531,-6.8081,-6.851,-6.8569,-6.924,-7.0063,-7.1052,-7.2168,-7.1591,-6.8975,-6.9475,-7.0321,-7.1014,-7.1233,-7.1811,-7.2476,-7.2542,-7.2619,-7.286,-7.3053,-7.3206,-7.3322,-7.3486,-7.3524,-7.336,-7.3322,-7.3322,-7.3053,-7.2986,-7.2947,-7.3091,-7.2832,-7.3063,-7.2909,-7.2419,-7.2275,-7.2754,-7.2855,-7.2454,-7.181,-7.1593,-7.1259,-7.0495,-7.0462,-7.0434,-7.0334,-7.0223,-7.0077,-6.9929,-6.9891,-6.9891,-6.9891,-6.9891,-6.9891,-6.9891,-6.9891,-6.9891,-6.9891,-6.9891,-6.9816,-6.7191,-6.7655,-6.8042,-6.8197,-6.8236,-6.8622,-6.8777,-6.8816,-6.8854,-6.8622,-6.8236,-6.8622,-6.8777,-6.8854,-6.9262,-6.9438,-6.9477,-7.0388,-7.0834,-7.0834,-7.118,-7.1334,-7.1373,-7.1313,-7.1562,-7.1988,-7.1988,-7.2258,-7.2684,-7.2684,-7.2723,-7.2723,-7.2723,-7.2723,-7.2723,-7.3109,-7.3303,-7.3303,-7.2507,-7.1904,-7.1556,-7.1518,-7.1456,-7.1323,-7.1609,-7.1657,-7.1573,-7.1436,-7.1306,-7.1337,-7.0992,-7.0769,-7.0745,-7.0831,-7.0861,-7.0846,-7.1304,-7.1583,-7.1555,-7.1996,-7.2668,-7.3476,-7.3937,-7.3899,-7.3168,-7.2629,-7.2476,-7.286,-7.2927,-7.308,-7.3476,-7.3504,-7.3504,-7.3476,-7.386,-7.413,-7.4207,-7.463,-7.4668,-7.4245,-7.4168,-7.3976,-7.3553,-7.3514,-7.3514,-7.3514,-7.3514,-7.3668,-7.4091,-7.3793,-7.3457,-7.3418,-7.3261,-7.3016,-7.2601,-7.2467,-7.2248,-7.1833,-7.1412,-7.1116,-7.0829,-7.0566,-7.019,-6.9929,-6.9891,-6.9891,-6.9891,-6.9891,-6.9891,-6.9891,-6.9891,-6.9891,-6.9891,-6.9891,-6.9891,-6.8003,-6.8816,-6.9009,-6.9203,-6.9357,-6.9357,-6.9357,-6.9435,-7.0015,-6.9938,-6.9435,-6.9357,-6.9357,-6.9435,-7.0015,-7.0286,-7.0363,-7.0982,-7.1291,-7.1291,-7.1291,-7.1291,-7.133,-7.1485,-7.1949,-7.2568,-7.28,-7.3264,-7.3844,-7.3883,-7.3883,-7.3883,-7.3883,-7.3883,-7.3922,-7.4077,-7.4193,-7.4193,-7.4347,-7.427,-7.3922,-7.3883,-7.3883,-7.3883,-7.3727,-7.3613,-7.3652,-7.3482,-7.3399,-7.3399,-7.3399,-7.3342,-7.3261,-7.3283,-7.3283,-7.3169,-7.3484,-7.3697,-7.3889,-7.4024,-7.4322,-7.4938,-7.5168,-7.5553,-7.6092,-7.5322,-7.4437,-7.4168,-7.4312,-7.4427,-7.4514,-7.463,-7.463,-7.4668,-7.5159,-7.562,-7.5659,-7.6169,-7.6322,-7.5668,-7.5399,-7.5053,-7.4514,-7.4168,-7.413,-7.4168,-7.4053,-7.4322,-7.4861,-7.4976,-7.4707,-7.4255,-7.3936,-7.3768,-7.3584,-7.3379,-7.3204,-7.3093,-7.2372,-7.196,-7.1667,-7.1136,-7.076,-7.0612,-7.0308,-7.0233,-7.0195,-7.0005,-6.9929,-6.9891,-6.9891,-6.9891,-6.9891,-6.9891,-6.9891,-6.8042,-6.8854,-6.9589,-7.0363,-7.0982,-7.1021,-7.0982,-7.1021,-7.1137,-7.1137,-7.0982,-7.1059,-7.1021,-7.1059,-7.1098,-7.1137,-7.1137,-7.1253,-7.1291,-7.1291,-7.1291,-7.1291,-7.1369,-7.2104,-7.2529,-7.2723,-7.338,-7.3883,-7.4038,-7.3999,-7.3922,-7.3883,-7.3883,-7.396,-7.3999,-7.4657,-7.5005,-7.5005,-7.5779,-7.543,-7.3999,-7.3883,-7.3883,-7.3883,-7.3765,-7.3652,-7.3755,-7.3482,-7.3399,-7.3399,-7.3465,-7.337,-7.3351,-7.3427,-7.3465,-7.336,-7.4168,-7.4956,-7.563,-7.5784,-7.5784,-7.5899,-7.6592,-7.7053,-7.7207,-7.7669,-7.7323,-7.6245,-7.6467,-7.6775,-7.6976,-7.7429,-7.766,-7.7553,-7.7776,-7.8151,-7.8006,-7.8237,-7.8237,-7.8169,-7.7323,-7.7015,-7.663,-7.6015,-7.563,-7.5515,-7.5476,-7.5515,-7.5668,-7.5745,-7.5745,-7.5668,-7.5618,-7.5211,-7.458,-7.4325,-7.3997,-7.3318,-7.2872,-7.2691,-7.2543,-7.2357,-7.2244,-7.1674,-7.1446,-7.1029,-7.0839,-7.046,-6.9967,-7.0043,-7.0005,-6.9891,-6.9891,-6.9891,-6.9891,-6.9473,-7.0286,-7.0634,-7.0943,-7.1253,-7.1291,-7.1291,-7.1291,-7.1291,-7.1269,-7.1247,-7.1269,-7.1291,-7.1291,-7.1291,-7.1291,-7.1291,-7.1291,-7.1291,-7.1291,-7.1291,-7.1291,-7.1407,-7.2181,-7.2839,-7.338,-7.4231,-7.4889,-7.5276,-7.5353,-7.5392,-7.5392,-7.5392,-7.5392,-7.5392,-7.5701,-7.5856,-7.5856,-7.6204,-7.6049,-7.5469,-7.5392,-7.5392,-7.5392,-7.5345,-7.5282,-7.5243,-7.5194,-7.5169,-7.5169,-7.5229,-7.5252,-7.5156,-7.5282,-7.5282,-7.5015,-7.5292,-7.589,-7.6707,-7.6746,-7.6976,-7.7438,-7.7784,-7.8015,-7.8015,-7.8323,-7.8169,-7.7707,-7.7814,-7.8036,-7.8015,-7.8323,-7.8515,-7.8477,-7.8507,-7.8507,-7.8477,-7.8515,-7.8515,-7.8477,-7.8207,-7.7823,-7.7323,-7.6553,-7.6053,-7.5976,-7.5976,-7.5976,-7.5976,-7.5976,-7.5976,-7.5976,-7.5985,-7.5772,-7.5264,-7.5168,-7.4877,-7.4503,-7.3976,-7.3601,-7.3419,-7.2888,-7.2548,-7.2509,-7.2129,-7.1862,-7.1863,-7.1219,-7.0612,-7.0498,-7.0081,-6.9891,-6.9891,-6.9891,-6.9891,-7.0518,-7.1214,-7.1291,-7.1291,-7.1291,-7.1291,-7.1291,-7.1291,-7.1291,-7.1269,-7.1286,-7.1501,-7.164,-7.164,-7.1407,-7.1291,-7.1291,-7.1291,-7.1446,-7.1601,-7.1678,-7.1794,-7.2065,-7.2877,-7.3612,-7.427,-7.5082,-7.5779,-7.632,-7.6397,-7.6397,-7.6397,-7.6397,-7.6397,-7.6397,-7.6397,-7.6397,-7.6397,-7.6397,-7.6397,-7.6359,-7.6397,-7.6397,-7.6397,-7.6397,-7.6397,-7.6397,-7.6397,-7.6397,-7.6397,-7.6534,-7.6536,-7.6454,-7.6573,-7.6651,-7.6598,-7.6469,-7.6794,-7.767,-7.766,-7.7861,-7.84,-7.8669,-7.8861,-7.89,-7.9054,-7.9208,-7.9208,-7.9199,-7.9161,-7.8861,-7.9062,-7.9215,-7.9208,-7.9208,-7.9208,-7.9246,-7.9246,-7.9285,-7.9208,-7.9054,-7.8515,-7.7707,-7.6938,-7.6399,-7.6399,-7.6169,-7.5976,-7.5976,-7.5976,-7.5976,-7.5976,-7.5976,-7.5917,-7.5794,-7.5654,-7.5633,-7.5455,-7.4886,-7.444,-7.4257,-7.3687,-7.3308,-7.357,-7.3037,-7.2696,-7.266,-7.2052,-7.1294,-7.1029,-7.0612,-7.0119,-6.9929,-6.9891,-6.9891,-7.0518,-7.1253,-7.1291,-7.133,-7.1291,-7.133,-7.133,-7.1485,-7.1369,-7.1369,-7.1523,-7.222,-7.2529,-7.2491,-7.1794,-7.133,-7.1369,-7.1446,-7.1833,-7.2491,-7.2529,-7.2993,-7.3806,-7.4618,-7.4966,-7.5005,-7.5779,-7.6281,-7.6397,-7.6397,-7.6397,-7.6397,-7.6397,-7.6397,-7.6397,-7.6397,-7.6397,-7.6397,-7.6421,-7.6421,-7.6459,-7.6459,-7.6498,-7.6537,-7.6397,-7.6397,-7.6397,-7.6397,-7.6397,-7.6397,-7.6573,-7.6594,-7.6555,-7.6687,-7.711,-7.7603,-7.7543,-7.7821,-7.8528,-7.8556,-7.8515,-7.8669,-7.9361,-7.9746,-7.9785,-8.0362,-8.0746,-8.0939,-8.0862,-8.0592,-8.0131,-8.04,-8.0746,-8.0785,-8.0862,-8.0823,-8.0862,-8.0708,-8.0939,-8.0746,-8.0092,-7.9323,-7.8515,-7.7746,-7.7323,-7.7092,-7.6553,-7.6092,-7.6092,-7.6053,-7.5976,-7.5976,-7.6015,-7.5985,-7.5895,-7.5833,-7.5763,-7.566,-7.5383,-7.5129,-7.5132,-7.5018,-7.4825,-7.4516,-7.3947,-7.3568,-7.3416,-7.2886,-7.209,-7.1597,-7.1142,-7.0725,-7.027,-7.0005,-6.9891,-7.0982,-7.1291,-7.1291,-7.1601,-7.2104,-7.2142,-7.2435,-7.302,-7.2977,-7.2955,-7.2993,-7.3303,-7.3396,-7.3373,-7.3087,-7.2955,-7.2955,-7.2993,-7.3148,-7.3419,-7.3458,-7.3612,-7.396,-7.4734,-7.5121,-7.5237,-7.5972,-7.6397,-7.6397,-7.6397,-7.6397,-7.6397,-7.6397,-7.6397,-7.6397,-7.6397,-7.6397,-7.6421,-7.6471,-7.6806,-7.731,-7.7349,-7.762,-7.8085,-7.7008,-7.6397,-7.6397,-7.6397,-7.6397,-7.6397,-7.7137,-7.7554,-7.7593,-7.81,-7.8518,-7.877,-7.8512,-7.8708,-7.9469,-7.9432,-7.9592,-8.0131,-8.0439,-8.0631,-8.0669,-8.0939,-8.1285,-8.1747,-8.1862,-8.1862,-8.2054,-8.1593,-8.1093,-8.1093,-8.1093,-8.1093,-8.1093,-8.1093,-8.1093,-8.0977,-8.0323,-7.9669,-7.9323,-7.8592,-7.8092,-7.7977,-7.7361,-7.6899,-7.6707,-7.6399,-7.6053,-7.5976,-7.5976,-7.5976,-7.5985,-7.5925,-7.5864,-7.5769,-7.5566,-7.5427,-7.5321,-7.5246,-7.5019,-7.4783,-7.4402,-7.4326,-7.4139,-7.3682,-7.2886,-7.2166,-7.1749,-7.1332,-7.0725,-7.0346,-7.0081,-7.1424,-7.1672,-7.1672,-7.2152,-7.2925,-7.2963,-7.3296,-7.3883,-7.386,-7.386,-7.3899,-7.4154,-7.4247,-7.4301,-7.4556,-7.4695,-7.4618,-7.4154,-7.4038,-7.427,-7.427,-7.4425,-7.4773,-7.5276,-7.5546,-7.5585,-7.6088,-7.6397,-7.6436,-7.6668,-7.6784,-7.6823,-7.7055,-7.7248,-7.7225,-7.7225,-7.721,-7.724,-7.7349,-7.77,-7.828,-7.8357,-7.8629,-7.8961,-7.793,-7.7279,-7.7248,-7.7248,-7.7248,-7.7334,-7.803,-7.8458,-7.8596,-7.9066,-7.9559,-7.9806,-7.9505,-7.9656,-8.0396,-8.0347,-8.0477,-8.1016,-8.1362,-8.1477,-8.1516,-8.1747,-8.217,-8.2593,-8.2708,-8.3016,-8.3208,-8.2554,-8.1785,-8.1516,-8.1246,-8.1093,-8.1093,-8.1093,-8.1093,-8.1016,-8.0631,-8.0285,-8.0131,-7.94,-7.9015,-7.89,-7.8207,-7.7669,-7.7246,-7.6861,-7.6284,-7.6053,-7.5976,-7.5947,-7.5985,-7.5925,-7.5925,-7.5864,-7.5699,-7.557,-7.5394,-7.532,-7.5209,-7.5017,-7.4935,-7.4935,-7.4745,-7.4326,-7.372,-7.2924,-7.2507,-7.2166,-7.1445,-7.0649,-7.0308,-7.1703,-7.2375,-7.2442,-7.2919,-7.3652,-7.3691,-7.3729,-7.3909,-7.3959,-7.406,-7.4239,-7.4765,-7.5098,-7.5252,-7.5755,-7.6281,-7.5933,-7.4773,-7.4502,-7.5082,-7.5121,-7.5508,-7.6165,-7.6204,-7.6243,-7.6281,-7.6359,-7.6436,-7.6552,-7.721,-7.7597,-7.7829,-7.8448,-7.8655,-7.8812,-7.8683,-7.8796,-7.8779,-7.8765,-7.8999,-7.9252,-7.9321,-7.9399,-7.9501,-7.9308,-7.9153,-7.9013,-7.8912,-7.8796,-7.882,-7.9016,-7.9248,-7.952,-7.965,-7.9936,-8.065,-8.053,-8.0743,-8.1375,-8.1242,-8.1093,-8.1323,-8.19,-8.2285,-8.2401,-8.2939,-8.3439,-8.3593,-8.3593,-8.367,-8.3747,-8.3593,-8.3093,-8.2401,-8.1631,-8.1246,-8.1093,-8.1093,-8.1093,-8.1093,-8.0977,-8.1054,-8.09,-8.0323,-7.9823,-7.9669,-7.9054,-7.8246,-7.763,-7.7246,-7.6861,-7.6245,-7.5976,-7.5947,-7.5985,-7.5955,-7.5985,-7.5947,-7.5826,-7.5666,-7.5462,-7.5318,-7.5209,-7.5017,-7.4977,-7.4977,-7.4935,-7.4632,-7.4402,-7.3757,-7.3416,-7.281,-7.1938,-7.1104,-7.0536,-7.2172,-7.2519,-7.3073,-7.3742,-7.4422,-7.4461,-7.4796,-7.5388,-7.5401,-7.5453,-7.5542,-7.5774,-7.5826,-7.5903,-7.6135,-7.6301,-7.6287,-7.5746,-7.5731,-7.5972,-7.6011,-7.6088,-7.632,-7.6397,-7.6397,-7.6397,-7.6397,-7.6707,-7.7248,-7.7597,-7.7945,-7.8564,-7.8873,-7.8989,-7.9042,-7.8965,-7.9021,-7.9135,-7.9173,-7.954,-8.0234,-8.0363,-8.0623,-8.113,-8.1112,-8.0999,-8.0821,-7.9641,-7.9028,-7.9067,-7.9636,-8.0339,-8.0909,-8.1088,-8.1272,-8.1516,-8.1328,-8.1269,-8.153,-8.1821,-8.1939,-8.2054,-8.2708,-8.3131,-8.3208,-8.3439,-8.3901,-8.4362,-8.4516,-8.467,-8.5093,-8.4786,-8.3939,-8.2477,-8.2086,-8.1631,-8.117,-8.1093,-8.1093,-8.1093,-8.1093,-8.1093,-8.1054,-8.0708,-8.0631,-8.0554,-7.9939,-7.9092,-7.8284,-7.763,-7.6976,-7.6207,-7.6092,-7.5947,-7.5955,-7.5925,-7.5925,-7.5917,-7.5826,-7.5699,-7.5532,-7.5318,-7.5171,-7.5095,-7.5056,-7.4977,-7.4975,-7.4859,-7.4629,-7.4402,-7.3947,-7.3151,-7.2203,-7.1521,-7.0991,-7.2469,-7.2842,-7.3702,-7.4456,-7.5197,-7.5225,-7.5562,-7.6079,-7.6118,-7.6172,-7.625,-7.6276,-7.6276,-7.6276,-7.6276,-7.6494,-7.6789,-7.6814,-7.7031,-7.7171,-7.6591,-7.6397,-7.6397,-7.6397,-7.6397,-7.6475,-7.6707,-7.7132,-7.7713,-7.8332,-7.8912,-7.9415,-7.9763,-7.9932,-7.9893,-7.9893,-7.9951,-8.0146,-8.0254,-8.0624,-8.1197,-8.1373,-8.1607,-8.2065,-8.2038,-8.1944,-8.1787,-8.063,-7.9989,-7.9995,-8.0477,-8.1092,-8.166,-8.1678,-8.1753,-8.1794,-8.191,-8.1972,-8.2017,-8.2497,-8.2785,-8.2939,-8.3593,-8.4055,-8.4132,-8.4286,-8.4824,-8.5209,-8.5363,-8.5555,-8.5901,-8.5709,-8.4709,-8.3439,-8.2663,-8.2009,-8.1285,-8.1093,-8.1093,-8.1093,-8.1093,-8.1093,-8.1093,-8.1093,-8.1093,-8.1016,-8.0631,-7.9746,-7.8861,-7.8054,-7.7207,-7.6476,-7.6053,-7.5947,-7.5887,-7.5856,-7.5895,-7.5826,-7.5794,-7.5704,-7.5574,-7.5392,-7.5246,-7.5095,-7.5017,-7.5017,-7.5015,-7.4935,-7.4781,-7.4591,-7.4364,-7.3606,-7.2734,-7.209,-7.1445,-7.265,-7.3524,-7.4312,-7.5157,-7.581,-7.5908,-7.5938,-7.6005,-7.6118,-7.6198,-7.6225,-7.6301,-7.635,-7.6374,-7.6441,-7.6905,-7.7534,-7.7727,-7.8075,-7.8191,-7.7481,-7.6784,-7.6823,-7.6862,-7.6862,-7.69,-7.7442,-7.7829,-7.8177,-7.9337,-8.0227,-8.0343,-8.0923,-8.1401,-8.1195,-8.1362,-8.1329,-8.1502,-8.1653,-8.1831,-8.2163,-8.2209,-8.2248,-8.2287,-8.2153,-8.2073,-8.1987,-8.1636,-8.1414,-8.1414,-8.1272,-8.1387,-8.1499,-8.1523,-8.153,-8.1746,-8.2277,-8.2548,-8.2764,-8.3325,-8.367,-8.3747,-8.4439,-8.4978,-8.5016,-8.544,-8.5786,-8.594,-8.5978,-8.6017,-8.6094,-8.6017,-8.5593,-8.4824,-8.3279,-8.2047,-8.1323,-8.117,-8.1093,-8.1093,-8.1093,-8.1093,-8.1093,-8.1093,-8.1093,-8.1093,-8.0977,-8.0169,-7.8977,-7.8169,-7.7592,-7.6861,-7.6092,-7.5917,-7.5887,-7.5826,-7.5794,-7.5763,-7.5731,-7.5638,-7.5539,-7.543,-7.5284,-7.5133,-7.5017,-7.5017,-7.5015,-7.4935,-7.4895,-7.4781,-7.4402,-7.3909,-7.3189,-7.2317,-7.1445,-7.3658,-7.4437,-7.5255,-7.5725,-7.5895,-7.5985,-7.5976,-7.6044,-7.6145,-7.6172,-7.6145,-7.6225,-7.6237,-7.6195,-7.6812,-7.7235,-7.7665,-7.8181,-7.8554,-7.8838,-7.8578,-7.8332,-7.8293,-7.8293,-7.8254,-7.8293,-7.8486,-7.895,-7.9531,-7.9995,-8.0536,-8.1155,-8.1349,-8.1478,-8.1478,-8.1517,-8.1591,-8.1809,-8.1898,-8.2,-8.2226,-8.2287,-8.2293,-8.2293,-8.228,-8.221,-8.2062,-8.1792,-8.1569,-8.1504,-8.1427,-8.1374,-8.14,-8.1478,-8.1736,-8.2329,-8.2548,-8.2919,-8.3547,-8.4181,-8.4516,-8.4632,-8.5247,-8.5786,-8.5786,-8.594,-8.6094,-8.6094,-8.6094,-8.6094,-8.6094,-8.6094,-8.5709,-8.4863,-8.3401,-8.2247,-8.19,-8.1477,-8.1093,-8.1093,-8.1093,-8.1093,-8.1093,-8.1093,-8.1093,-8.1093,-8.0977,-8.0554,-7.9208,-7.8438,-7.7938,-7.6746,-7.6015,-7.5955,-7.5856,-7.5794,-7.5763,-7.5692,-7.5633,-7.557,-7.5501,-7.5392,-7.5247,-7.5167,-7.5094,-7.5056,-7.5015,-7.4932,-7.4932,-7.4895,-7.4288,-7.3644,-7.2772,-7.19,-7.1104,-7.388,-7.4725,-7.5571,-7.5925,-7.5895,-7.5976,-7.6005,-7.6044,-7.6118,-7.6145,-7.6118,-7.6172,-7.6376,-7.6678,-7.7169,-7.7824,-7.8497,-7.9015,-7.9532,-7.9932,-8.0048,-7.9647,-7.9183,-7.8989,-7.9028,-7.9067,-7.9376,-7.9724,-8.0188,-8.0536,-8.1039,-8.1387,-8.1504,-8.1504,-8.1542,-8.189,-8.1918,-8.1931,-8.2103,-8.2318,-8.2162,-8.2201,-8.2218,-8.2226,-8.2273,-8.2226,-8.2062,-8.1843,-8.1656,-8.1514,-8.1427,-8.1528,-8.1859,-8.1876,-8.2262,-8.296,-8.3346,-8.3817,-8.4319,-8.4966,-8.5363,-8.5478,-8.5901,-8.6055,-8.6094,-8.6094,-8.6094,-8.6094,-8.6094,-8.6094,-8.6094,-8.6094,-8.5709,-8.4907,-8.367,-8.2708,-8.2362,-8.19,-8.1477,-8.1208,-8.1093,-8.1093,-8.1093,-8.1093,-8.1093,-8.1093,-8.1093,-8.0362,-7.94,-7.8861,-7.813,-7.6976,-7.6062,-7.5955,-7.5856,-7.5763,-7.5666,-7.5595,-7.5599,-7.5501,-7.5427,-7.5356,-7.5247,-7.517,-7.5171,-7.5094,-7.5013,-7.4932,-7.4932,-7.4667,-7.4061,-7.3341,-7.2469,-7.1521,-7.0725,-7.3814,-7.4811,-7.5588,-7.5895,-7.5925,-7.6072,-7.6062,-7.6072,-7.6172,-7.6249,-7.6311,-7.6326,-7.6866,-7.7599,-7.7891,-7.8574,-7.9874,-8.0045,-8.0601,-8.1014,-8.1143,-8.0666,-7.9647,-7.9569,-7.9569,-7.9608,-8.0072,-8.0304,-8.0614,-8.1155,-8.1542,-8.1736,-8.1736,-8.1774,-8.2122,-8.2625,-8.253,-8.2376,-8.2844,-8.294,-8.2606,-8.2611,-8.2686,-8.2728,-8.2585,-8.2382,-8.2201,-8.209,-8.2007,-8.1708,-8.1569,-8.1914,-8.2516,-8.2603,-8.3085,-8.3688,-8.435,-8.478,-8.5093,-8.5632,-8.6055,-8.6017,-8.6055,-8.6094,-8.6094,-8.6094,-8.6094,-8.6094,-8.6094,-8.6017,-8.5824,-8.5863,-8.5363,-8.4599,-8.3901,-8.3208,-8.2516,-8.2247,-8.19,-8.1246,-8.1093,-8.1093,-8.1093,-8.1093,-8.1093,-8.1093,-8.1016,-8.0516,-7.9669,-7.8938,-7.8207,-7.7323,-7.6562,-7.5955,-7.5826,-7.5724,-7.5633,-7.5566,-7.5532,-7.5501,-7.5392,-7.5356,-7.5246,-7.5133,-7.5095,-7.5055,-7.4935,-7.4895,-7.4895,-7.4364,-7.3682,-7.3037,-7.2317,-7.1294,-7.0384,-7.4879,-7.5716,-7.5908,-7.5985,-7.6015,-7.6118,-7.6145,-7.609,-7.6276,-7.6675,-7.7032,-7.7136,-7.7582,-7.8344,-7.8883,-7.9546,-7.9999,-8.055,-8.1175,-8.1323,-8.14,-8.1337,-8.0898,-8.0846,-8.0885,-8.0923,-8.1078,-8.1194,-8.1271,-8.1401,-8.1852,-8.2432,-8.2509,-8.2857,-8.3438,-8.3592,-8.3808,-8.3674,-8.385,-8.3854,-8.377,-8.3704,-8.3778,-8.3867,-8.3467,-8.2842,-8.2406,-8.2752,-8.2956,-8.2707,-8.2622,-8.2716,-8.288,-8.3287,-8.3894,-8.4497,-8.478,-8.5209,-8.5709,-8.594,-8.6094,-8.6094,-8.6094,-8.6094,-8.6094,-8.6094,-8.6094,-8.6094,-8.6094,-8.5863,-8.5286,-8.4555,-8.4209,-8.3901,-8.367,-8.317,-8.2401,-8.1785,-8.14,-8.117,-8.1093,-8.1093,-8.1093,-8.1093,-8.1093,-8.1093,-8.0939,-8.0669,-7.9977,-7.9131,-7.8323,-7.7592,-7.663,-7.5994,-7.5856,-7.5731,-7.5633,-7.5532,-7.5535,-7.5501,-7.5427,-7.532,-7.5209,-7.5133,-7.5095,-7.5015,-7.4895,-7.4857,-7.4857,-7.4061,-7.3303,-7.2545,-7.1787,-7.0877,-7.0308,-7.5236,-7.5976,-7.5976,-7.5976,-7.6044,-7.6129,-7.6118,-7.6206,-7.6661,-7.7059,-7.7372,-7.7708,-7.8373,-7.9092,-7.9592,-7.9977,-8.0469,-8.0915,-8.1263,-8.1374,-8.14,-8.1427,-8.1478,-8.1453,-8.1453,-8.1453,-8.1453,-8.1453,-8.153,-8.1878,-8.2329,-8.2819,-8.3167,-8.3554,-8.4134,-8.4482,-8.4417,-8.4258,-8.4553,-8.4599,-8.4298,-8.4301,-8.4404,-8.4545,-8.422,-8.3761,-8.3497,-8.3732,-8.3831,-8.3774,-8.3906,-8.3977,-8.39,-8.4242,-8.4811,-8.5375,-8.5472,-8.5593,-8.6017,-8.6094,-8.6094,-8.6094,-8.6094,-8.6094,-8.6094,-8.6094,-8.6094,-8.6094,-8.6017,-8.5786,-8.4939,-8.4132,-8.3555,-8.3054,-8.2978,-8.2631,-8.1939,-8.167,-8.1477,-8.1246,-8.1093,-8.1093,-8.1093,-8.1093,-8.1093,-8.1093,-8.1093,-8.0823,-8.04,-7.9592,-7.8669,-7.7784,-7.6707,-7.6062,-7.5895,-7.5763,-7.5595,-7.5532,-7.5535,-7.5501,-7.5501,-7.5356,-7.5246,-7.5171,-7.5095,-7.4977,-7.4897,-7.4819,-7.4591,-7.3833,-7.3037,-7.2128,-7.1294,-7.0612,-7.0195,-7.5408,-7.6015,-7.613,-7.6207,-7.6207,-7.6447,-7.6563,-7.6583,-7.7218,-7.7718,-7.7784,-7.8438,-7.9199,-7.9862,-8.0015,-8.0477,-8.0931,-8.1116,-8.1273,-8.1319,-8.1617,-8.1683,-8.1775,-8.1903,-8.1992,-8.176,-8.1748,-8.1748,-8.2161,-8.2509,-8.3141,-8.3322,-8.3902,-8.4482,-8.4675,-8.5062,-8.5256,-8.4895,-8.5243,-8.5282,-8.4804,-8.4731,-8.4825,-8.4762,-8.4841,-8.4678,-8.4551,-8.4688,-8.4779,-8.4637,-8.5311,-8.5529,-8.5461,-8.54,-8.5505,-8.6177,-8.6043,-8.6017,-8.6055,-8.6094,-8.6094,-8.6094,-8.6094,-8.6094,-8.6094,-8.6094,-8.6094,-8.594,-8.5786,-8.5247,-8.4709,-8.3555,-8.2785,-8.2324,-8.2131,-8.1785,-8.1439,-8.1747,-8.1593,-8.1246,-8.1093,-8.1093,-8.1093,-8.1093,-8.1093,-8.1093,-8.1093,-8.0977,-8.0592,-7.9823,-7.8823,-7.7938,-7.6861,-7.6071,-7.5864,-7.5731,-7.5599,-7.5532,-7.5501,-7.5501,-7.5501,-7.5356,-7.5246,-7.5171,-7.5095,-7.4977,-7.4935,-7.4857,-7.444,-7.3682,-7.2848,-7.2014,-7.118,-7.0384,-7.0081,-7.5947,-7.6053,-7.6784,-7.7092,-7.7198,-7.7834,-7.8036,-7.8122,-7.8257,-7.8767,-7.9323,-7.9554,-8.0054,-8.0669,-8.09,-8.1016,-8.1285,-8.1431,-8.1377,-8.1552,-8.1967,-8.2304,-8.2477,-8.2863,-8.322,-8.3153,-8.2863,-8.2869,-8.3347,-8.3824,-8.4108,-8.4714,-8.5024,-8.5372,-8.5875,-8.6339,-8.6223,-8.5913,-8.6145,-8.6068,-8.6017,-8.5926,-8.5739,-8.5466,-8.5556,-8.5364,-8.5058,-8.5448,-8.5732,-8.5588,-8.6294,-8.6493,-8.6314,-8.6134,-8.6191,-8.6246,-8.6197,-8.6094,-8.6094,-8.6094,-8.6094,-8.6094,-8.6094,-8.6094,-8.6094,-8.6017,-8.5901,-8.5555,-8.4791,-8.3984,-8.3824,-8.2631,-8.167,-8.1362,-8.1362,-8.1323,-8.117,-8.1246,-8.1362,-8.1131,-8.1093,-8.1093,-8.1093,-8.1093,-8.1093,-8.1093,-8.1093,-8.1093,-8.09,-7.9862,-7.8669,-7.7823,-7.7015,-7.631,-7.5763,-7.5666,-7.5566,-7.5497,-7.5462,-7.5392,-7.5392,-7.5356,-7.5245,-7.5132,-7.5057,-7.4975,-7.4895,-7.4895,-7.4136,-7.3189,-7.2545,-7.19,-7.0953,-7.0081,-7.0043,-7.6415,-7.6707,-7.713,-7.7515,-7.7938,-7.8353,-7.8545,-7.8592,-7.9007,-7.943,-7.9862,-8.0285,-8.0669,-8.1131,-8.1593,-8.1939,-8.2285,-8.2401,-8.2425,-8.2571,-8.2909,-8.3094,-8.3191,-8.3625,-8.398,-8.4104,-8.3972,-8.376,-8.3961,-8.4414,-8.4828,-8.5294,-8.572,-8.6223,-8.6494,-8.6571,-8.661,-8.661,-8.661,-8.661,-8.661,-8.661,-8.6364,-8.6316,-8.6262,-8.6171,-8.6091,-8.6209,-8.648,-8.6397,-8.6652,-8.676,-8.6623,-8.6472,-8.6384,-8.6354,-8.6191,-8.6094,-8.6094,-8.6094,-8.6094,-8.6094,-8.6094,-8.6094,-8.5978,-8.5747,-8.5324,-8.467,-8.3868,-8.2913,-8.2901,-8.1785,-8.1208,-8.1093,-8.1093,-8.1093,-8.1093,-8.1093,-8.1093,-8.1093,-8.1093,-8.1093,-8.1093,-8.1093,-8.1093,-8.1093,-8.1093,-8.1093,-8.1093,-7.9977,-7.8669,-7.7823,-7.7024,-7.624,-7.5724,-7.5666,-7.5566,-7.5497,-7.5427,-7.5356,-7.532,-7.5283,-7.5167,-7.5089,-7.4981,-7.4975,-7.4895,-7.4857,-7.3795,-7.2886,-7.2469,-7.1862,-7.0649,-6.9891,-6.9891,-7.67,-7.7284,-7.7476,-7.8015,-7.8707,-7.8977,-7.9054,-7.9169,-7.9746,-8.0054,-8.0208,-8.0939,-8.1323,-8.1554,-8.2208,-8.2939,-8.3593,-8.3516,-8.3471,-8.3541,-8.3772,-8.3919,-8.395,-8.4188,-8.451,-8.4978,-8.4945,-8.4741,-8.4666,-8.5034,-8.5352,-8.5678,-8.6312,-8.661,-8.661,-8.661,-8.661,-8.661,-8.661,-8.661,-8.661,-8.661,-8.6649,-8.6754,-8.6799,-8.6787,-8.6765,-8.6872,-8.6843,-8.6767,-8.6782,-8.6731,-8.6636,-8.6472,-8.6384,-8.6354,-8.6191,-8.6126,-8.6094,-8.6094,-8.6094,-8.6094,-8.6094,-8.6017,-8.5632,-8.5055,-8.4362,-8.3593,-8.2869,-8.2407,-8.2362,-8.1593,-8.117,-8.1093,-8.1093,-8.1093,-8.1093,-8.1093,-8.1093,-8.1093,-8.1093,-8.1093,-8.1093,-8.1093,-8.1093,-8.1093,-8.1093,-8.1093,-8.0939,-7.9977,-7.8823,-7.7908,-7.7032,-7.6171,-7.5731,-7.5633,-7.5566,-7.5535,-7.5392,-7.532,-7.5246,-7.5171,-7.5094,-7.5054,-7.5056,-7.5055,-7.4975,-7.4705,-7.3871,-7.3151,-7.2658,-7.1749,-7.046,-6.9929,-6.9891,-7.6563,-7.7361,-7.8054,-7.8861,-7.9708,-8.04,-8.0746,-8.0708,-8.0823,-8.0939,-8.0977,-8.1747,-8.2131,-8.2439,-8.3093,-8.3478,-8.367,-8.3824,-8.3901,-8.4048,-8.4407,-8.4676,-8.4758,-8.5347,-8.5347,-8.5612,-8.5619,-8.5766,-8.5626,-8.583,-8.6075,-8.6211,-8.6362,-8.6648,-8.6803,-8.6803,-8.661,-8.6648,-8.6687,-8.6687,-8.6687,-8.6648,-8.6636,-8.6649,-8.6731,-8.676,-8.6824,-8.6904,-8.6904,-8.6782,-8.6799,-8.6731,-8.6636,-8.6472,-8.6384,-8.6323,-8.623,-8.6094,-8.6094,-8.6094,-8.6094,-8.6094,-8.6017,-8.5709,-8.4939,-8.4247,-8.367,-8.3632,-8.2785,-8.2215,-8.2016,-8.1554,-8.1208,-8.1093,-8.1093,-8.1093,-8.1093,-8.1093,-8.1093,-8.1093,-8.1093,-8.1093,-8.1093,-8.1093,-8.1093,-8.1093,-8.1093,-8.1093,-8.0746,-7.9785,-7.8784,-7.7754,-7.6886,-7.5986,-7.566,-7.5633,-7.5532,-7.5501,-7.5392,-7.5283,-7.5246,-7.5209,-7.5095,-7.5057,-7.5095,-7.4942,-7.4672,-7.4326,-7.3871,-7.3189,-7.2393,-7.137,-7.0233,-6.9967,-6.9891,-7.7177,-7.8015,-7.8323,-7.9285,-8.0516,-8.0977,-8.1093,-8.1093,-8.1093,-8.1362,-8.1747,-8.2131,-8.2785,-8.367,-8.4209,-8.4593,-8.4901,-8.4939,-8.5016,-8.4939,-8.5291,-8.545,-8.5565,-8.58,-8.5958,-8.5887,-8.5887,-8.5811,-8.6026,-8.612,-8.6246,-8.6307,-8.6567,-8.6958,-8.719,-8.7345,-8.7693,-8.7809,-8.7693,-8.7383,-8.7228,-8.6919,-8.661,-8.661,-8.6674,-8.666,-8.6684,-8.6708,-8.6754,-8.666,-8.6674,-8.6623,-8.6528,-8.6414,-8.6285,-8.6254,-8.6159,-8.6094,-8.6094,-8.6094,-8.6094,-8.594,-8.5632,-8.4786,-8.3747,-8.3131,-8.2631,-8.217,-8.1862,-8.167,-8.1631,-8.1323,-8.117,-8.1093,-8.1093,-8.1093,-8.1093,-8.1093,-8.1093,-8.1093,-8.1093,-8.1093,-8.1093,-8.1093,-8.1093,-8.1093,-8.1054,-8.1054,-8.0516,-7.9592,-7.8592,-7.7515,-7.6625,-7.5731,-7.5628,-7.5599,-7.5532,-7.5501,-7.5392,-7.532,-7.5283,-7.5209,-7.5095,-7.5018,-7.5018,-7.4789,-7.4404,-7.3985,-7.3606,-7.2848,-7.2014,-7.1066,-7.0157,-6.9967,-6.9891,-7.7738,-7.8823,-7.8823,-7.9708,-8.1054,-8.1093,-8.1246,-8.14,-8.1439,-8.1862,-8.2516,-8.2939,-8.3862,-8.4901,-8.5209,-8.544,-8.6017,-8.6094,-8.6094,-8.6094,-8.606,-8.6022,-8.595,-8.6026,-8.5958,-8.5961,-8.5926,-8.5887,-8.5923,-8.6055,-8.6215,-8.6315,-8.6837,-8.724,-8.777,-8.8118,-8.8466,-8.8853,-8.8466,-8.8118,-8.7809,-8.7267,-8.688,-8.6687,-8.661,-8.661,-8.661,-8.661,-8.661,-8.661,-8.6583,-8.6556,-8.65,-8.6414,-8.6254,-8.6223,-8.6159,-8.6094,-8.6094,-8.6094,-8.6094,-8.5786,-8.5055,-8.3978,-8.2708,-8.217,-8.1862,-8.1323,-8.1246,-8.117,-8.1093,-8.1093,-8.1093,-8.1093,-8.1093,-8.1093,-8.1093,-8.1093,-8.1093,-8.1093,-8.1093,-8.1093,-8.1093,-8.1093,-8.1093,-8.1093,-8.1054,-8.1016,-8.0285,-7.94,-7.8408,-7.737,-7.6471,-7.5731,-7.5633,-7.5566,-7.5535,-7.5465,-7.5356,-7.5283,-7.5246,-7.5171,-7.5056,-7.5018,-7.4866,-7.4446,-7.3947,-7.3644,-7.3303,-7.2317,-7.1445,-7.0877,-7.027,-7.0043,-6.9891,-7.8115,-7.9708,-7.9708,-8.0246,-8.1093,-8.1093,-8.1554,-8.2093,-8.2208,-8.2708,-8.3555,-8.4324,-8.5093,-8.5747,-8.5863,-8.594,-8.6094,-8.6094,-8.6094,-8.606,-8.6026,-8.6031,-8.6031,-8.5958,-8.5887,-8.5852,-8.5887,-8.5887,-8.5926,-8.6247,-8.63,-8.6331,-8.7157,-8.7666,-8.8312,-8.9008,-8.9279,-8.9549,-8.924,-8.866,-8.8234,-8.7731,-8.7383,-8.6764,-8.661,-8.661,-8.661,-8.661,-8.661,-8.661,-8.6556,-8.6528,-8.6472,-8.6384,-8.6254,-8.6191,-8.6126,-8.6094,-8.6094,-8.6094,-8.6055,-8.5632,-8.4632,-8.3247,-8.2208,-8.1516,-8.117,-8.1131,-8.1093,-8.1093,-8.1093,-8.1093,-8.1093,-8.1093,-8.1093,-8.1093,-8.1093,-8.1093,-8.1093,-8.1093,-8.1093,-8.1093,-8.1093,-8.1093,-8.1093,-8.1093,-8.1016,-8.0977,-8.0092,-7.9208,-7.8223,-7.727,-7.6332,-7.5737,-7.5599,-7.5532,-7.5501,-7.543,-7.532,-7.5246,-7.5209,-7.5133,-7.5056,-7.4675,-7.4408,-7.4027,-7.3532,-7.3039,-7.2431,-7.1597,-7.0915,-7.046,-7.0195,-6.9967,-6.9891,-7.9146,-7.9823,-8.0362,-8.0785,-8.1131,-8.1631,-8.2016,-8.2362,-8.2862,-8.3593,-8.4439,-8.5247,-8.5786,-8.6017,-8.6094,-8.6094,-8.6094,-8.6094,-8.6094,-8.6094,-8.6099,-8.6099,-8.6026,-8.5992,-8.5992,-8.5992,-8.5992,-8.5992,-8.6065,-8.6582,-8.6986,-8.7271,-8.7765,-8.8594,-8.9317,-9.0091,-9.0516,-9.0478,-9.013,-8.9511,-8.8776,-8.8079,-8.7499,-8.6687,-8.661,-8.661,-8.661,-8.661,-8.661,-8.6583,-8.6528,-8.6472,-8.6414,-8.6323,-8.6191,-8.6159,-8.6126,-8.6094,-8.6094,-8.5978,-8.567,-8.4478,-8.3478,-8.2477,-8.1747,-8.1246,-8.1131,-8.1093,-8.1093,-8.1093,-8.1093,-8.1093,-8.1093,-8.1093,-8.1093,-8.1093,-8.1093,-8.1093,-8.1093,-8.1093,-8.1093,-8.1093,-8.1093,-8.1093,-8.1093,-8.1093,-8.1016,-8.0746,-7.9823,-7.8869,-7.7916,-7.7124,-7.6185,-7.5775,-7.5638,-7.557,-7.5501,-7.5392,-7.532,-7.5209,-7.5171,-7.5209,-7.5018,-7.4523,-7.3838,-7.323,-7.266,-7.2205,-7.1674,-7.1066,-7.0612,-7.0195,-6.9967,-6.9891,-6.9891,-7.9915,-8.0285,-8.1093,-8.1439,-8.1554,-8.2054,-8.2593,-8.317,-8.3708,-8.4478,-8.5286,-8.5863,-8.6094,-8.6094,-8.6094,-8.6094,-8.6094,-8.6094,-8.6094,-8.6094,-8.6094,-8.6094,-8.6094,-8.6094,-8.606,-8.6094,-8.6094,-8.6094,-8.6132,-8.7077,-8.7596,-8.7996,-8.8499,-8.9444,-9.0168,-9.1213,-9.1716,-9.1522,-9.1135,-9.0362,-8.9549,-8.8737,-8.7925,-8.7112,-8.6803,-8.661,-8.661,-8.661,-8.661,-8.6583,-8.65,-8.6414,-8.6354,-8.6261,-8.6126,-8.6094,-8.6094,-8.6094,-8.6094,-8.5709,-8.5093,-8.3939,-8.2939,-8.2016,-8.1362,-8.1093,-8.1093,-8.1093,-8.1093,-8.1093,-8.1093,-8.1093,-8.1093,-8.1093,-8.1093,-8.1093,-8.1093,-8.1093,-8.1093,-8.1093,-8.1093,-8.1093,-8.1054,-8.1054,-8.0939,-8.0823,-8.0554,-8.0169,-7.9285,-7.8408,-7.7501,-7.6747,-7.6038,-7.5781,-7.5604,-7.5462,-7.5392,-7.532,-7.5246,-7.5171,-7.5133,-7.5019,-7.4714,-7.4104,-7.3304,-7.2471,-7.1864,-7.137,-7.1029,-7.0687,-7.0308,-6.9967,-6.9967,-6.9891,-6.9891,-8.0323,-8.1131,-8.19,-8.2247,-8.2362,-8.2324,-8.3247,-8.4478,-8.4786,-8.5286,-8.5901,-8.6094,-8.6094,-8.6094,-8.6094,-8.6094,-8.6094,-8.6094,-8.6094,-8.6094,-8.6094,-8.6094,-8.6094,-8.6094,-8.6094,-8.6094,-8.6094,-8.6094,-8.6132,-8.7301,-8.802,-8.8884,-8.9552,-9.0284,-9.0516,-9.1251,-9.1677,-9.1716,-9.16,-9.1019,-9.0091,-8.9279,-8.8505,-8.7499,-8.6919,-8.661,-8.661,-8.661,-8.661,-8.6583,-8.65,-8.6443,-8.6384,-8.6254,-8.6159,-8.6094,-8.6094,-8.6094,-8.6017,-8.5363,-8.4478,-8.3625,-8.267,-8.1785,-8.1246,-8.1093,-8.1093,-8.1093,-8.1093,-8.1093,-8.1093,-8.1093,-8.1093,-8.1093,-8.1093,-8.1093,-8.1093,-8.1093,-8.1093,-8.1093,-8.1093,-8.1093,-8.1016,-8.0977,-8.0823,-8.0592,-8.0208,-7.9554,-7.8784,-7.7993,-7.7124,-7.6485,-7.5852,-7.5714,-7.5532,-7.5392,-7.532,-7.5245,-7.5056,-7.4828,-7.4485,-7.4142,-7.3799,-7.3416,-7.2658,-7.1712,-7.1105,-7.0498,-7.0384,-7.0308,-7.0119,-6.9891,-6.9891,-6.9891,-6.9891,-8.1131,-8.19,-8.2208,-8.2978,-8.3939,-8.4055,-8.4401,-8.4939,-8.544,-8.5863,-8.6055,-8.6094,-8.6094,-8.6094,-8.6094,-8.6094,-8.6094,-8.6094,-8.6094,-8.6094,-8.6094,-8.6094,-8.6094,-8.6094,-8.6094,-8.6094,-8.6094,-8.6094,-8.6132,-8.75,-8.8303,-8.9099,-9.0372,-9.1156,-9.1301,-9.1638,-9.1716,-9.1716,-9.1561,-9.1058,-8.9782,-8.9317,-8.8544,-8.7267,-8.6842,-8.661,-8.661,-8.661,-8.661,-8.6583,-8.65,-8.6414,-8.6354,-8.6254,-8.6126,-8.6094,-8.6094,-8.5824,-8.5324,-8.4555,-8.3978,-8.3247,-8.2362,-8.1477,-8.1093,-8.1093,-8.1093,-8.1093,-8.1093,-8.1093,-8.1093,-8.1093,-8.1093,-8.1093,-8.1093,-8.1093,-8.1093,-8.1093,-8.1093,-8.1093,-8.1093,-8.0669,-8.0516,-8.0092,-7.9939,-7.9862,-7.9477,-7.9169,-7.8554,-7.7724,-7.6901,-7.6223,-7.5704,-7.5604,-7.5462,-7.5203,-7.5092,-7.498,-7.46,-7.4105,-7.3723,-7.3342,-7.2696,-7.2279,-7.1635,-7.0953,-7.0536,-7.0157,-7.0043,-6.9891,-6.9891,-6.9891,-6.9891,-6.9891,-6.9891,-8.1823,-8.2362,-8.2939,-8.3824,-8.4824,-8.4901,-8.5055,-8.5363,-8.5863,-8.6094,-8.6094,-8.6094,-8.6094,-8.6094,-8.6094,-8.6094,-8.6094,-8.6094,-8.6094,-8.6094,-8.6094,-8.6094,-8.6094,-8.6094,-8.6094,-8.6094,-8.6094,-8.6094,-8.6209,-8.7897,-8.9112,-9.0049,-9.0921,-9.1397,-9.161,-9.1677,-9.1716,-9.1716,-9.16,-9.129,-9.0323,-8.9549,-8.8698,-8.7731,-8.7074,-8.661,-8.661,-8.661,-8.661,-8.6583,-8.65,-8.6414,-8.6354,-8.6261,-8.6126,-8.6094,-8.6055,-8.567,-8.4978,-8.4132,-8.3593,-8.3016,-8.1785,-8.117,-8.1093,-8.1093,-8.1093,-8.1093,-8.1093,-8.1093,-8.1093,-8.1093,-8.1093,-8.1093,-8.1093,-8.1093,-8.1093,-8.1093,-8.1093,-8.1093,-8.0862,-8.0439,-7.9862,-7.9246,-7.8861,-7.8784,-7.8707,-7.8438,-7.81,-7.7278,-7.66,-7.6043,-7.5633,-7.5532,-7.5274,-7.4898,-7.4789,-7.4752,-7.4106,-7.3306,-7.2963,-7.2507,-7.1824,-7.118,-7.0801,-7.046,-7.0157,-6.9891,-6.9891,-6.9891,-6.9891,-6.9891,-6.9891,-6.9891,-6.9891,-8.2285,-8.2593,-8.4209,-8.4863,-8.4978,-8.5055,-8.5401,-8.6055,-8.6094,-8.6094,-8.6094,-8.6094,-8.6094,-8.6094,-8.6094,-8.6094,-8.6094,-8.6094,-8.6094,-8.6094,-8.6094,-8.6094,-8.6094,-8.6094,-8.6094,-8.6094,-8.6094,-8.6132,-8.6286,-8.7891,-8.9601,-9.0929,-9.1346,-9.1591,-9.1659,-9.1716,-9.1716,-9.1716,-9.1677,-9.1406,-9.0749,-8.982,-8.9047,-8.8196,-8.7383,-8.6764,-8.661,-8.661,-8.661,-8.6583,-8.6528,-8.6472,-8.6384,-8.6285,-8.6191,-8.6126,-8.6094,-8.5478,-8.4747,-8.3824,-8.3016,-8.2362,-8.1593,-8.1208,-8.1093,-8.1093,-8.1093,-8.1093,-8.1093,-8.1093,-8.1093,-8.1093,-8.1093,-8.1093,-8.1093,-8.1093,-8.1093,-8.1093,-8.1093,-8.0977,-8.0708,-8.0246,-7.9515,-7.8823,-7.7852,-7.7746,-7.7669,-7.7416,-7.704,-7.6632,-7.6038,-7.5901,-7.5566,-7.5497,-7.5163,-7.4709,-7.4371,-7.4334,-7.3155,-7.2356,-7.2014,-7.1749,-7.1142,-7.0612,-7.027,-7.0005,-6.9929,-6.9891,-6.9891,-6.9891,-6.9891,-6.9891,-6.9891,-6.9891,-6.9891,-8.267,-8.3324,-8.4439,-8.5247,-8.5709,-8.5747,-8.5901,-8.6094,-8.6094,-8.6094,-8.6094,-8.6094,-8.6094,-8.6094,-8.6094,-8.6094,-8.6094,-8.6094,-8.6094,-8.6094,-8.6094,-8.6094,-8.6094,-8.6094,-8.6094,-8.6094,-8.6094,-8.6132,-8.6478,-8.7897,-8.9619,-9.1104,-9.1431,-9.1531,-9.1629,-9.1687,-9.1716,-9.1716,-9.1716,-9.1445,-9.0865,-8.982,-8.9085,-8.8273,-8.7306,-8.6726,-8.661,-8.661,-8.661,-8.6583,-8.6528,-8.6472,-8.6384,-8.6285,-8.6153,-8.6017,-8.5593,-8.4863,-8.4022,-8.317,-8.2362,-8.1747,-8.1246,-8.117,-8.1093,-8.1093,-8.1093,-8.1093,-8.1093,-8.1093,-8.1093,-8.1093,-8.1093,-8.1093,-8.1093,-8.1093,-8.1093,-8.1093,-8.1054,-8.0669,-8.0439,-7.9546,-7.8853,-7.7766,-7.6881,-7.6736,-7.6562,-7.6425,-7.6248,-7.5916,-7.5704,-7.5599,-7.5493,-7.5424,-7.4974,-7.4559,-7.4143,-7.3688,-7.2433,-7.1483,-7.1294,-7.0953,-7.046,-7.0157,-7.0005,-6.9929,-6.9891,-6.9891,-6.9891,-6.9891,-6.9891,-6.9891,-6.9891,-6.9891,-6.9891,-8.3061,-8.3708,-8.4901,-8.567,-8.6055,-8.6094,-8.6094,-8.6094,-8.6094,-8.6094,-8.6094,-8.6094,-8.6094,-8.6094,-8.6094,-8.6094,-8.6094,-8.6094,-8.6094,-8.6094,-8.6094,-8.6094,-8.6094,-8.6094,-8.6094,-8.6094,-8.6094,-8.6094,-8.6594,-8.7863,-8.9585,-9.1154,-9.1368,-9.147,-9.16,-9.1659,-9.1716,-9.1716,-9.1638,-9.1367,-9.071,-8.982,-8.8969,-8.8273,-8.7306,-8.6726,-8.661,-8.661,-8.661,-8.6583,-8.6528,-8.6472,-8.6384,-8.6254,-8.612,-8.5978,-8.5401,-8.4593,-8.3747,-8.2862,-8.1977,-8.1362,-8.1093,-8.1093,-8.1093,-8.1093,-8.1093,-8.1093,-8.1093,-8.1093,-8.1093,-8.1093,-8.1093,-8.1093,-8.1093,-8.1093,-8.1093,-8.1093,-8.0785,-8.0431,-7.97,-7.8729,-7.7757,-7.6707,-7.6072,-7.6139,-7.6125,-7.6025,-7.5955,-7.5808,-7.5633,-7.5532,-7.5459,-7.5348,-7.4783,-7.4065,-7.3383,-7.2662,-7.1485,-7.0764,-7.0574,-7.0422,-7.0157,-7.0005,-6.9929,-6.9891,-6.9891,-6.9891,-6.9891,-6.9891,-6.9891,-6.9891,-6.9891,-6.9891,-6.9891,-8.3495,-8.3747,-8.5401,-8.6055,-8.6094,-8.6094,-8.6094,-8.6132,-8.6247,-8.617,-8.6132,-8.6094,-8.6094,-8.6094,-8.6094,-8.6094,-8.6094,-8.6094,-8.6094,-8.6132,-8.6094,-8.6094,-8.6094,-8.6094,-8.6094,-8.6094,-8.6132,-8.6247,-8.6709,-8.7902,-8.9513,-9.1154,-9.1368,-9.147,-9.157,-9.162,-9.1716,-9.1716,-9.1716,-9.1561,-9.1135,-9.0246,-8.9163,-8.8853,-8.7731,-8.661,-8.661,-8.661,-8.661,-8.6583,-8.6528,-8.6472,-8.6354,-8.6197,-8.6094,-8.5709,-8.5099,-8.4362,-8.3516,-8.2593,-8.1862,-8.1323,-8.1093,-8.1093,-8.1093,-8.1093,-8.1093,-8.1093,-8.1093,-8.1093,-8.1093,-8.1093,-8.1093,-8.1093,-8.1093,-8.1093,-8.1093,-8.0931,-8.0521,-8.001,-7.9196,-7.8297,-7.773,-7.6752,-7.6106,-7.5976,-7.5864,-7.5763,-7.5327,-7.5327,-7.5255,-7.5153,-7.4847,-7.4511,-7.3985,-7.319,-7.2394,-7.1484,-7.0612,-7.0233,-7.0195,-7.0081,-6.9929,-6.9891,-6.9891,-6.9891,-6.9891,-6.9891,-6.9891,-6.9891,-6.9891,-6.9891,-6.9891,-6.9891,-6.9891,-8.332,-8.3687,-8.5368,-8.6094,-8.6094,-8.6094,-8.6094,-8.617,-8.6824,-8.6748,-8.6209,-8.6132,-8.617,-8.6324,-8.6324,-8.6324,-8.6286,-8.6478,-8.617,-8.6247,-8.6286,-8.6478,-8.6209,-8.644,-8.6247,-8.6094,-8.617,-8.644,-8.7132,-8.8171,-8.9171,-9.0244,-9.0879,-9.1438,-9.147,-9.1591,-9.1687,-9.1716,-9.1716,-9.1638,-9.1329,-9.0246,-8.9163,-8.866,-8.7654,-8.6726,-8.661,-8.661,-8.661,-8.6583,-8.6528,-8.6443,-8.6254,-8.6094,-8.6065,-8.5829,-8.4796,-8.4061,-8.333,-8.2439,-8.1593,-8.1285,-8.1093,-8.1093,-8.1093,-8.1093,-8.1093,-8.1093,-8.1093,-8.1093,-8.1093,-8.1093,-8.1093,-8.1093,-8.1093,-8.1093,-8.1054,-8.0636,-8.0222,-7.9443,-7.8641,-7.8085,-7.7543,-7.6944,-7.634,-7.6052,-7.5917,-7.5609,-7.469,-7.4354,-7.4236,-7.4091,-7.3705,-7.333,-7.292,-7.2507,-7.1787,-7.118,-7.046,-7.0119,-6.9891,-6.9891,-6.9891,-6.9891,-6.9891,-6.9891,-6.9891,-6.9891,-6.9891,-6.9891,-6.9891,-6.9891,-6.9891,-6.9891,-6.9891,-8.3027,-8.3512,-8.5335,-8.6094,-8.6094,-8.6094,-8.6324,-8.6748,-8.7209,-8.7363,-8.7286,-8.7248,-8.7248,-8.7248,-8.7248,-8.7132,-8.7171,-8.7286,-8.7401,-8.7325,-8.7094,-8.7363,-8.7248,-8.7094,-8.6978,-8.6824,-8.6324,-8.6517,-8.7478,-8.8248,-8.9094,-8.9936,-9.0807,-9.1368,-9.1438,-9.1561,-9.1687,-9.1716,-9.1716,-9.1484,-9.1174,-8.9975,-8.8931,-8.835,-8.7499,-8.6726,-8.661,-8.661,-8.661,-8.6556,-8.6433,-8.6285,-8.6126,-8.5958,-8.5923,-8.5651,-8.4844,-8.3841,-8.322,-8.2446,-8.1477,-8.1246,-8.1093,-8.1093,-8.1093,-8.1093,-8.1093,-8.1093,-8.1093,-8.1093,-8.1093,-8.1093,-8.1093,-8.1093,-8.1016,-8.0977,-8.0654,-8.0242,-7.9439,-7.8439,-7.7953,-7.7757,-7.725,-7.6668,-7.6005,-7.5197,-7.5242,-7.4719,-7.3903,-7.3301,-7.3184,-7.3028,-7.2685,-7.2418,-7.2122,-7.1784,-7.133,-7.0725,-7.0233,-7.0043,-6.9891,-6.9891,-6.9891,-6.9891,-6.9891,-6.9891,-6.9891,-6.9891,-6.9891,-6.9891,-6.9891,-6.9891,-6.9891,-6.9891,-6.9891,-8.2825,-8.3562,-8.5235,-8.5992,-8.6026,-8.6026,-8.6522,-8.7325,-8.7555,-8.8094,-8.8748,-8.8902,-8.894,-8.8709,-8.8671,-8.8671,-8.8556,-8.8248,-8.844,-8.8479,-8.8479,-8.8248,-8.8286,-8.844,-8.8017,-8.7517,-8.7055,-8.7209,-8.7748,-8.8556,-8.9363,-9.0017,-9.0663,-9.1341,-9.1438,-9.1531,-9.1629,-9.1687,-9.1561,-9.1097,-9.04,-8.9588,-8.8814,-8.7963,-8.7112,-8.6687,-8.661,-8.661,-8.661,-8.65,-8.6315,-8.6159,-8.5992,-8.5852,-8.5852,-8.5583,-8.5008,-8.4122,-8.3423,-8.2644,-8.1869,-8.1362,-8.117,-8.1093,-8.1093,-8.1093,-8.1093,-8.1093,-8.1093,-8.1093,-8.1093,-8.1093,-8.1093,-8.1054,-8.0977,-8.0708,-8.0299,-7.9825,-7.8786,-7.7742,-7.75,-7.7368,-7.6982,-7.6436,-7.5658,-7.4784,-7.4018,-7.3369,-7.2773,-7.2354,-7.205,-7.1896,-7.1629,-7.1403,-7.1215,-7.11,-7.0761,-7.046,-7.0043,-6.9929,-6.9891,-6.9891,-6.9891,-6.9891,-6.9891,-6.9891,-6.9891,-6.9891,-6.9891,-6.9891,-6.9891,-6.9891,-6.9891,-6.9891,-6.9891,-8.3177,-8.4774,-8.5159,-8.5474,-8.5704,-8.5702,-8.6348,-8.7406,-8.8171,-8.8902,-8.9671,-9.0287,-9.0094,-8.8709,-8.8671,-8.8786,-8.9094,-8.8979,-8.8748,-8.8671,-8.9017,-8.8863,-8.8786,-8.9017,-8.8671,-8.8325,-8.8132,-8.8286,-8.8325,-8.9094,-8.971,-8.9979,-9.0817,-9.1303,-9.14,-9.1462,-9.1475,-9.1465,-9.1251,-9.0826,-8.9743,-8.9085,-8.8737,-8.7925,-8.7074,-8.6764,-8.661,-8.661,-8.6489,-8.6375,-8.6159,-8.5992,-8.5852,-8.5779,-8.5742,-8.5589,-8.5051,-8.4282,-8.3508,-8.2808,-8.2073,-8.1246,-8.1093,-8.1093,-8.1093,-8.1093,-8.1093,-8.1093,-8.1093,-8.1093,-8.1093,-8.1093,-8.1093,-8.1054,-8.0977,-8.0439,-7.9922,-7.9365,-7.8557,-7.7835,-7.7308,-7.7175,-7.6986,-7.6322,-7.5528,-7.4668,-7.3877,-7.311,-7.1712,-7.1332,-7.099,-7.0875,-7.076,-7.0419,-7.0305,-7.0457,-7.0269,-7.0005,-6.9891,-6.9891,-6.9891,-6.9891,-6.9891,-6.9891,-6.9891,-6.9891,-6.9891,-6.9891,-6.9891,-6.9891,-6.9891,-6.9891,-6.9891,-6.9891,-6.9891]}]]